[[{"header":{"parameterUnit":"m.s-1","parameterCategory":1,"la1":30.6,"la2":28.766,"lo1":-90.7593,"lo2":-88.6598,"dy":0.0162,"dx":0.0183,"nx":116,"ny":114,"refTime":"2023-08-31T06:00:00:Z","depth":0,"parameterNumber":2,"parameterNumberName":"U-component_of_WINDS"},"data":[0.0,0.0,0.0,0.0,0.0,0.0,0.0,0.0,0.0,0.0,0.0,0.0,0.0,0.0,0.0,0.0,0.0,0.0,0.0,0.0,0.0,0.0,0.0,0.0,0.0,0.0,0.0,0.0,0.0,0.0,0.0,0.0,0.0,0.0,0.0,0.0,0.0,0.0,0.0,0.0,0.0,0.0,0.0,0.0,0.0,0.0,0.0,0.0,0.0,0.0,0.0,0.0,0.0,0.0,0.0,0.0,0.0,0.0,0.0,0.0,0.0,0.0,0.0,0.0,0.0,0.0,0.0,0.0,0.0,0.0,0.0,0.0,0.0,0.0,0.0,0.0,0.0,0.0,0.0,0.0,0.0,0.0,0.0,0.0,0.0,0.0,0.0,0.0,0.0,0.0,0.0,0.0,0.0,0.0,0.0,0.0,0.0,0.0,0.0,0.0,0.0,0.0,0.0,0.0,0.0,0.0,0.0,0.0,0.0,0.0,0.0,0.0,0.0,0.0,0.0,0.0,0.0,0.0,0.0,0.0,0.0,0.0,0.0,0.0,0.0,0.0,0.0,0.0,0.0,0.0,0.0,0.0,0.0,0.0,0.0,0.0,0.0,0.0,0.0,0.0,0.0,0.0,0.0,0.0,0.0,0.0,0.0,0.0,0.0,0.0,0.0,0.0,0.0,0.0,0.0,0.0,0.0,0.0,0.0,0.0,0.0,0.0,0.0,0.0,0.0,0.0,0.0,0.0,0.0,0.0,0.0,0.0,0.0,0.0,0.0,0.0,0.0,0.0,0.0,0.0,0.0,0.0,0.0,0.0,0.0,0.0,0.0,0.0,0.0,0.0,0.0,0.0,0.0,0.0,0.0,0.0,0.0,0.0,0.0,0.0,0.0,0.0,0.0,0.0,0.0,0.0,0.0,0.0,0.0,0.0,0.0,0.0,0.0,0.0,0.0,0.0,0.0,0.0,0.0,0.0,0.0,0.0,0.0,0.0,0.0,0.0,0.0,0.0,0.0,0.0,0.0,0.0,0.0,0.0,0.0,0.0,0.0,0.0,0.0,0.0,0.0,0.0,0.0,0.0,0.0,0.0,0.0,0.0,0.0,0.0,0.0,0.0,0.0,0.0,0.0,0.0,0.0,0.0,0.0,0.0,0.0,0.0,0.0,0.0,0.0,0.0,0.0,0.0,0.0,0.0,0.0,0.0,0.0,0.0,0.0,0.0,0.0,0.0,0.0,0.0,0.0,0.0,0.0,0.0,0.0,0.0,0.0,0.0,0.0,0.0,0.0,0.0,0.0,0.0,0.0,0.0,0.0,0.0,0.0,0.0,0.0,0.0,0.0,0.0,0.0,0.0,0.0,0.0,0.0,0.0,0.0,0.0,0.0,0.0,0.0,0.0,0.0,0.0,0.0,0.0,0.0,0.0,0.0,0.0,0.0,0.0,0.0,0.0,0.0,0.0,0.0,0.0,0.0,0.0,0.0,0.0,0.0,0.0,0.0,0.0,0.0,0.0,0.0,0.0,0.0,0.0,0.0,0.0,0.0,0.0,0.0,0.0,0.0,0.0,0.0,0.0,0.0,0.0,0.0,0.0,0.0,0.0,0.0,0.0,0.0,0.0,0.0,0.0,0.0,0.0,0.0,0.0,0.0,0.0,0.0,0.0,0.0,0.0,0.0,0.0,0.0,0.0,0.0,0.0,0.0,0.0,0.0,0.0,0.0,0.0,0.0,0.0,0.0,0.0,0.0,0.0,0.0,0.0,0.0,0.0,0.0,0.0,0.0,0.0,0.0,0.0,0.0,0.0,0.0,0.0,0.0,0.0,0.0,0.0,0.0,0.0,0.0,0.0,0.0,0.0,0.0,0.0,0.0,0.0,0.0,0.0,0.0,0.0,0.0,0.0,0.0,0.0,0.0,0.0,0.0,0.0,0.0,0.0,0.0,0.0,0.0,0.0,0.0,0.0,0.0,0.0,0.0,0.0,0.0,0.0,0.0,0.0,0.0,0.0,0.0,0.0,0.0,0.0,0.0,0.0,0.0,0.0,0.0,0.0,0.0,0.0,0.0,0.0,0.0,0.0,0.0,0.0,0.0,0.0,0.0,0.0,0.0,0.0,0.0,0.0,0.0,0.0,0.0,0.0,0.0,0.0,0.0,0.0,0.0,0.0,0.0,0.0,0.0,0.0,0.0,0.0,0.0,0.0,0.0,0.0,0.0,0.0,0.0,0.0,0.0,0.0,0.0,0.0,0.0,0.0,0.0,0.0,0.0,0.0,0.0,0.0,0.0,0.0,0.0,0.0,0.0,0.0,0.0,0.0,0.0,0.0,0.0,0.0,0.0,0.0,0.0,0.0,0.0,0.0,0.0,0.0,0.0,0.0,0.0,0.0,0.0,0.0,0.0,0.0,0.0,0.0,0.0,0.0,0.0,0.0,0.0,0.0,0.0,0.0,0.0,0.0,0.0,0.0,0.0,0.0,0.0,0.0,0.0,0.0,0.0,0.0,0.0,0.0,0.0,0.0,0.0,0.0,0.0,0.0,0.0,0.0,0.0,0.0,0.0,0.0,0.0,0.0,0.0,0.0,0.0,0.0,0.0,0.0,0.0,0.0,0.0,0.0,0.0,0.0,0.0,0.0,0.0,0.0,0.0,0.0,0.0,0.0,0.0,0.0,0.0,0.0,0.0,0.0,0.0,0.0,0.0,0.0,0.0,0.0,0.0,0.0,0.0,0.0,0.0,0.0,0.0,0.0,0.0,0.0,0.0,0.0,0.0,0.0,0.0,0.0,0.0,0.0,0.0,0.0,0.0,0.0,0.0,0.0,0.0,0.0,0.0,0.0,0.0,0.0,0.0,0.0,0.0,0.0,0.0,0.0,0.0,0.0,0.0,0.0,0.0,0.0,0.0,0.0,0.0,0.0,0.0,0.0,0.0,0.0,0.0,0.0,0.0,0.0,0.0,0.0,0.0,0.0,0.0,0.0,0.0,0.0,0.0,0.0,0.0,0.0,0.0,0.0,0.0,0.0,0.0,0.0,0.0,0.0,0.0,0.0,0.0,0.0,0.0,0.0,0.0,0.0,0.0,0.0,0.0,0.0,0.0,0.0,0.0,0.0,0.0,0.0,0.0,0.0,0.0,0.0,0.0,0.0,0.0,0.0,0.0,0.0,0.0,0.0,0.0,0.0,0.0,0.0,0.0,0.0,0.0,0.0,0.0,0.0,0.0,0.0,0.0,0.0,0.0,0.0,0.0,0.0,0.0,0.0,0.0,0.0,0.0,0.0,0.0,0.0,0.0,0.0,0.0,0.0,0.0,0.0,0.0,0.0,0.0,0.0,0.0,0.0,0.0,0.0,0.0,0.0,0.0,0.0,0.0,0.0,0.0,0.0,0.0,0.0,0.0,0.0,0.0,0.0,0.0,0.0,0.0,0.0,0.0,0.0,0.0,0.0,0.0,0.0,0.0,0.0,0.0,0.0,0.0,0.0,0.0,0.0,0.0,0.0,0.0,0.0,0.0,0.0,0.0,0.0,0.0,0.0,0.0,0.0,0.0,0.0,0.0,0.0,0.0,0.0,0.0,0.0,0.0,0.0,0.0,0.0,0.0,0.0,0.0,0.0,0.0,0.0,0.0,0.0,0.0,0.0,0.0,0.0,0.0,0.0,0.0,0.0,0.0,0.0,0.0,0.0,0.0,0.0,0.0,0.0,0.0,0.0,0.0,0.0,0.0,0.0,0.0,0.0,0.0,0.0,0.0,0.0,0.0,0.0,0.0,0.0,0.0,0.0,0.0,0.0,0.0,0.0,0.0,0.0,0.0,0.0,0.0,0.0,0.0,0.0,0.0,0.0,0.0,0.0,0.0,0.0,0.0,0.0,0.0,0.0,0.0,0.0,0.0,0.0,0.0,0.0,0.0,0.0,0.0,0.0,0.0,0.0,0.0,0.0,0.0,0.0,0.0,0.0,0.0,0.0,0.0,0.0,0.0,0.0,0.0,0.0,0.0,0.0,0.0,0.0,0.0,0.0,0.0,0.0,0.0,0.0,0.0,0.0,0.0,0.0,0.0,0.0,0.0,0.0,0.0,0.0,0.0,0.0,0.0,0.0,0.0,0.0,0.0,0.0,0.0,0.0,0.0,0.0,0.0,0.0,0.0,0.0,0.0,0.0,0.0,0.0,0.0,0.0,0.0,0.0,0.0,0.0,0.0,0.0,0.0,0.0,0.0,0.0,0.0,0.0,0.0,0.0,0.0,0.0,0.0,0.0,0.0,0.0,0.0,0.0,0.0,0.0,0.0,0.0,0.0,0.0,0.0,0.0,0.0,0.0,0.0,0.0,0.0,0.0,0.0,0.0,0.0,0.0,0.0,0.0,0.0,0.0,0.0,0.0,0.0,0.0,0.0,0.0,0.0,0.0,0.0,0.0,0.0,0.0,0.0,0.0,0.0,0.0,0.0,0.0,0.0,0.0,0.0,0.0,0.0,0.0,0.0,0.0,0.0,0.0,0.0,0.0,0.0,0.0,0.0,0.0,0.0,0.0,0.0,0.0,0.0,0.0,0.0,0.0,0.0,0.0,0.0,0.0,0.0,0.0,0.0,0.0,0.0,0.0,0.0,0.0,0.0,0.0,0.0,0.0,0.0,0.0,0.0,0.0,0.0,0.0,0.0,0.0,0.0,0.0,0.0,0.0,0.0,0.0,0.0,0.0,0.0,0.0,0.0,0.0,0.0,0.0,0.0,0.0,0.0,0.0,0.0,0.0,0.0,0.0,0.0,0.0,0.0,0.0,0.0,0.0,0.0,0.0,0.0,0.0,0.0,0.0,0.0,0.0,0.0,0.0,0.0,0.0,0.0,0.0,0.0,0.0,0.0,0.0,0.0,0.0,0.0,0.0,0.0,0.0,0.0,0.0,0.0,0.0,0.0,0.0,0.0,0.0,0.0,0.0,0.0,0.0,0.0,0.0,0.0,0.0,0.0,0.0,0.0,0.0,0.0,0.0,0.0,0.0,0.0,0.0,0.0,0.0,0.0,0.0,0.0,0.0,0.0,0.0,0.0,0.0,0.0,0.0,0.0,0.0,0.0,0.0,0.0,0.0,0.0,0.0,0.0,0.0,0.0,0.0,0.0,0.0,0.0,0.0,0.0,0.0,0.0,0.0,0.0,0.0,0.0,0.0,0.0,0.0,0.0,0.0,0.0,0.0,0.0,0.0,0.0,0.0,0.0,0.0,0.0,0.0,0.0,0.0,0.0,0.0,0.0,0.0,0.0,0.0,0.0,0.0,0.0,0.0,0.0,0.0,0.0,0.0,0.0,0.0,0.0,0.0,0.0,0.0,0.0,0.0,0.0,0.0,0.0,0.0,0.0,0.0,0.0,0.0,0.0,0.0,0.0,0.0,0.0,0.0,0.0,0.0,0.0,0.0,0.0,0.0,0.0,0.0,0.0,0.0,0.0,0.0,0.0,0.0,0.0,0.0,0.0,0.0,0.0,0.0,0.0,0.0,0.0,0.0,0.0,0.0,0.0,0.0,0.0,0.0,0.0,0.0,0.0,0.0,0.0,0.0,0.0,0.0,0.0,0.0,0.0,0.0,0.0,0.0,0.0,0.0,0.0,0.0,0.0,0.0,0.0,0.0,0.0,0.0,0.0,0.0,0.0,0.0,0.0,0.0,0.0,0.0,0.0,0.0,0.0,0.0,0.0,0.0,0.0,0.0,0.0,0.0,0.0,0.0,0.0,0.0,0.0,0.0,0.0,0.0,0.0,0.0,0.0,0.0,0.0,0.0,0.0,0.0,0.0,0.0,0.0,0.0,0.0,0.0,0.0,0.0,0.0,0.0,0.0,0.0,0.0,0.0,0.0,0.0,0.0,0.0,0.0,0.0,0.0,0.0,0.0,0.0,0.0,0.0,0.0,0.0,0.0,0.0,0.0,0.0,0.0,0.0,0.0,0.0,0.0,0.0,0.0,0.0,0.0,0.0,0.0,0.0,0.0,0.0,0.0,0.0,0.0,0.0,0.0,0.0,0.0,0.0,0.0,0.0,0.0,0.0,0.0,0.0,0.0,0.0,0.0,0.0,0.0,0.0,0.0,0.0,0.0,0.0,-2.9589,0.0,0.0,0.0,0.0,0.0,0.0,0.0,0.0,0.0,0.0,0.0,0.0,0.0,0.0,0.0,0.0,0.0,0.0,0.0,0.0,0.0,0.0,0.0,0.0,0.0,0.0,0.0,0.0,0.0,0.0,0.0,0.0,0.0,0.0,0.0,0.0,0.0,0.0,-2.8806,-2.8806,-2.8806,-2.8806,-2.9464,-3.0316,-3.1323,0.0,0.0,0.0,0.0,0.0,0.0,0.0,0.0,0.0,0.0,0.0,0.0,0.0,0.0,0.0,0.0,0.0,0.0,0.0,0.0,0.0,0.0,0.0,0.0,0.0,0.0,0.0,0.0,0.0,0.0,0.0,0.0,0.0,0.0,0.0,0.0,0.0,0.0,0.0,0.0,0.0,0.0,0.0,0.0,0.0,0.0,0.0,0.0,0.0,0.0,0.0,0.0,0.0,0.0,0.0,0.0,0.0,0.0,0.0,0.0,0.0,0.0,0.0,0.0,0.0,0.0,0.0,0.0,0.0,0.0,0.0,-2.9314,0.0,0.0,0.0,0.0,0.0,0.0,0.0,0.0,0.0,0.0,0.0,0.0,0.0,0.0,0.0,0.0,0.0,0.0,0.0,0.0,0.0,0.0,0.0,-2.5695,-2.5839,-2.5849,-2.5887,-2.5897,0.0,0.0,0.0,0.0,0.0,0.0,-2.6853,-2.6853,-2.6938,-2.7167,-2.7167,-2.7167,-2.7167,-2.794,-2.876,-2.9567,-2.9988,0.0,0.0,0.0,0.0,0.0,0.0,0.0,0.0,0.0,0.0,0.0,0.0,0.0,0.0,0.0,0.0,0.0,0.0,0.0,0.0,0.0,0.0,0.0,0.0,0.0,0.0,0.0,0.0,0.0,0.0,0.0,0.0,0.0,0.0,0.0,0.0,0.0,0.0,0.0,0.0,0.0,0.0,0.0,0.0,0.0,0.0,0.0,0.0,0.0,0.0,0.0,0.0,0.0,0.0,0.0,0.0,0.0,0.0,0.0,0.0,0.0,0.0,0.0,-2.9084,-2.9185,-2.9164,-2.8769,-2.8449,-2.8136,-2.8158,-2.8098,-2.7987,0.0,0.0,0.0,0.0,0.0,0.0,0.0,0.0,0.0,0.0,0.0,0.0,0.0,0.0,0.0,0.0,0.0,0.0,0.0,0.0,0.0,0.0,-2.3398,-2.3135,-2.3335,-2.3384,-2.3484,-2.3692,0.0,0.0,0.0,0.0,0.0,-2.6544,-2.6544,-2.6544,-2.6592,-2.6592,-2.6592,-2.6592,-2.6726,-2.687,-2.7098,-2.9257,-3.0215,-3.0249,0.0,0.0,0.0,0.0,0.0,0.0,0.0,0.0,0.0,0.0,0.0,0.0,0.0,0.0,0.0,0.0,0.0,0.0,0.0,0.0,0.0,0.0,0.0,0.0,0.0,0.0,0.0,0.0,0.0,0.0,0.0,0.0,0.0,0.0,0.0,0.0,0.0,0.0,0.0,0.0,0.0,-2.664,-2.6774,0.0,0.0,0.0,0.0,0.0,0.0,0.0,0.0,0.0,0.0,0.0,0.0,0.0,-2.9613,-2.8898,-2.8139,-2.7356,-2.6586,-2.5937,-2.5595,-2.5586,-2.5528,-2.5672,-2.5929,-2.5921,0.0,-2.7893,-2.6849,0.0,0.0,0.0,0.0,0.0,0.0,0.0,0.0,0.0,0.0,0.0,0.0,0.0,0.0,0.0,0.0,0.0,0.0,0.0,0.0,0.0,-2.1973,-2.2114,-2.2215,-2.2215,-2.2265,-2.2366,-2.2976,0.0,0.0,0.0,-2.4344,-2.4492,-2.4492,-2.4541,-2.4688,-2.4688,-2.4688,-2.4688,-2.4688,-2.5041,-2.5645,-2.674,-2.7547,-2.8107,-2.8107,0.0,0.0,0.0,0.0,0.0,0.0,0.0,0.0,0.0,0.0,0.0,0.0,0.0,0.0,0.0,0.0,0.0,0.0,0.0,0.0,0.0,0.0,0.0,0.0,0.0,0.0,0.0,0.0,0.0,0.0,0.0,0.0,0.0,0.0,0.0,0.0,0.0,0.0,0.0,-2.637,-2.6119,-2.687,-2.637,-2.6322,0.0,0.0,0.0,0.0,0.0,0.0,0.0,0.0,0.0,-2.7208,-2.7187,-2.6999,-2.6606,-2.6478,-2.6109,-2.5399,-2.5305,-2.5071,-2.473,-2.4469,-2.4418,-2.4583,-2.4363,-2.47,-2.5363,-2.5643,-2.5897,-2.6055,0.0,0.0,0.0,0.0,-2.4541,-2.4344,0.0,0.0,0.0,0.0,0.0,0.0,0.0,0.0,0.0,0.0,0.0,0.0,-1.9665,-1.9836,-1.9979,-1.9979,-2.0251,-2.0412,-2.0412,-2.1151,-2.1574,-2.1574,-2.2022,-2.2374,-2.2576,-2.2685,-2.2785,-2.2985,-2.3035,-2.3085,-2.3085,-2.3085,-2.3543,-2.4295,-2.4295,-2.5089,-2.6496,-2.6496,-2.6602,-2.6805,0.0,0.0,0.0,0.0,0.0,0.0,0.0,0.0,0.0,0.0,0.0,0.0,0.0,0.0,0.0,0.0,0.0,0.0,0.0,0.0,0.0,0.0,0.0,0.0,0.0,0.0,0.0,0.0,0.0,0.0,0.0,0.0,0.0,0.0,0.0,0.0,0.0,-2.5964,-2.5606,-2.6918,-2.5664,-2.5207,0.0,0.0,0.0,0.0,0.0,0.0,-2.4967,-2.501,-2.5066,-2.5066,-2.4902,-2.4699,-2.45,-2.4753,-2.455,-2.3939,-2.4186,-2.4111,-2.3652,-2.328,-2.3211,-2.3289,-2.2961,-2.2892,-2.3046,-2.4157,-2.4505,-2.4285,-2.3876,-2.3532,-2.3302,-2.3149,-2.3073,-2.2885,0.0,0.0,0.0,0.0,0.0,0.0,0.0,0.0,0.0,0.0,0.0,-1.765,-1.7421,-1.6155,-1.5352,-1.5352,-1.6315,-1.6956,-1.6956,-1.8939,-2.0128,-2.0128,-2.1143,-2.1752,-2.1752,-2.2022,-2.2139,-2.2139,-2.2433,-2.2534,-2.2534,-2.2534,-2.2593,-2.2634,-2.2634,-2.4088,-2.6496,-2.6496,-2.6496,-2.6544,-2.6805,0.0,0.0,0.0,0.0,0.0,0.0,0.0,0.0,0.0,0.0,0.0,0.0,0.0,0.0,0.0,0.0,0.0,0.0,0.0,0.0,0.0,0.0,0.0,0.0,0.0,0.0,0.0,0.0,0.0,0.0,0.0,0.0,0.0,0.0,0.0,0.0,0.0,0.0,-2.639,-2.4442,0.0,0.0,0.0,0.0,-2.3434,-2.3461,-2.342,-2.342,-2.3758,-2.3963,-2.3963,-2.4387,-2.421,-2.3413,-2.3073,-2.2497,-2.1687,-2.1322,-2.1126,-2.1067,-2.1051,-2.127,-2.1635,-2.1619,-2.1751,-2.206,-2.2203,-2.2719,-2.3306,-2.2843,-2.2911,-2.3238,-2.2792,-2.2443,-2.2047,0.0,0.0,0.0,0.0,0.0,0.0,0.0,0.0,-1.6811,-1.655,-1.5999,-1.5571,-1.5258,-1.4719,-1.44,-1.44,-1.4776,-1.5043,-1.5043,-1.599,-1.6837,-1.7594,-1.815,-1.8828,-1.9583,-1.9694,-1.9694,-1.9694,-1.9797,-1.9849,-1.9849,-2.0071,-2.0534,-2.1234,-2.1387,-2.2391,-2.3989,-2.4639,-2.5041,-2.5294,-2.6052,-2.6448,0.0,0.0,0.0,0.0,0.0,0.0,0.0,0.0,0.0,0.0,0.0,0.0,0.0,0.0,0.0,0.0,0.0,0.0,0.0,0.0,0.0,0.0,0.0,0.0,0.0,0.0,0.0,0.0,0.0,0.0,0.0,0.0,0.0,0.0,0.0,0.0,0.0,-2.4285,-2.2935,0.0,-2.3741,-2.3393,-2.2885,-2.2534,-2.2622,-2.251,-2.2158,-2.2275,-2.2341,-2.2341,-2.2293,-2.2088,-2.1742,-2.162,-2.1238,-2.0625,-2.0449,-2.0189,-1.9894,-1.9894,-1.9955,-2.0061,-2.0061,-2.0136,-2.0272,-2.0289,-2.0822,-2.1582,-2.1167,-2.0893,-2.0704,-2.0519,-2.0385,-2.0285,0.0,0.0,0.0,0.0,0.0,0.0,0.0,0.0,-1.4887,-1.4597,-1.408,-1.3572,-1.3241,-1.2896,-1.2625,-1.2625,-1.3112,-1.3378,-1.3378,-1.403,-1.4787,-1.5535,-1.5743,-1.6168,-1.6916,-1.7081,-1.7298,-1.7681,-1.7874,-1.8146,-1.8576,-1.8809,-1.9275,-1.9978,-2.0013,-2.0518,-2.1336,-2.2433,-2.3244,-2.389,-2.4688,-2.5089,-2.5197,0.0,0.0,0.0,0.0,0.0,0.0,0.0,0.0,0.0,0.0,0.0,0.0,0.0,0.0,0.0,0.0,0.0,0.0,0.0,0.0,0.0,0.0,0.0,0.0,0.0,0.0,0.0,0.0,0.0,0.0,0.0,0.0,0.0,0.0,0.0,-2.1785,-2.3135,-2.1735,-2.1132,-2.2484,-2.2038,-2.154,-2.1183,-2.1262,-2.1146,-2.0789,-2.0736,-2.0736,-2.0736,-2.0519,-2.0359,-2.0359,-2.0359,-2.0197,-1.9828,-1.9828,-1.9628,-1.9279,-1.9279,-1.9279,-1.9279,-1.9279,-1.9279,-1.9279,-1.9279,-1.9665,-2.0212,-2.0046,-1.9725,-1.9286,-1.9448,-1.9419,-1.9272,0.0,0.0,0.0,0.0,0.0,0.0,0.0,-1.4348,-1.4174,-1.3843,-1.2726,-1.1804,-1.1455,-1.0464,-0.9816,-0.9816,-1.1114,-1.1928,-1.1928,-1.3221,-1.397,-1.4024,-1.4078,-1.4078,-1.4078,-1.4411,-1.5114,-1.624,-1.6756,-1.7598,-1.8763,-1.8817,-1.8817,-1.8803,-1.8555,-1.8586,-1.8974,-1.9983,-2.1183,-2.2383,-2.2735,-2.2735,-2.2634,0.0,0.0,0.0,0.0,0.0,0.0,0.0,0.0,0.0,0.0,0.0,0.0,0.0,0.0,0.0,0.0,0.0,0.0,0.0,0.0,0.0,0.0,0.0,0.0,0.0,0.0,0.0,0.0,0.0,0.0,0.0,0.0,0.0,-2.2793,-2.2038,-2.1735,-2.3035,-2.0885,-1.9828,-2.1132,-2.0078,-1.9279,-1.9279,-1.9279,-1.9279,-1.9279,-1.9279,-1.9279,-1.9279,-1.9279,-1.9279,-1.9279,-1.9279,-1.9279,-1.9279,-1.9279,-1.9279,-1.9279,-1.9279,-1.9272,-1.9272,-1.9272,-1.922,-1.922,-1.922,-1.922,-1.9249,-1.9623,-1.9557,-1.9316,-1.9577,-1.9497,-1.9116,0.0,0.0,0.0,0.0,0.0,0.0,0.0,-1.1598,-1.1384,-1.1273,-1.0779,-1.0355,-1.0253,-0.9978,-0.9816,-0.9816,-1.0194,-1.0414,-1.0414,-1.0789,-1.1328,-1.2191,-1.3215,-1.3809,-1.3809,-1.4083,-1.4406,-1.4674,-1.4843,-1.5093,-1.5421,-1.6505,-1.6998,-1.7045,-1.7984,-1.8422,-1.8534,-1.884,-1.919,-1.9694,-2.1777,-2.2593,-2.2534,0.0,0.0,0.0,0.0,0.0,0.0,0.0,0.0,0.0,0.0,0.0,0.0,0.0,0.0,0.0,0.0,0.0,0.0,0.0,0.0,0.0,0.0,0.0,0.0,0.0,0.0,0.0,0.0,0.0,0.0,0.0,0.0,-1.9576,-2.0285,-2.0078,-1.9983,-2.038,-1.9732,-1.9428,-1.9828,-1.9532,-1.9279,-1.9279,-1.9279,-1.9279,-1.9279,-1.9279,-1.9279,-1.9279,-1.9279,-1.9279,-1.9279,-1.9279,-1.9279,-1.9279,-1.9279,-1.9279,-1.9279,-1.9279,-1.8952,-1.8363,-1.8363,-1.7996,-1.7417,-1.7417,-1.7417,-1.7483,-1.819,-1.8433,-1.8265,-1.7775,-1.749,-1.7364,0.0,0.0,0.0,0.0,0.0,0.0,0.0,-1.006,-0.9899,-0.9899,-0.9627,-0.9455,-0.952,-0.947,-0.943,-0.943,-0.9541,-0.9651,-0.9651,-0.9761,-1.0084,-1.0735,-1.1601,-1.2087,-1.2087,-1.2245,-1.2516,-1.2999,-1.3257,-1.3624,-1.4114,-1.5101,-1.5593,-1.5641,-1.6277,-1.6922,-1.7516,-1.7516,-1.7838,-1.8527,-2.0151,-2.0759,-2.081,-2.1261,-2.1464,-2.1515,-2.2131,-2.2282,-2.2223,-2.2433,0.0,0.0,0.0,0.0,0.0,0.0,0.0,0.0,0.0,0.0,0.0,0.0,0.0,0.0,0.0,0.0,0.0,0.0,0.0,0.0,0.0,0.0,0.0,0.0,-1.7496,-1.766,-1.8146,-1.8848,-1.9279,-1.9279,-1.9279,-1.9279,-1.9279,-1.9279,-1.9279,-1.9279,-1.9279,-1.9279,-1.9279,-1.9279,-1.9279,-1.9279,-1.9279,-1.9279,-1.9279,-1.8952,-1.8736,-1.8736,-1.837,-1.8213,-1.8213,-1.8213,-1.7943,0.0,-1.7463,-1.7147,-1.6677,-1.6677,-1.6677,0.0,0.0,0.0,0.0,0.0,-1.6677,-1.6624,0.0,0.0,0.0,0.0,0.0,0.0,0.0,-0.949,-0.9388,-0.9405,-0.9017,-0.8768,-0.8964,-0.8686,-0.8491,-0.8491,-0.8764,-0.8985,-0.9154,-0.9375,-0.9537,-0.9706,-0.9761,-0.9761,-0.9761,-0.9761,-1.03,-1.1328,-1.1824,-1.2626,-1.3613,-1.4059,-1.4284,-1.4274,-1.412,-1.4781,-1.6027,-1.6027,-1.6823,-1.8101,-1.8101,-1.8206,-1.852,-1.948,-1.9826,-1.9981,-2.1218,-2.1515,-2.1397,-2.187,0.0,0.0,0.0,0.0,0.0,0.0,0.0,0.0,0.0,0.0,0.0,0.0,0.0,0.0,0.0,0.0,0.0,0.0,0.0,0.0,0.0,0.0,0.0,0.0,-1.4984,-1.5358,-1.638,-1.7825,-1.89,-1.922,-1.9279,-1.9279,-1.9279,-1.9279,-1.9279,-1.9279,-1.9279,-1.9272,-1.9168,0.0,0.0,0.0,0.0,-1.9011,-1.9011,-1.8258,-1.7832,-1.7832,-1.6988,-1.6624,-1.6624,-1.6511,-1.6458,-1.6352,-1.6352,-1.6299,-1.6199,-1.6199,-1.6199,-1.6246,-1.6411,-1.6411,-1.6305,-1.6246,-1.6199,-1.6086,0.0,0.0,0.0,0.0,0.0,0.0,0.0,-0.9554,-0.9425,-0.9551,-0.8337,-0.7533,-0.7709,-0.6766,-0.6086,-0.6086,-0.6139,-0.6589,-0.7487,-0.7595,-0.8042,-0.9047,-0.9323,-0.9489,-0.9489,-0.9706,-0.9923,-1.0139,-1.0229,-1.0406,-1.0678,-1.1654,-1.2251,-1.2524,-1.3398,-1.4078,-1.4513,-1.4513,-1.5263,-1.6393,-1.6393,-1.7193,-1.8422,-1.8617,-1.8729,-1.8722,-1.9034,-1.9079,-1.9027,-1.9138,-1.9138,-1.9086,-1.893,-1.8885,0.0,0.0,0.0,0.0,0.0,0.0,0.0,0.0,0.0,0.0,0.0,0.0,0.0,0.0,0.0,0.0,0.0,0.0,0.0,-1.5037,-1.4984,-1.5091,-1.5304,-1.5624,-1.6592,-1.8757,-1.9175,-1.9279,-1.9279,-1.9279,-1.9279,-1.9279,-1.9279,-1.9004,-1.8304,-1.8251,0.0,-1.7206,-1.7206,-1.7206,-1.7206,-1.7047,-1.6935,-1.6942,0.0,0.0,-1.6021,-1.553,-1.4936,-1.4293,-1.4293,-1.3873,-1.3246,-1.3246,-1.3246,-1.3349,-1.4524,-1.4589,-1.39,-1.3408,-1.3246,-1.3192,0.0,0.0,0.0,0.0,0.0,0.0,0.0,-0.9527,-0.923,-0.8654,-0.7738,-0.6972,-0.6571,-0.5866,-0.5417,-0.5417,-0.5417,-0.5641,-0.62,-0.6255,-0.6533,-0.7146,-0.7313,-0.7421,-0.7421,-0.8091,-0.8429,-0.8429,-0.9206,-0.9596,-0.9599,-1.03,-1.0735,-1.0899,-1.1492,-1.2136,-1.2783,-1.3004,-1.3706,-1.4835,-1.4942,-1.5476,-1.638,-1.7569,-1.8003,-1.8003,-1.8167,-1.8108,-1.8055,-1.8318,-1.8318,-1.822,-1.837,-1.8422,-1.8422,0.0,0.0,0.0,0.0,0.0,0.0,0.0,0.0,0.0,0.0,0.0,0.0,0.0,0.0,-1.477,0.0,0.0,-1.3647,-1.295,-1.2842,-1.3053,-1.3647,-1.3809,-1.4669,-1.6704,-1.7074,-1.7127,-1.7127,-1.7127,-1.7127,-1.7127,-1.7127,-1.6962,-1.6533,-1.648,-1.6274,-1.5855,-1.5855,-1.5855,-1.5855,-1.5429,-1.5215,-1.5215,-1.4471,-1.4153,-1.4148,-1.3825,-1.3442,-1.3068,-1.3068,-1.2807,-1.2387,-1.2387,-1.2387,-1.2436,-1.2916,-1.2975,-1.2822,-1.2495,-1.2387,-1.2387,0.0,0.0,0.0,0.0,0.0,0.0,0.0,-0.9284,-0.8718,-0.7774,-0.6933,-0.6095,-0.5321,-0.491,-0.4693,-0.4693,-0.4693,-0.4804,-0.5027,-0.5027,-0.5139,-0.5417,-0.5417,-0.5417,-0.5417,-0.6313,-0.676,-0.676,-0.8263,-0.8933,-0.8989,-0.943,-0.9651,-0.9706,-0.9706,-1.0245,-1.1164,-1.1437,-1.225,-1.327,-1.3485,-1.3755,-1.4239,-1.6121,-1.6882,-1.6935,-1.7153,-1.71,-1.7041,-1.7674,-1.7628,-1.7312,-1.7786,-1.7726,-1.7615,-1.7832,-1.7891,0.0,0.0,0.0,0.0,0.0,0.0,0.0,0.0,0.0,-1.4449,-1.4234,-1.418,-1.3809,-1.2635,-1.2363,-1.2041,-1.0852,-1.0692,-1.1017,-1.1932,-1.2254,-1.2847,-1.4019,-1.4663,-1.4984,-1.4984,-1.4984,-1.4984,-1.4984,-1.4984,-1.4931,-1.477,-1.477,-1.4663,-1.4508,-1.4508,-1.4508,-1.4508,-1.3814,-1.3437,-1.3437,-1.2644,-1.2223,-1.2223,-1.2114,-1.206,-1.206,-1.2101,-1.2137,-1.2174,-1.2174,-1.2174,-1.2119,-1.1678,-1.1788,-1.2165,-1.2087,-1.206,-1.206,0.0,0.0,0.0,0.0,0.0,0.0,0.0,0.0,-0.7784,-0.7776,-0.5592,-0.4006,-0.4014,-0.2942,-0.2186,-0.2186,-0.2186,-0.2632,-0.3748,-0.3804,-0.4305,-0.5361,-0.5417,-0.5417,-0.5417,-0.5528,-0.5584,-0.5584,-0.676,-0.7376,-0.7374,-0.8491,-0.9158,-0.9434,-0.9434,-0.9651,-0.9978,-1.0033,-1.068,-1.1755,-1.1755,-1.2566,-1.3755,-1.4024,-1.4293,-1.4513,-1.4513,-1.4508,-1.4674,-1.5802,-1.5429,-1.4728,-1.5855,-1.5423,-1.4776,-1.5855,-1.618,-1.6399,-1.7417,-1.6876,-1.5482,-1.3221,-1.3437,-1.3647,0.0,0.0,-1.2413,-1.1391,-1.1177,-1.1122,-1.0962,-1.0907,-1.0852,-1.0747,-1.0692,-1.0747,-1.0852,-1.0907,-1.1017,-1.1177,-1.3431,-1.4984,-1.4984,-1.4984,-1.4984,-1.4984,-1.4984,-1.4663,-1.3911,-1.3863,-1.3491,-1.2703,-1.2703,-1.2703,-1.2703,-1.2595,-1.254,-1.2545,-1.1946,-1.1678,-1.1678,-1.1131,-1.0911,-1.092,-1.109,-1.1195,-1.1335,-1.1335,-1.1335,-1.1335,-1.1278,-1.1278,-1.1298,-1.0972,-1.0911,-1.0911,0.0,0.0,0.0,0.0,0.0,0.0,0.0,0.0,0.0,-0.6906,-0.5552,-0.4243,-0.2814,-0.2152,-0.1795,-0.1795,-0.1795,-0.2019,-0.2521,-0.2577,-0.28,-0.3302,-0.3301,-0.3301,-0.3301,-0.397,-0.436,-0.436,-0.6202,-0.7096,-0.7152,-0.8325,-0.8995,-0.9103,-0.9103,-0.9158,-0.9268,-0.9485,-0.9868,-1.03,-1.0464,-1.0895,-1.1437,-1.1437,-1.1492,-1.1819,-1.3485,-1.4078,0.0,-1.4674,-1.4508,-1.4191,-1.4674,-1.4513,-1.4186,-1.4728,-1.4835,-1.4835,-1.462,-1.4245,-1.3496,0.0,-1.1769,-1.1878,-1.0907,-1.1067,-1.1286,-1.0802,-1.0692,-1.0692,-1.0692,-1.0692,-1.0692,0.0,-1.0692,-1.0692,-1.0692,-1.0692,-1.0692,-1.0692,-1.1769,-1.2521,-1.2521,-1.2521,-1.2521,-1.2521,-1.2521,-1.2358,-1.1982,-1.1928,-1.1773,-1.14,-1.14,-1.14,-1.14,-1.14,-1.14,-1.1404,-1.13,-1.124,-1.1244,-1.1068,-1.1001,-1.1005,-1.1082,-1.1155,-1.1224,-1.1224,-1.1224,-1.1224,-1.1224,-1.1224,-1.1204,-1.1053,-1.1001,-1.0988,0.0,0.0,0.0,0.0,0.0,0.0,0.0,0.0,0.0,0.0,-0.5479,-0.4285,-0.2072,-0.1813,-0.1795,-0.1795,-0.1795,-0.1795,-0.1795,-0.1795,-0.1795,-0.1795,-0.1795,-0.1795,-0.1795,-0.2632,-0.3079,-0.3079,-0.5142,-0.6313,-0.6649,-0.782,-0.8605,-0.8885,-0.8885,-0.8885,-0.894,-0.9158,-0.9268,-0.9268,-0.9485,-0.9596,-0.9706,-0.9706,-0.9761,-1.0084,-1.2141,-1.295,-1.3112,-1.3437,-1.3383,-1.3221,-1.3545,-1.3437,-1.3221,-1.3545,-1.3863,-1.3863,-1.2684,-1.2417,0.0,-1.0962,-1.0692,-1.0692,-1.0692,-1.0692,-1.0692,-1.0692,-1.0692,-1.0708,-1.0757,-1.0769,-1.0781,-1.083,-1.0838,-1.0838,-1.0838,-1.0838,-1.0838,-1.0838,-1.0838,-1.0838,-1.0838,-1.0749,-1.0692,-1.0692,-1.0692,-1.0692,-1.0692,-1.0692,-1.0716,-1.0765,-1.0769,-1.0794,-1.0838,-1.0838,-1.0838,-1.0842,-1.0976,-1.1037,-1.1041,-1.1167,-1.1248,-1.1297,-1.1297,-1.1325,-1.1374,-1.1374,-1.1374,-1.1374,-1.1374,-1.1374,-1.1374,-1.1374,-1.1309,-1.1204,0.0,0.0,0.0,0.0,0.0,0.0,0.0,0.0,0.0,0.0,0.0,0.0,0.0,-0.1813,-0.1795,-0.1795,-0.1795,-0.1795,-0.1795,-0.1795,-0.1795,-0.1795,-0.1795,-0.1795,-0.1795,-0.1851,-0.1851,-0.1851,-0.3079,-0.4305,-0.5472,-0.6594,-0.7765,-0.8885,-0.8885,-0.8885,-0.8885,-0.8885,-0.894,-0.894,-0.8937,-0.9103,-0.9434,-0.9434,-0.9599,-0.9816,-0.9923,-1.0143,-1.0582,-1.1714,-1.1496,-1.1017,-1.2091,-1.1719,-1.1017,-1.2146,-1.3221,-1.3863,-1.2684,-1.2417,-1.2146,-1.0962,-1.0692,-1.0692,-1.0692,-1.0692,-1.0692,-1.0692,-1.0692,-1.0749,-1.0928,-1.1016,-1.1017,-1.1179,-1.1204,-1.1204,-1.1204,-1.1204,-1.1204,-1.1204,-1.1204,-1.1204,0.0,-1.0895,-1.0692,-1.0692,-1.0692,-1.0692,-1.0692,-1.0692,-1.0773,-1.0956,-1.1016,-1.1041,-1.1204,-1.1204,-1.1204,-1.1204,-1.1212,-1.1212,-1.1212,-1.122,-1.1321,-1.1492,-1.1492,-1.1593,-1.176,-1.176,-1.176,-1.176,-1.176,-1.176,-1.176,-1.176,-1.1533,-1.1224,0.0,0.0,0.0,0.0,0.0,0.0,0.0,0.0,0.0,0.0,0.0,0.0,0.0,0.0,0.0,0.0,-0.1795,-0.1795,-0.1795,-0.1795,-0.1795,-0.1795,-0.1795,-0.1795,-0.1795,-0.1795,-0.1795,-0.1795,-0.3024,-0.3804,-0.4249,-0.6202,-0.7321,-0.7768,-0.8546,-0.8885,-0.8885,-0.8885,-0.8885,-0.8885,-0.8885,-0.8995,-0.9051,-0.9051,-0.9103,-0.9213,0.0,-0.9541,-1.0036,-1.0414,-1.0359,-1.0143,-1.0574,-1.0414,-1.0198,-1.0578,-1.0954,-1.1168,-1.0789,-1.0684,-1.0574,-1.0198,-1.0088,-1.0088,-1.0088,-1.0257,-1.0421,-1.0421,-1.0679,-1.0895,-1.1016,-1.1062,-1.1155,-1.1212,-1.1224,-1.1224,-1.1224,-1.1224,-1.1224,-1.1224,-1.1224,0.0,0.0,0.0,0.0,-1.1045,-1.1045,-1.1045,-1.1045,-1.1045,-1.107,-1.1135,-1.1139,-1.1163,-1.1224,-1.1224,-1.1224,-1.1224,-1.135,-1.1472,-1.1589,-1.1589,-1.1626,-1.1683,-1.1683,-1.1719,-1.1776,-1.1776,-1.1776,-1.1776,-1.1776,-1.1651,-1.1462,-1.1462,-1.0651,-0.9755,0.0,0.0,0.0,0.0,0.0,0.0,0.0,0.0,0.0,0.0,0.0,0.0,0.0,0.0,0.0,0.0,0.0,-0.1795,-0.1795,-0.1795,-0.1795,-0.1795,-0.1795,-0.1795,-0.1795,-0.1795,-0.1795,-0.1795,-0.2576,-0.3191,-0.3636,-0.5588,-0.6705,-0.7152,-0.838,-0.8885,-0.8885,-0.8885,-0.8885,-0.8885,-0.8885,-0.8885,-0.8885,-0.8885,-0.8885,0.0,-0.8885,-0.9158,-0.9485,-0.9596,-0.9706,-0.9816,-0.9816,-0.9816,-0.9816,-0.9816,-0.9816,-0.9816,-0.9816,-0.9816,-0.9816,-0.9816,-0.9816,-0.9816,-0.9816,-0.9981,-1.0147,-1.0147,-1.0508,-1.0819,-1.0936,-1.1146,-1.1342,-1.1411,-1.1419,-1.1419,-1.1419,-1.1419,-1.1419,-1.1419,-1.1419,-1.1419,0.0,0.0,0.0,-1.1232,-1.1224,-1.1224,-1.1224,-1.1224,-1.1252,-1.1317,-1.1321,-1.1354,-1.1419,-1.1419,-1.1419,-1.1423,-1.1541,-1.1663,-1.1776,-1.1651,-1.1647,-1.1587,-1.1466,-1.1466,-1.1466,-1.1466,-1.1466,-1.1466,-1.1466,-1.1281,-1.1088,-1.0596,-0.9738,-0.8991,0.0,0.0,0.0,0.0,0.0,0.0,0.0,0.0,0.0,0.0,0.0,0.0,0.0,0.0,0.0,0.0,0.0,0.0,-0.1795,-0.1795,-0.1795,-0.1795,-0.1795,-0.1795,-0.1795,-0.1795,-0.1795,-0.1795,-0.1851,-0.2465,-0.3636,-0.4916,-0.6089,-0.7152,-0.838,-0.8885,-0.8885,-0.8885,-0.8885,-0.8885,-0.8885,-0.8885,-0.8885,-0.8885,-0.8885,-0.8885,-0.8885,-0.8885,-0.8937,-0.9268,-0.9541,-0.9761,-0.9761,-0.9761,-0.9761,-0.9761,-0.9761,-0.9761,-0.9761,-0.9761,-0.9761,-0.9761,-0.9761,-0.9761,-0.9761,-0.9761,-0.9761,-0.9761,-1.0181,-1.058,0.0,0.0,-1.151,-1.1748,-1.1776,-1.1776,-1.1776,-1.1776,-1.1776,0.0,0.0,0.0,0.0,0.0,0.0,-1.1219,0.0,-1.1248,-1.1248,-1.1248,-1.133,-1.1508,-1.1516,-1.1598,-1.1776,-1.1776,-1.1776,-1.1776,-1.1776,-1.1776,-1.1716,-1.1402,-1.1273,-1.1273,-1.097,-1.0789,-1.0789,-1.0789,-1.0789,-1.0725,-1.0725,-1.0664,-1.0418,-0.9131,-0.8639,-0.8578,0.0,0.0,0.0,0.0,0.0,0.0,0.0,0.0,0.0,0.0,0.0,0.0,0.0,0.0,0.0,0.0,0.0,0.0,-0.1795,-0.1795,-0.1795,-0.1795,-0.1795,-0.1795,-0.1795,-0.1795,-0.1795,-0.1795,-0.2688,-0.3301,-0.3636,-0.5699,-0.6816,-0.7152,-0.838,-0.8885,-0.8885,-0.8885,-0.8885,-0.8885,-0.8885,-0.8885,-0.8885,-0.8885,-0.8885,-0.8885,-0.8885,-0.8885,-0.894,-0.8992,-0.9047,-0.9103,-0.9103,-0.9103,-0.9103,-0.9103,-0.9103,-0.9103,-0.9103,-0.9103,-0.9103,-0.9103,-0.9103,-0.9103,-0.9103,-0.9323,-0.9485,-0.9485,-0.9931,-1.0367,0.0,0.0,0.0,-1.1027,-1.1035,0.0,-1.1035,-1.1035,0.0,-1.1398,0.0,-1.1156,-1.1398,-1.1216,0.0,0.0,-1.1331,-1.1634,-1.1634,-1.1634,-1.1658,-1.1703,-1.1707,-1.1732,-1.1776,-1.1522,-1.1277,-1.1035,-1.1035,-1.1035,-1.1035,-1.097,-1.091,-1.091,-1.0849,-1.0789,-1.0789,-1.0789,-1.0233,-0.9313,-0.9313,-0.8578,-0.7482,-0.7113,-0.6198,-0.5159,0.0,0.0,0.0,0.0,0.0,0.0,0.0,0.0,0.0,0.0,0.0,0.0,0.0,0.0,0.0,0.0,0.0,0.0,0.0,-0.3357,-0.3357,-0.3357,-0.2856,-0.2576,-0.2576,-0.2074,-0.2074,-0.2576,-0.3246,-0.3858,-0.4416,-0.6258,-0.7096,-0.7152,-0.838,-0.8885,-0.8885,-0.8885,-0.8885,0.0,0.0,-0.8885,-0.8885,-0.8885,-0.8885,-0.8885,-0.8885,-0.8885,-0.8885,-0.8885,-0.8885,-0.8885,-0.8885,-0.8885,-0.8885,-0.8885,-0.8885,-0.8885,-0.8885,-0.8885,-0.8885,-0.8885,-0.8885,-0.8885,-0.8885,-0.9047,-0.9158,-0.9158,-0.9624,0.0,-1.0021,-1.0402,0.0,0.0,0.0,0.0,-1.0789,-1.0789,-1.0849,0.0,-1.091,0.0,-1.1031,-1.091,-1.0789,0.0,-1.116,-1.1345,-1.1345,-1.1345,-1.1345,-1.1345,-1.1345,-1.1345,-1.1345,-1.1156,-1.097,-1.0789,-1.0789,-1.0789,-1.0789,-1.0668,-1.0607,-1.0547,0.0,-1.0365,-1.0304,-0.9751,-0.9076,-0.8337,-0.7787,-0.6991,-0.6139,-0.5527,-0.4732,-0.3815,0.0,0.0,0.0,0.0,0.0,0.0,0.0,0.0,0.0,0.0,0.0,0.0,0.0,0.0,0.0,0.0,0.0,0.0,0.0,0.0,-0.5417,-0.5417,-0.4414,-0.3858,-0.3858,-0.28,-0.28,-0.3858,-0.397,-0.4583,-0.5641,-0.6816,-0.7321,-0.7376,-0.8436,-0.8885,-0.8885,-0.8885,-0.8885,-0.8885,-0.8885,-0.8885,-0.8885,0.0,-0.8885,-0.8885,-0.8885,-0.8885,-0.8885,-0.8885,-0.8885,-0.8885,-0.8885,-0.8885,-0.8885,-0.8885,-0.8885,-0.8885,-0.8885,-0.8885,-0.8885,-0.8885,-0.8885,-0.8885,-0.8885,-0.8885,-0.8885,-0.8885,0.0,-0.9543,-0.9543,-1.0022,-1.0473,-1.0436,0.0,-1.0642,-1.0664,-1.0668,-1.0668,-1.0728,-1.0668,-1.0668,-1.0728,-1.0668,-1.0668,-1.0668,-1.0668,-1.0728,-1.0789,-1.0789,-1.0789,-1.0789,-1.0789,-1.0789,-1.0728,-1.0728,-1.0728,-1.0668,-1.0668,-1.0668,-1.0668,-1.0365,-1.0243,-1.0243,0.0,0.0,-0.9697,-0.8407,-0.7795,-0.749,-0.6141,-0.5529,-0.5224,-0.406,-0.3632,-0.3509,0.0,0.0,0.0,0.0,0.0,0.0,0.0,0.0,0.0,0.0,-0.9815,-0.9283,0.0,0.0,0.0,0.0,0.0,0.0,0.0,0.0,0.0,-0.5417,-0.5194,-0.5083,-0.5083,-0.486,-0.486,-0.5083,-0.6033,-0.6594,-0.6816,-0.8045,-0.8602,-0.8602,-0.8826,-0.8885,-0.8885,-0.8885,-0.8885,-0.8885,-0.8885,-0.8885,-0.8885,-0.8885,0.0,0.0,-0.8885,-0.8885,-0.8885,-0.8885,-0.8885,-0.8885,-0.8885,-0.8885,-0.8885,-0.8885,-0.8885,-0.8885,-0.8885,-0.8885,-0.8885,-0.8885,-0.8885,-0.8885,-0.8885,-0.8885,0.0,0.0,-0.9108,-0.9264,-0.9264,-0.9472,-0.9638,-0.9766,-0.9807,-0.9866,-0.9987,-1.0004,-1.0061,0.0,0.0,0.0,0.0,0.0,0.0,0.0,0.0,-1.0243,-1.0789,-1.0789,-1.0789,-1.0789,-1.0789,-1.0668,-1.0365,-1.0365,-1.0243,-1.0004,-1.0004,-1.0004,-0.9943,-0.9943,-0.9879,-0.9879,-0.9819,0.0,-0.9697,-0.8407,-0.7245,-0.6141,-0.4794,-0.3633,-0.2653,-0.2406,-0.2346,-0.2284,0.0,0.0,0.0,0.0,0.0,0.0,0.0,-1.2582,-1.2045,-1.2045,-1.1027,-1.0187,-0.9877,-0.9197,-0.8733,0.0,0.0,0.0,0.0,0.0,0.0,0.0,-0.6974,-0.6533,-0.6533,-0.5806,-0.5695,-0.6311,0.0,-0.7432,-0.8045,-0.8605,-0.8885,-0.8885,-0.8885,-0.8885,-0.8885,-0.8885,-0.8885,-0.8885,-0.8885,-0.8885,-0.8885,0.0,0.0,0.0,-0.8885,-0.8885,-0.8885,-0.8885,-0.8885,-0.8885,-0.8885,-0.8885,-0.8885,-0.8885,-0.8885,-0.8885,-0.8885,-0.8885,-0.8885,-0.8885,-0.8885,-0.8885,-0.8885,0.0,0.0,0.0,-0.8994,-0.9042,-0.9042,-0.9164,0.0,-0.9466,-0.9557,-0.9659,-0.9802,-0.9822,0.0,-1.0004,0.0,0.0,0.0,0.0,0.0,0.0,0.0,-0.994,-1.0243,-1.0304,-1.0304,-1.0304,-1.0304,-1.0183,-1.0061,-1.0061,-0.9943,-0.9822,-0.9822,-0.9822,-0.9822,-0.9822,-0.9822,-0.9822,-0.9822,0.0,-0.8714,-0.7429,-0.608,-0.4734,-0.3448,-0.253,-0.1977,-0.1977,-0.1977,-0.1977,0.0,0.0,0.0,0.0,0.0,0.0,0.0,-1.4555,-1.372,-1.372,-1.2312,-1.1217,-1.0906,-1.0358,-0.9945,0.0,0.0,0.0,0.0,0.0,0.0,0.0,0.0,0.0,0.0,0.0,0.0,-0.7651,-0.7651,0.0,0.0,0.0,0.0,0.0,-0.9103,-0.921,-0.9427,-0.9213,-0.921,0.0,0.0,-0.894,0.0,0.0,0.0,0.0,0.0,-0.8885,-0.8885,-0.8885,-0.8885,-0.8885,-0.8885,-0.8885,-0.8885,-0.8885,-0.8885,-0.8885,-0.8885,-0.8885,-0.8885,-0.8885,-0.8885,-0.8885,-0.8885,-0.8885,0.0,-0.8885,-0.8885,-0.8885,-0.8885,-0.9032,-0.9167,0.0,-0.9483,-0.9622,-0.9795,-0.9822,-0.9822,0.0,-0.9822,0.0,0.0,0.0,0.0,0.0,0.0,0.0,-0.9822,-0.9822,-0.9822,-0.9822,-0.9822,-0.9822,-0.9822,-0.9822,-0.9822,-0.9822,-0.9822,-0.9822,-0.9822,-0.9822,-0.9822,-0.9822,-0.9822,0.0,0.0,-0.6446,-0.51,-0.3753,-0.2468,-0.1977,-0.1977,-0.1977,-0.1977,-0.1977,0.0,0.0,0.0,0.0,0.0,0.0,0.0,-1.5451,-1.5391,-1.5391,-1.4094,-1.3068,-1.2898,-1.1273,-1.0113,0.0,0.0,0.0,0.0,0.0,0.0,0.0,0.0,0.0,0.0,0.0,0.0,-0.9537,0.0,0.0,0.0,0.0,0.0,0.0,0.0,0.0,-1.1214,-1.0139,0.0,0.0,0.0,0.0,0.0,0.0,0.0,0.0,0.0,-0.8885,-0.8885,-0.8885,-0.8885,-0.8885,-0.8885,-0.8885,-0.8885,-0.8885,0.0,0.0,-0.8885,-0.8885,-0.8885,-0.8885,-0.8885,-0.8885,-0.8885,0.0,-0.8885,-0.8885,-0.8885,-0.8885,-0.8885,-0.8895,-0.9049,0.0,-0.9395,-0.95,-0.9781,-0.9822,-0.9822,-0.9822,0.0,0.0,0.0,0.0,0.0,0.0,0.0,0.0,-0.9822,-0.9822,-0.9822,-0.9822,-0.9822,-0.9822,-0.9822,-0.9822,-0.9822,-0.9822,-0.9822,-0.9822,-0.9822,-0.9822,-0.9822,-0.9822,-0.9822,0.0,0.0,-0.6446,-0.51,-0.3753,-0.2468,-0.1977,-0.1977,-0.1977,-0.1977,-0.1977,0.0,0.0,0.0,0.0,0.0,0.0,-1.7941,-1.7226,-1.6692,-1.6478,-1.5273,-1.4269,-1.3897,-1.2575,-1.1349,-1.0441,0.0,0.0,0.0,0.0,0.0,0.0,0.0,0.0,0.0,0.0,-0.9816,-0.9816,-0.9816,0.0,0.0,0.0,0.0,0.0,0.0,0.0,0.0,-1.1328,0.0,0.0,0.0,0.0,0.0,0.0,0.0,0.0,0.0,0.0,-0.8885,-0.8885,-0.8885,-0.8885,-0.8885,-0.8885,-0.8885,-0.8885,-0.8885,-0.8885,-0.8885,-0.8885,-0.8885,-0.8885,-0.8885,-0.8885,-0.8885,0.0,-0.8885,-0.8885,-0.8885,-0.8885,-0.8885,-0.8885,-0.9005,-0.9211,-0.932,-0.9456,-0.9663,-0.9768,-0.9822,-0.9822,0.0,0.0,0.0,0.0,0.0,0.0,0.0,0.0,-0.9822,-0.9822,-0.9822,-0.9822,-0.9822,-0.9822,-0.9822,-0.9822,-0.9822,-0.9822,-0.9822,-0.9822,-0.9822,-0.9822,-0.9822,-0.9822,-0.9822,0.0,0.0,-0.6141,-0.4674,-0.2714,-0.2223,-0.1977,-0.1977,-0.1977,-0.1977,-0.1977,0.0,0.0,0.0,0.0,0.0,-1.9424,-1.9424,-1.8648,-1.7946,-1.7614,-1.6418,-1.5467,-1.4983,-1.3889,-1.2748,-1.1782,-1.0907,0.0,0.0,0.0,0.0,0.0,0.0,0.0,0.0,0.0,-1.1059,-1.1059,-1.1059,-1.1492,0.0,0.0,0.0,0.0,0.0,0.0,0.0,0.0,0.0,0.0,0.0,0.0,0.0,0.0,0.0,0.0,0.0,0.0,0.0,0.0,0.0,-0.8885,-0.8885,-0.8885,-0.8885,-0.8885,-0.8885,-0.8885,-0.8885,-0.8885,-0.8885,-0.8885,-0.8885,-0.8885,0.0,0.0,-0.8885,-0.8885,-0.8885,-0.8885,-0.8885,-0.8885,-0.8984,-0.9187,-0.934,-0.9435,-0.9588,-0.973,-0.9822,0.0,0.0,0.0,0.0,0.0,0.0,0.0,0.0,0.0,0.0,-0.9822,-0.9822,-0.9822,-0.9822,-0.9822,-0.9822,-0.9822,-0.9822,-0.9822,-0.9822,-0.9822,-0.9822,-0.9822,-0.9822,-0.9822,0.0,0.0,0.0,-0.5896,-0.4369,-0.1977,-0.1977,-0.1977,-0.1977,-0.1977,-0.1977,-0.1977,0.0,0.0,0.0,0.0,0.0,0.0,-1.9424,-1.9366,-1.9259,-1.8901,-1.7641,-1.6629,-1.6338,-1.4982,-1.4083,-1.4078,-1.1987,0.0,0.0,0.0,0.0,0.0,0.0,0.0,0.0,0.0,-1.4078,-1.4078,-1.4078,-1.4078,-1.4078,-1.4078,-1.4083,0.0,0.0,0.0,0.0,0.0,0.0,0.0,0.0,0.0,0.0,0.0,0.0,0.0,0.0,0.0,0.0,0.0,0.0,0.0,0.0,-0.8885,-0.8885,-0.8885,-0.8885,-0.8885,-0.8885,-0.8885,-0.8885,-0.8885,-0.8885,-0.8885,-0.8885,-0.8885,-0.8885,-0.8885,-0.8885,-0.8885,-0.8885,-0.8885,-0.8984,-0.9187,-0.934,-0.9435,-0.9588,-0.973,0.0,0.0,0.0,0.0,0.0,0.0,0.0,0.0,0.0,0.0,0.0,-0.9822,-0.9822,-0.9822,-0.9822,-0.9822,-0.9822,-0.9822,-0.9822,-0.9822,-0.9822,-0.9822,-0.9822,-0.9822,-0.9822,0.0,0.0,0.0,0.0,-0.5896,-0.4369,-0.1977,-0.1977,-0.1977,-0.1977,-0.1977,-0.1977,-0.1977,0.0,0.0,0.0,0.0,0.0,0.0,0.0,-1.8771,-1.8657,-1.8308,-1.7908,-1.7514,-1.7209,-1.607,-1.5322,-1.5322,-1.3922,0.0,0.0,0.0,0.0,0.0,0.0,0.0,0.0,0.0,-1.4078,-1.4078,-1.4078,-1.4508,-1.5322,-1.5322,-1.5749,-1.6505,-1.6505,0.0,0.0,0.0,0.0,0.0,0.0,0.0,0.0,0.0,0.0,0.0,0.0,0.0,0.0,0.0,0.0,0.0,0.0,0.0,0.0,-0.8885,-0.8885,-0.8885,-0.8885,-0.8885,-0.8885,-0.8885,-0.8885,-0.8885,-0.8885,-0.8885,-0.8885,-0.8885,-0.8885,-0.8885,-0.8885,-0.8885,-0.8898,-0.8998,-0.9218,-0.9398,0.0,0.0,0.0,0.0,0.0,0.0,0.0,0.0,0.0,0.0,0.0,0.0,0.0,-0.9822,-0.9822,-0.9822,-0.9822,-0.9822,-0.9822,-0.9822,-0.9822,-0.9822,-0.9822,-0.9822,-0.9822,-0.9822,0.0,0.0,0.0,0.0,0.0,-0.4916,-0.351,-0.1977,-0.1977,-0.1977,-0.1977,-0.1977,-0.1977,-0.1977,0.0,0.0,0.0,0.0,0.0,0.0,0.0,-1.849,-1.8384,-1.8035,-1.7995,-1.7876,-1.7615,-1.6988,-1.6558,-1.6558,-1.5855,0.0,0.0,0.0,0.0,0.0,0.0,0.0,-1.4781,-1.5209,-1.5423,-1.5423,-1.5423,-1.5802,-1.6558,-1.6558,-1.6935,-1.7582,-1.7582,-1.7582,0.0,0.0,0.0,0.0,0.0,0.0,-1.3879,0.0,0.0,0.0,0.0,0.0,0.0,0.0,0.0,0.0,0.0,0.0,0.0,0.0,-0.9265,-0.8885,-0.8885,-0.8885,-0.8885,-0.8885,-0.8885,0.0,-0.8885,-0.8885,-0.8885,-0.8885,-0.8885,-0.8885,-0.8885,-0.8885,-0.8885,-0.8885,-0.9188,0.0,0.0,0.0,0.0,0.0,0.0,0.0,0.0,0.0,0.0,0.0,0.0,0.0,0.0,-0.9822,-0.9822,-0.9822,-0.9822,-0.9822,-0.9822,-0.9822,-0.9822,-0.9822,-0.9822,-0.9822,-0.9822,-0.9822,0.0,0.0,0.0,0.0,0.0,-0.4427,-0.3142,-0.1977,-0.1977,-0.1977,-0.1977,-0.1977,-0.1977,-0.1977,0.0,0.0,0.0,0.0,0.0,0.0,0.0,-1.8424,-1.8323,-1.7995,-1.7962,-1.7903,-1.7615,-1.7582,-1.7582,-1.7582,0.0,0.0,0.0,0.0,0.0,0.0,0.0,0.0,-1.6021,-1.7041,-1.7582,-1.7582,-1.7582,-1.7582,-1.7582,-1.7582,-1.7582,-1.7582,-1.7582,-1.7582,0.0,0.0,0.0,0.0,0.0,0.0,0.0,0.0,0.0,0.0,0.0,0.0,0.0,0.0,0.0,0.0,0.0,0.0,0.0,0.0,0.0,0.0,0.0,-0.8885,-0.8885,-0.8885,-0.8885,-0.8885,-0.8885,-0.8885,0.0,-0.8885,-0.8885,-0.8885,-0.8885,-0.8885,-0.8885,-0.8885,-0.9188,0.0,0.0,0.0,0.0,0.0,0.0,0.0,0.0,0.0,0.0,0.0,0.0,0.0,0.0,-0.9822,-0.9822,-0.9822,-0.9822,-0.9822,-0.9822,-0.9822,-0.9822,-0.9822,-0.9822,-0.9822,-0.9822,-0.9822,0.0,0.0,0.0,0.0,0.0,-0.4427,-0.3142,-0.1977,-0.1977,-0.1977,-0.1977,-0.1977,-0.1977,-0.1977,0.0,0.0,0.0,0.0,0.0,0.0,0.0,0.0,0.0,0.0,-1.7695,-1.7662,-1.7589,-1.7582,-1.7582,0.0,0.0,0.0,0.0,0.0,0.0,0.0,0.0,0.0,-1.7206,-1.7477,-1.7582,-1.7582,-1.7582,-1.7582,-1.7582,-1.7582,-1.7582,-1.7582,-1.7582,-1.7582,0.0,0.0,0.0,0.0,0.0,0.0,0.0,0.0,0.0,0.0,-1.4223,-1.3398,0.0,0.0,0.0,0.0,0.0,0.0,0.0,0.0,-0.9099,-0.8885,-0.8885,0.0,-0.8885,-0.8885,-0.8885,-0.8885,0.0,-0.8885,-0.8885,-0.8885,-0.8885,-0.8885,-0.8885,-0.8885,-0.8885,-0.8885,0.0,0.0,0.0,0.0,0.0,0.0,0.0,0.0,0.0,0.0,0.0,0.0,0.0,0.0,0.0,-0.9822,-0.9822,-0.9822,-0.9822,-0.9822,-0.9822,-0.9822,-0.9822,-0.9822,-0.9822,-0.9822,-0.9822,-0.9822,0.0,0.0,0.0,0.0,-0.5774,-0.4427,-0.3142,-0.1977,-0.1977,-0.1977,-0.1977,-0.1977,-0.1977,-0.1977,0.0,0.0,0.0,0.0,0.0,0.0,0.0,0.0,0.0,0.0,0.0,0.0,0.0,0.0,0.0,0.0,0.0,0.0,0.0,0.0,0.0,0.0,0.0,-1.7582,-1.7582,-1.7582,-1.7582,-1.7582,-1.7582,-1.7582,-1.7582,-1.7582,-1.7582,-1.7582,-1.7582,-1.7582,-1.7582,0.0,0.0,0.0,-1.6895,0.0,0.0,0.0,0.0,0.0,-1.4976,-1.4535,0.0,-1.4756,-1.4535,-1.3932,0.0,0.0,0.0,0.0,-0.9316,-0.8885,-0.8885,-0.8885,-0.8885,-0.8885,-0.8885,-0.8885,-0.8885,-0.8885,-0.8885,-0.8885,-0.8885,-0.8885,-0.8885,-0.8885,-0.8885,0.0,-0.913,0.0,0.0,0.0,0.0,0.0,0.0,0.0,0.0,0.0,0.0,0.0,0.0,0.0,0.0,-0.9822,-0.9822,-0.9822,-0.9822,-0.9822,-0.9822,-0.9822,-0.9822,-0.9822,-0.9822,-0.9822,-0.9822,-0.9822,-0.9822,0.0,0.0,0.0,-0.5774,-0.3816,-0.2652,-0.1977,-0.1977,-0.1977,-0.1977,-0.1977,-0.1915,-0.1791,0.0,0.0,0.0,0.0,0.0,0.0,0.0,0.0,0.0,0.0,0.0,0.0,0.0,0.0,0.0,0.0,0.0,0.0,0.0,0.0,0.0,0.0,-1.7582,-1.7582,-1.7582,-1.7582,-1.7582,-1.7582,-1.7582,-1.7582,-1.7582,-1.7582,-1.7582,-1.7582,-1.7582,-1.7582,-1.7582,-1.7582,-1.7582,0.0,-1.6942,0.0,0.0,0.0,0.0,0.0,0.0,0.0,0.0,-1.5891,-1.5779,-1.5458,-1.4272,0.0,0.0,0.0,0.0,0.0,-0.8885,-0.8885,-0.8885,-0.8885,-0.8885,-0.8885,-0.8885,-0.8885,-0.8885,-0.8885,-0.8885,-0.8885,-0.8885,-0.8885,0.0,0.0,0.0,0.0,0.0,0.0,0.0,0.0,0.0,0.0,0.0,0.0,0.0,0.0,0.0,0.0,0.0,-0.9822,-0.9822,-0.9822,-0.9822,-0.9822,-0.9822,-0.9822,-0.9822,-0.9822,-0.9822,-0.9822,-0.9822,-0.9822,-0.9822,0.0,0.0,0.0,-0.5712,-0.3266,-0.2161,-0.1977,-0.1977,-0.1977,-0.1915,-0.1915,-0.1729,-0.142,0.0,0.0,0.0,0.0,0.0,0.0,0.0,0.0,0.0,0.0,0.0,0.0,0.0,0.0,0.0,0.0,0.0,0.0,0.0,0.0,0.0,-1.7582,-1.7582,-1.7582,-1.7582,-1.7582,-1.7582,-1.7582,-1.7582,-1.7582,-1.7582,-1.7582,-1.7582,-1.7582,-1.7582,-1.7582,-1.7582,-1.7582,-1.7582,-1.7529,-1.6942,0.0,0.0,0.0,0.0,0.0,0.0,0.0,0.0,-1.5891,-1.5244,-1.4272,-1.3068,0.0,0.0,0.0,0.0,0.0,-0.8885,-0.8885,-0.8885,-0.8885,-0.8885,-0.8885,-0.8885,-0.8885,-0.8885,-0.8885,-0.8885,-0.8885,-0.8885,-0.8885,-0.8885,0.0,0.0,0.0,0.0,0.0,0.0,0.0,0.0,0.0,0.0,0.0,0.0,0.0,0.0,0.0,0.0,-0.9822,-0.9822,-0.9822,-0.9822,-0.9822,-0.9822,-0.9822,-0.9822,-0.9822,-0.9822,-0.9822,-0.9822,-0.9822,-0.9822,0.0,0.0,-0.6938,-0.5774,-0.4244,-0.2958,-0.1977,-0.1977,-0.1853,-0.1606,-0.1606,-0.1359,-0.105,0.0,0.0,0.0,0.0,0.0,0.0,0.0,0.0,0.0,0.0,0.0,0.0,0.0,0.0,0.0,0.0,0.0,0.0,0.0,0.0,-1.7635,-1.7799,-1.7799,-1.7747,-1.7582,-1.7582,-1.7582,-1.7582,-1.7582,-1.7582,-1.7582,-1.7582,-1.7582,-1.7582,-1.7582,-1.7582,-1.7582,-1.7582,-1.7582,-1.7529,0.0,0.0,0.0,0.0,0.0,0.0,0.0,0.0,0.0,0.0,-1.4213,-1.3127,-1.258,0.0,0.0,0.0,0.0,0.0,-0.8885,-0.8885,-0.8885,-0.8885,-0.8885,-0.8885,-0.8885,-0.8885,-0.8885,-0.8885,-0.8885,-0.8885,-0.8885,0.0,-0.8885,-0.8885,0.0,0.0,0.0,0.0,0.0,0.0,0.0,0.0,0.0,0.0,0.0,0.0,0.0,0.0,0.0,0.0,-0.9822,-0.9822,-0.9822,-0.9822,-0.9822,-0.9822,-0.9822,-0.9822,-0.9822,-0.9822,-0.9822,-0.9822,-0.9822,-0.97,0.0,-0.7121,-0.5774,-0.4427,-0.3019,-0.1729,-0.1729,-0.1544,-0.1235,-0.105,-0.0864,-0.0679,0.0,0.0,0.0,0.0,0.0,0.0,0.0,0.0,0.0,0.0,0.0,0.0,0.0,0.0,0.0,0.0,0.0,0.0,0.0,0.0,-1.7905,-1.8069,-1.8016,-1.7905,-1.7694,-1.7694,-1.7635,-1.7582,-1.7582,-1.7582,-1.7582,-1.7582,-1.7582,-1.7582,-1.7582,-1.7582,-1.7582,-1.7582,-1.7582,-1.7529,0.0,0.0,0.0,0.0,0.0,0.0,0.0,0.0,0.0,0.0,0.0,0.0,0.0,0.0,0.0,-0.9154,-0.8885,-0.8885,-0.8885,-0.8885,-0.8885,-0.8885,-0.8885,-0.8885,-0.8885,-0.8885,-0.8885,-0.8885,-0.8885,-0.8885,0.0,-0.8885,0.0,-0.8885,0.0,0.0,0.0,0.0,0.0,0.0,0.0,0.0,0.0,0.0,0.0,0.0,0.0,0.0,0.0,0.0,-0.9734,-0.9771,-0.9771,-0.9788,-0.9822,-0.9822,-0.9822,-0.9822,-0.9822,-0.9822,-0.9822,-0.9822,-0.9822,-0.9697,-0.8102,-0.6815,-0.5653,-0.3999,-0.2589,-0.1359,-0.1359,-0.1173,-0.0864,-0.0494,-0.037,-0.037,0.0,0.0,0.0,0.0,0.0,0.0,0.0,0.0,0.0,0.0,0.0,0.0,0.0,0.0,0.0,0.0,0.0,0.0,0.0,0.0,-1.837,-1.837,-1.8115,-1.7964,-1.7964,-1.7964,-1.7859,-1.7582,-1.7582,-1.7582,-1.7582,-1.7582,-1.7582,-1.7582,-1.7582,-1.7582,-1.7582,-1.7582,-1.7582,-1.747,-1.5814,0.0,0.0,0.0,0.0,0.0,0.0,0.0,0.0,0.0,0.0,0.0,0.0,0.0,-0.8992,-0.8937,-0.8885,-0.8885,-0.8885,-0.8885,-0.8885,-0.8885,-0.8885,-0.8885,-0.8885,-0.8885,-0.8885,-0.8885,-0.8885,-0.8885,0.0,-0.8885,-0.8885,0.0,0.0,0.0,0.0,0.0,0.0,0.0,0.0,0.0,0.0,0.0,0.0,0.0,0.0,0.0,0.0,0.0,0.0,-0.9618,-0.9625,-0.9686,-0.9819,-0.9822,-0.9822,-0.9822,-0.9822,-0.9822,-0.9822,-0.9822,-0.9822,-0.9636,-0.7121,-0.5837,-0.5226,-0.2713,-0.142,-0.105,-0.105,-0.0803,-0.0494,-0.0185,-0.0062,-0.0062,0.0,0.0,0.0,0.0,0.0,0.0,0.0,0.0,0.0,0.0,0.0,0.0,0.0,0.0,0.0,0.0,0.0,0.0,0.0,-1.822,-1.822,-1.837,-1.8325,-1.8167,-1.8016,-1.7852,-1.7687,-1.7582,-1.7582,-1.7582,-1.7582,-1.7582,-1.7582,-1.7582,-1.7582,-1.7582,-1.7582,-1.7582,-1.7582,-1.7529,-1.6458,-1.5654,0.0,0.0,0.0,0.0,0.0,0.0,0.0,0.0,-1.0566,-0.9695,-1.0457,-0.986,-0.8885,-0.8885,-0.8885,-0.8885,-0.8885,-0.8885,-0.8885,-0.8885,-0.8885,-0.8885,-0.8885,-0.8885,-0.8885,-0.8885,-0.8885,-0.8885,0.0,0.0,-0.8885,0.0,0.0,0.0,0.0,0.0,0.0,0.0,0.0,0.0,0.0,0.0,0.0,0.0,0.0,0.0,0.0,0.0,0.0,-0.9466,-0.9561,-0.9635,-0.969,-0.9778,-0.9822,-0.9822,-0.9822,-0.9822,-0.9822,-0.9822,-0.9822,-0.9697,-0.767,-0.6263,-0.5226,-0.3264,-0.1727,-0.0679,-0.0432,-0.0309,-0.0185,-0.0062,0.0,0.0,0.0,0.0,0.0,0.0,0.0,0.0,0.0,0.0,0.0,0.0,0.0,0.0,0.0,0.0,0.0,0.0,0.0,0.0,-1.8691,-1.8489,-1.8489,-1.8691,-1.8586,-1.8489,-1.8286,-1.801,-1.7793,-1.7747,-1.7747,-1.7747,-1.7747,-1.7635,-1.7582,-1.7582,-1.7582,-1.7582,-1.7582,-1.7582,-1.7582,-1.7529,-1.6617,-1.5761,0.0,0.0,0.0,0.0,0.0,0.0,0.0,0.0,-0.9588,-0.9047,-0.986,-0.9592,-0.8885,-0.8885,-0.8885,-0.8885,-0.8885,-0.8885,-0.8885,-0.8885,-0.8885,-0.8885,-0.8885,-0.8885,-0.8885,-0.8885,-0.8885,-0.8885,-0.8885,0.0,0.0,0.0,0.0,0.0,0.0,0.0,0.0,0.0,0.0,0.0,0.0,0.0,0.0,0.0,0.0,0.0,0.0,0.0,0.0,0.0,-0.9412,-0.951,-0.9608,-0.9707,-0.9778,-0.9822,-0.97,-0.97,-0.9822,-0.97,-0.964,-0.9576,-0.7919,-0.6449,-0.4979,-0.3446,-0.1849,-0.0309,-0.0062,0.0,0.0,0.0,0.0,0.0,0.0,0.0,0.0,0.0,0.0,0.0,0.0,0.0,0.0,0.0,0.0,0.0,0.0,0.0,0.0,0.0,0.0,0.0,-1.9279,-1.9279,-1.9279,-1.9279,-1.9026,-1.8921,-1.8921,-1.8593,-1.8265,-1.8016,-1.8016,-1.8016,-1.8016,-1.7747,-1.7582,-1.7582,-1.7582,-1.7582,-1.7582,-1.7582,-1.7582,-1.747,-1.6015,-1.5269,-1.4846,0.0,0.0,0.0,0.0,0.0,0.0,0.0,-0.8885,-0.8885,-0.8885,-0.8885,-0.8885,-0.8885,-0.8885,-0.8885,-0.8885,-0.8885,-0.8885,-0.8885,-0.8885,-0.8885,-0.8885,-0.8885,-0.8885,-0.8885,-0.8885,-0.8885,-0.8885,-0.8885,0.0,0.0,0.0,0.0,0.0,0.0,0.0,0.0,0.0,0.0,0.0,0.0,0.0,0.0,0.0,0.0,0.0,0.0,0.0,0.0,-0.921,-0.9357,-0.9602,-0.9608,-0.968,-0.9819,-0.9457,-0.9457,-0.9761,-0.9457,-0.9275,-0.9214,-0.7622,-0.5961,-0.43,-0.3015,-0.1479,0.0,0.0,0.0,0.0,0.0,0.0,0.0,0.0,0.0,0.0,0.0,0.0,0.0,0.0,0.0,0.0,0.0,0.0,0.0,0.0,0.0,0.0,0.0,0.0,0.0,-1.9272,-1.9123,-1.9026,-1.9026,-1.8921,-1.881,-1.8534,-1.8698,-1.8593,-1.8272,-1.8272,-1.8272,-1.8272,-1.8016,-1.7859,-1.7852,-1.7687,-1.7582,-1.7582,-1.7582,-1.7582,-1.7529,-1.6942,-1.663,-1.6365,0.0,0.0,0.0,0.0,0.0,0.0,0.0,0.0,0.0,-0.8885,-0.8885,-0.8885,-0.8885,-0.8885,-0.8885,-0.8885,-0.8885,-0.8885,-0.8885,-0.8885,-0.8885,-0.8885,-0.8885,-0.8885,-0.8885,-0.8885,-0.8885,-0.8885,0.0,0.0,0.0,0.0,0.0,0.0,0.0,0.0,0.0,0.0,0.0,0.0,0.0,0.0,0.0,0.0,0.0,0.0,0.0,0.0,0.0,-0.91,-0.9255,-0.9347,-0.9261,-0.9264,-0.9304,-0.9109,-0.9156,-0.9457,-0.9156,-0.9037,-0.8912,-0.7253,-0.5714,-0.424,-0.1725,-0.0432,0.0,0.0,0.0,0.0,0.0,0.0,0.0,0.0,0.0,0.0,0.0,0.0,0.0,0.0,0.0,0.0,0.0,-1.9279,-1.9279,0.0,0.0,0.0,0.0,0.0,0.0,0.0,-1.913,-1.9078,-1.9078,-1.9078,-1.8966,-1.8743,-1.8966,-1.8966,-1.8743,-1.8639,-1.8593,-1.8593,-1.8174,-1.8016,-1.7964,-1.7747,-1.7582,-1.7582,-1.7582,-1.7582,-1.7582,-1.743,-1.7279,-1.7067,0.0,0.0,0.0,0.0,0.0,0.0,0.0,0.0,0.0,-0.8885,-0.8885,-0.8885,-0.8885,-0.8885,-0.8885,-0.8885,-0.8885,-0.8885,-0.8885,-0.8885,-0.8881,-0.8768,-0.8826,-0.8885,0.0,-0.8826,-0.8768,-0.8881,-0.8826,0.0,0.0,0.0,0.0,0.0,0.0,0.0,0.0,0.0,0.0,0.0,0.0,0.0,0.0,0.0,0.0,0.0,0.0,0.0,0.0,-0.8851,-0.8924,-0.8817,-0.8807,-0.8887,-0.8944,-0.8787,-0.8793,-0.8912,-0.8793,-0.8674,-0.8549,-0.6392,-0.4979,-0.3996,-0.1171,0.0,0.0,0.0,0.0,0.0,0.0,0.0,0.0,0.0,0.0,0.0,0.0,0.0,0.0,0.0,0.0,0.0,0.0,-1.9279,-1.9279,0.0,0.0,0.0,0.0,0.0,0.0,0.0,0.0,-1.9279,-1.9279,-1.9279,-1.9279,-1.9279,-1.9279,-1.9279,-1.9279,-1.9078,-1.8921,-1.8921,-1.8338,-1.8016,-1.8016,-1.774,-1.7582,-1.7582,-1.7582,-1.7582,-1.7582,-1.7582,-1.743,-1.7226,-1.7232,0.0,0.0,0.0,0.0,0.0,0.0,0.0,0.0,-0.8885,-0.8885,-0.8885,-0.8885,-0.8885,-0.8885,-0.8885,-0.8881,-0.8881,-0.8881,-0.8826,-0.8771,-0.8488,-0.8657,-0.8826,-0.8826,0.0,-0.8543,-0.8771,0.0,0.0,0.0,0.0,0.0,0.0,0.0,0.0,0.0,0.0,0.0,0.0,0.0,0.0,0.0,0.0,0.0,0.0,0.0,0.0,-0.8484,-0.8484,-0.8382,-0.8288,-0.8302,-0.8435,0.0,-0.8409,-0.8358,-0.8369,-0.8369,-0.8369,-0.8183,-0.5226,-0.3875,-0.3692,-0.1048,0.0,0.0,0.0,0.0,0.0,0.0,0.0,0.0,0.0,0.0,0.0,0.0,0.0,0.0,0.0,0.0,0.0,0.0,0.0,0.0,0.0,0.0,0.0,0.0,0.0,0.0,0.0,0.0,-1.9279,-1.9279,-1.9279,-1.9279,-1.9279,-1.9279,-1.9279,-1.9279,-1.9227,-1.9227,-1.9175,-1.8586,-1.8318,-1.8265,-1.7793,-1.7582,-1.7582,-1.7582,-1.7582,-1.7582,-1.7582,-1.7582,-1.7483,-1.7279,-1.6796,0.0,0.0,0.0,0.0,0.0,0.0,0.0,-0.8885,-0.8885,-0.8885,-0.8885,-0.8885,-0.8885,-0.8885,-0.8768,-0.8598,-0.8598,-0.8377,-0.8156,-0.81,-0.8156,-0.8214,-0.8214,-0.8156,-0.81,0.0,0.0,0.0,0.0,0.0,0.0,0.0,0.0,0.0,0.0,0.0,0.0,0.0,0.0,0.0,0.0,0.0,0.0,0.0,0.0,0.0,-0.8484,-0.8263,-0.8116,-0.8091,-0.7992,-0.8008,0.0,-0.7917,-0.7909,-0.7994,-0.7994,-0.7994,-0.7872,-0.5104,-0.3875,-0.3692,-0.1048,0.0,0.0,0.0,0.0,0.0,0.0,0.0,0.0,0.0,0.0,0.0,0.0,0.0,0.0,0.0,0.0,0.0,0.0,0.0,0.0,0.0,0.0,0.0,0.0,0.0,0.0,0.0,0.0,-1.9279,-1.9279,-1.9279,-1.9279,-1.9279,-1.9279,-1.9279,-1.9279,-1.9279,-1.9279,-1.9272,-1.8855,-1.8534,-1.837,-1.7957,-1.7747,-1.7582,-1.7582,-1.7582,-1.7582,-1.7582,-1.7582,-1.7582,-1.743,-1.7219,-1.6842,-1.5927,0.0,0.0,0.0,0.0,0.0,0.0,0.0,-0.8885,-0.8885,-0.8885,-0.8885,-0.8885,-0.8712,-0.8484,-0.8318,-0.8045,-0.7826,-0.7826,-0.7712,-0.7601,-0.7601,-0.7712,0.0,0.0,0.0,0.0,0.0,0.0,0.0,0.0,0.0,0.0,0.0,0.0,0.0,0.0,0.0,0.0,0.0,0.0,0.0,0.0,-0.8598,-0.8374,-0.81,-0.7881,-0.7771,-0.7601,-0.7556,-0.7626,-0.7752,-0.7703,-0.7761,-0.7872,-0.7872,-0.7872,-0.7747,-0.5042,-0.3875,-0.3692,-0.1048,0.0,0.0,0.0,0.0,0.0,0.0,0.0,0.0,0.0,0.0,0.0,0.0,0.0,0.0,0.0,0.0,0.0,0.0,0.0,0.0,0.0,0.0,0.0,0.0,0.0,0.0,0.0,0.0,0.0,-1.9279,-1.9279,-1.9227,-1.9227,-1.9168,-1.9116,-1.9116,-1.9324,-1.948,-1.948,-1.9227,-1.8855,-1.837,-1.8272,-1.7957,-1.7582,-1.7582,-1.7582,-1.7582,-1.7582,-1.7582,-1.7582,-1.7582,-1.743,-1.7179,-1.6842,-1.5156,-1.3048,-1.2792,0.0,0.0,0.0,0.0,-0.8885,-0.8885,-0.8885,-0.8885,-0.8885,-0.8657,-0.8318,-0.7934,-0.7715,-0.7549,-0.7549,-0.7379,-0.721,-0.721,0.0,0.0,0.0,0.0,0.0,0.0,0.0,0.0,0.0,0.0,0.0,0.0,0.0,0.0,0.0,0.0,0.0,0.0,0.0,0.0,-0.8429,-0.8374,-0.81,-0.7607,-0.7551,-0.7438,-0.721,-0.7255,-0.7366,-0.7489,-0.7633,-0.7761,-0.7872,-0.7872,-0.7747,-0.7439,-0.4981,-0.3753,-0.3384,-0.0987,0.0,0.0,0.0,0.0,0.0,0.0,0.0,0.0,0.0,0.0,0.0,0.0,0.0,0.0,0.0,0.0,0.0,0.0,-1.9279,-1.9279,0.0,0.0,0.0,0.0,0.0,0.0,-1.9279,0.0,0.0,-1.9279,-1.9078,-1.8974,-1.8974,-1.8698,-1.8527,-1.8527,-1.9517,-2.013,-2.0328,-2.0086,-1.9413,-1.8422,-1.8826,-1.8513,-1.7582,-1.7582,-1.7582,-1.7582,-1.7582,-1.7582,-1.7582,-1.7582,-1.743,-1.7179,-1.6842,-1.5701,-1.4304,-1.4051,-1.2422,0.0,0.0,0.0,-0.8885,-0.8885,-0.8885,-0.8885,-0.8885,-0.8491,-0.7934,-0.7432,-0.7265,-0.7265,0.0,0.0,-0.721,0.0,0.0,0.0,0.0,0.0,0.0,0.0,0.0,0.0,0.0,0.0,0.0,0.0,0.0,0.0,0.0,0.0,0.0,0.0,0.0,0.0,-0.8045,-0.7826,-0.7662,-0.7607,-0.7379,-0.721,-0.721,-0.7226,-0.7239,-0.7304,-0.7592,-0.7761,-0.7872,-0.7872,-0.7255,-0.609,-0.4551,-0.3263,-0.2157,-0.0617,0.0,0.0,0.0,0.0,0.0,0.0,0.0,0.0,0.0,0.0,0.0,0.0,0.0,0.0,0.0,0.0,0.0,0.0,0.0,-1.9279,0.0,0.0,0.0,-1.9279,-1.9279,-1.9279,-1.9279,-1.9279,-1.9279,-1.9279,-1.9026,-1.8921,-1.8921,-1.8593,-1.8736,-1.9354,-1.9872,-2.049,-2.1157,-2.1505,-2.0826,-1.9272,-1.945,-1.9086,-1.8513,-1.8513,-1.8513,-1.8513,-1.8513,-1.8153,-1.7582,-1.7582,-1.7536,-1.7378,-1.7113,-1.6033,-1.4793,-1.453,-1.2738,-1.0726,-1.0726,0.0,0.0,0.0,-0.8885,-0.8826,-0.8491,-0.8214,-0.7878,-0.7321,-0.721,-0.721,-0.721,-0.721,-0.721,0.0,0.0,0.0,0.0,0.0,0.0,0.0,0.0,0.0,0.0,0.0,0.0,0.0,0.0,0.0,0.0,0.0,0.0,0.0,0.0,-0.7937,-0.7771,-0.766,-0.7549,-0.7379,-0.7265,-0.721,-0.721,-0.721,-0.7217,-0.7282,-0.7584,-0.7728,-0.7777,-0.7842,-0.7194,-0.5845,-0.449,-0.3201,-0.1912,-0.0555,0.0,0.0,0.0,0.0,0.0,0.0,0.0,0.0,0.0,0.0,0.0,0.0,0.0,0.0,0.0,0.0,0.0,0.0,0.0,0.0,0.0,0.0,0.0,0.0,-1.9279,-1.9279,-1.9279,-1.9279,-1.9279,-1.9175,-1.8914,-1.8757,-1.866,-1.8639,-1.9042,-1.9872,-2.0431,-2.1148,-2.2013,-2.2828,-2.235,-2.0845,-2.0526,-2.0174,-1.9738,-1.9642,-1.9694,-1.9687,-1.9332,-1.8715,-1.7996,-1.7681,-1.7582,-1.7582,-1.7279,-1.6418,-1.5387,-1.512,-1.3496,-1.1546,-1.1219,-1.0296,0.0,0.0,0.0,-0.8771,-0.8156,-0.7989,-0.7878,-0.7321,-0.721,-0.721,0.0,0.0,-0.721,0.0,0.0,0.0,0.0,0.0,0.0,0.0,0.0,0.0,0.0,0.0,0.0,0.0,0.0,0.0,0.0,0.0,0.0,0.0,0.0,-0.7712,-0.7493,-0.7493,-0.7382,-0.721,-0.721,-0.721,-0.721,-0.721,-0.7217,-0.7282,-0.7551,-0.7671,-0.7706,-0.7818,-0.7008,-0.5352,-0.4306,-0.2955,-0.1418,-0.0432,0.0,0.0,0.0,0.0,0.0,0.0,0.0,0.0,0.0,0.0,0.0,0.0,0.0,0.0,0.0,0.0,0.0,0.0,0.0,0.0,-1.9279,-1.9279,-1.9279,-1.9279,-1.9279,-1.9279,-1.9279,-1.9279,-1.9175,-1.8921,-1.8593,0.0,-1.8069,-1.8774,-1.9176,-1.9228,-2.1344,-2.2509,-2.2844,-2.3728,-2.3777,-2.3085,-2.261,-2.1912,-2.1183,-2.0928,-2.0979,-2.1081,-1.9746,-1.9176,-1.902,-1.7996,-1.7582,-1.7582,-1.7279,-1.6955,-1.6571,-1.6318,-1.5244,-1.384,-1.2689,-1.1546,-1.0402,0.0,0.0,0.0,-0.8156,-0.7989,-0.7878,-0.7321,-0.721,-0.721,0.0,0.0,0.0,0.0,0.0,0.0,0.0,0.0,0.0,0.0,0.0,0.0,0.0,0.0,0.0,0.0,0.0,0.0,0.0,0.0,0.0,0.0,0.0,-0.721,-0.721,-0.721,-0.721,-0.721,-0.721,-0.721,-0.721,-0.721,-0.7217,-0.728,-0.7467,-0.7589,-0.7706,-0.7818,-0.6455,-0.3997,-0.3937,-0.2463,-0.0123,0.0,0.0,0.0,0.0,0.0,0.0,0.0,0.0,0.0,0.0,0.0,0.0,0.0,0.0,0.0,0.0,0.0,0.0,0.0,0.0,0.0,0.0,-1.9279,-1.9279,-1.9279,-1.9279,-1.9279,-1.9279,-1.9279,-1.9175,-1.8921,-1.8586,-1.8265,-1.8016,-1.8101,-1.8871,-2.0313,-2.1081,-2.2257,-2.3728,-2.4044,-2.4093,-2.3827,-2.3111,-2.2702,-2.2593,-2.2291,-2.224,-2.2181,-2.0818,-1.9849,-1.9072,-1.7996,-1.7582,0.0,0.0,0.0,0.0,0.0,0.0,0.0,0.0,0.0,0.0,-0.9265,-0.8885,-0.8771,-0.8156,-0.7989,-0.7878,-0.7321,-0.721,-0.721,-0.721,-0.721,0.0,0.0,0.0,0.0,0.0,0.0,0.0,0.0,0.0,0.0,0.0,0.0,0.0,0.0,0.0,0.0,0.0,0.0,0.0,0.0,0.0,0.0,-0.721,-0.721,-0.721,-0.721,-0.721,-0.721,-0.721,-0.721,-0.7232,-0.7222,-0.7342,-0.7464,-0.7587,-0.7706,-0.6337,-0.3875,-0.3875,-0.2401,0.0,0.0,0.0,0.0,0.0,0.0,0.0,0.0,0.0,0.0,0.0,0.0,0.0,0.0,0.0,0.0,0.0,0.0,0.0,-1.9279,0.0,0.0,0.0,0.0,-1.9279,-1.9279,-1.9279,-1.9279,-1.9279,-1.9279,-1.9175,-1.8921,-1.8586,-1.8265,-1.8016,-1.8108,-1.8871,-2.0313,-2.0731,-2.1853,-2.3646,-2.3646,-2.3895,-2.4291,-2.3719,-2.3552,-2.3701,-2.3461,-2.3361,-2.3302,-2.2005,-2.0979,-2.0158,-1.8662,0.0,0.0,0.0,0.0,0.0,0.0,0.0,0.0,0.0,0.0,0.0,0.0,0.0,-0.8771,-0.8322,-0.81,-0.7878,-0.7435,-0.7268,-0.721,-0.721,0.0,0.0,0.0,0.0,0.0,0.0,0.0,0.0,0.0,0.0,0.0,0.0,0.0,0.0,0.0,0.0,0.0,0.0,0.0,0.0,0.0,0.0,0.0,-0.721,-0.721,-0.721,-0.721,-0.721,-0.721,-0.721,-0.721,-0.721,-0.7213,-0.7277,-0.7342,-0.7524,-0.7646,-0.6549,-0.4551,-0.4122,-0.2401,0.0,0.0,0.0,0.0,0.0,0.0,0.0,0.0,0.0,0.0,0.0,0.0,0.0,0.0,0.0,0.0,0.0,0.0,-1.9279,-1.9279,0.0,0.0,0.0,0.0,0.0,-1.9279,-1.9279,-1.9279,-1.9279,-1.9279,-1.9175,-1.8921,-1.8586,-1.8265,-1.8016,-1.8774,-1.9176,-1.9176,-2.0313,-2.1395,-2.2476,-2.2476,-2.3179,-2.443,-2.448,-2.4489,-2.448,-2.4301,-2.435,-2.4381,-2.3029,-2.2526,-2.2266,0.0,0.0,0.0,-1.7996,-1.7483,0.0,-1.7179,0.0,0.0,0.0,0.0,0.0,0.0,0.0,0.0,0.0,0.0,0.0,0.0,0.0,0.0,-0.721,0.0,0.0,0.0,0.0,0.0,0.0,0.0,0.0,0.0,0.0,0.0,0.0,0.0,0.0,0.0,0.0,0.0,0.0,0.0,0.0,0.0,0.0,-0.721,-0.721,-0.721,-0.721,-0.721,-0.721,-0.721,-0.721,-0.721,-0.721,-0.7213,-0.7274,-0.7394,-0.7516,-0.7641,-0.7032,-0.578,-0.449,-0.2401,0.0,0.0,0.0,0.0,0.0,0.0,0.0,0.0,0.0,0.0,0.0,0.0,0.0,0.0,0.0,-1.9279,-1.9279,-1.9279,-1.9279,0.0,0.0,0.0,-1.9279,-1.9279,-1.9279,-1.9279,-1.9279,-1.9279,-1.9279,-1.9279,-1.9175,-1.8921,-1.8586,-1.8265,-1.8016,-1.8055,-1.8401,-1.9176,-1.9539,-2.0261,-2.1344,-2.2114,-2.2677,-2.3079,-2.3945,-2.4291,-2.4291,-2.4597,-2.4637,-2.4381,-2.3253,-2.266,0.0,0.0,0.0,0.0,0.0,-1.8199,-1.7483,0.0,-1.7073,-1.6696,0.0,0.0,0.0,0.0,0.0,0.0,-0.9798,0.0,0.0,0.0,0.0,0.0,0.0,0.0,0.0,0.0,0.0,0.0,0.0,0.0,0.0,0.0,0.0,0.0,0.0,0.0,0.0,0.0,0.0,0.0,0.0,0.0,0.0,0.0,-0.721,-0.721,-0.721,-0.721,-0.721,-0.721,-0.721,-0.721,-0.721,-0.721,-0.721,-0.721,-0.7243,-0.7269,-0.7333,-0.7513,-0.6378,-0.4358,-0.4041,-0.2401,0.0,0.0,0.0,0.0,0.0,0.0,0.0,0.0,0.0,0.0,0.0,0.0,0.0,0.0,0.0,-1.9279,-1.9279,-1.9279,-1.9279,0.0,0.0,0.0,-1.9279,-1.9279,-1.9279,-1.9279,-1.9279,-1.9279,-1.9279,-1.9279,-1.9175,-1.8921,-1.8586,-1.8265,-1.8016,-1.7747,-1.7891,-1.8506,-1.8506,-1.9072,-2.021,-2.0826,-2.1395,-2.1861,-2.2979,-2.3488,-2.3546,-2.439,0.0,0.0,-2.3768,0.0,0.0,-2.2013,-2.114,0.0,0.0,0.0,-1.8199,-1.7582,-1.7219,0.0,0.0,0.0,0.0,0.0,0.0,0.0,0.0,0.0,0.0,0.0,0.0,0.0,-0.7379,-0.7268,0.0,0.0,0.0,0.0,0.0,0.0,0.0,0.0,0.0,0.0,0.0,0.0,0.0,0.0,0.0,0.0,0.0,0.0,0.0,-0.721,-0.721,-0.721,-0.721,-0.721,-0.721,-0.721,-0.721,-0.721,-0.721,-0.721,-0.721,-0.721,-0.721,-0.722,-0.7282,-0.7352,-0.6354,-0.4569,-0.4065,-0.2693,-0.0802,-0.0247,0.0,0.0,0.0,0.0,0.0,0.0,0.0,0.0,0.0,0.0,-1.9279,-1.9279,-1.9279,-1.9279,-1.9279,-1.9279,-1.9279,0.0,-1.9279,-1.9279,-1.9279,-1.9279,-1.9279,-1.9279,-1.9279,-1.9279,-1.9279,-1.9279,-1.9175,-1.8921,-1.8586,-1.8265,-1.8016,-1.7747,-1.7582,-1.7582,-1.7582,-1.8101,-1.902,-1.9124,-1.9746,-2.0775,-2.1962,-2.2476,-2.2577,-2.3926,0.0,-2.4202,-2.444,-2.439,0.0,0.0,-2.2627,-2.2215,-2.0261,-1.9487,-1.9228,-1.8146,-1.7312,0.0,0.0,0.0,0.0,0.0,-1.356,0.0,0.0,0.0,0.0,0.0,0.0,0.0,-0.7823,-0.749,-0.721,0.0,0.0,0.0,0.0,0.0,0.0,0.0,0.0,0.0,0.0,0.0,0.0,0.0,0.0,0.0,0.0,-0.721,-0.721,-0.721,-0.721,-0.721,-0.721,-0.721,-0.721,-0.721,-0.721,-0.721,-0.721,-0.721,-0.721,-0.721,-0.721,-0.7211,-0.7315,-0.7274,-0.6701,-0.5634,-0.4323,-0.3095,-0.1912,-0.0555,0.0,0.0,0.0,0.0,0.0,0.0,0.0,0.0,0.0,-1.9279,-1.9279,-1.9279,-1.9279,-1.9279,-1.9279,-1.9279,-1.9279,-1.9279,-1.9279,-1.9279,-1.9279,-1.9279,-1.9279,-1.9279,-1.9279,-1.9279,-1.9279,-1.9279,-1.9175,-1.8921,-1.8586,-1.8265,-1.8016,-1.7747,-1.7582,-1.7582,-1.7582,-1.7687,-1.7943,-1.8819,-1.9332,-1.9642,-2.1599,-2.2476,-2.2577,0.0,0.0,-2.4202,-2.444,0.0,-2.4202,-2.3954,-2.3288,-2.2426,-2.2013,-2.1293,-2.0416,-1.928,-1.8101,-1.7067,0.0,0.0,0.0,0.0,0.0,0.0,0.0,0.0,0.0,0.0,0.0,0.0,-0.9075,-0.8202,-0.7438,0.0,0.0,0.0,0.0,0.0,0.0,0.0,0.0,0.0,0.0,0.0,0.0,0.0,0.0,0.0,0.0,-0.721,-0.721,-0.721,-0.721,-0.721,-0.721,-0.721,-0.721,-0.721,-0.721,-0.721,-0.721,-0.721,-0.721,-0.721,-0.721,-0.7224,-0.7192,-0.729,-0.6659,-0.5487,-0.4303,-0.3095,-0.1912,-0.0555,0.0,0.0,0.0,0.0,0.0,0.0,0.0,0.0,-1.9279,-1.9279,-1.9279,-1.9279,-1.9279,-1.9279,-1.9279,-1.9279,-1.9279,-1.9279,-1.9279,-1.9279,-1.9279,-1.9279,-1.9279,-1.9279,-1.9279,-1.9279,-1.9279,-1.9279,-1.9175,-1.8921,-1.8586,-1.8265,-1.8016,-1.7747,-1.7582,-1.7582,-1.7582,-1.7582,-1.7635,-1.8146,-1.8408,-1.8454,-2.0107,-2.1191,-2.1751,0.0,-2.3786,-2.4202,-2.444,0.0,-2.4202,-2.4202,-2.3845,-2.3288,-2.2677,-2.181,-2.0834,-2.0261,-1.948,0.0,0.0,-1.747,-1.6995,0.0,-1.5618,-1.503,0.0,0.0,0.0,-1.3127,0.0,0.0,0.0,-0.9629,-0.8589,-0.8306,0.0,0.0,0.0,0.0,0.0,0.0,0.0,0.0,0.0,0.0,0.0,0.0,0.0,0.0,0.0,-0.721,-0.721,-0.721,-0.721,-0.721,-0.721,-0.721,-0.721,-0.721,-0.721,-0.721,-0.721,-0.721,-0.721,-0.721,-0.721,-0.721,-0.7213,-0.7217,-0.6282,-0.453,-0.3955,-0.2701,-0.0977,-0.0308,0.0,0.0,0.0,0.0,0.0,0.0,0.0,0.0,-1.9279,-1.9279,-1.9279,-1.9279,-1.9279,-1.9279,-1.9279,-1.9279,-1.9279,-1.9279,-1.9279,-1.9279,-1.9279,-1.9279,-1.9279,-1.9279,-1.9279,-1.9279,-1.9279,-1.9279,-1.9175,-1.8921,-1.8586,-1.8265,-1.8016,-1.7747,-1.7582,-1.7582,-1.7582,-1.7582,-1.7582,-1.7582,-1.7582,-1.7635,-1.8715,-1.9694,-2.0621,0.0,0.0,-2.3587,0.0,-2.3985,-2.4202,-2.4202,-2.4202,-2.4053,-2.2937,-2.1962,-2.1191,-2.0987,0.0,-2.0341,-1.9376,-1.8662,0.0,0.0,0.0,0.0,0.0,0.0,0.0,0.0,0.0,-1.2417,0.0,0.0,0.0,-0.9779,0.0,0.0,0.0,0.0,0.0,0.0,0.0,0.0,0.0,0.0,0.0,0.0,0.0,0.0,0.0,-0.721,-0.721,-0.721,-0.721,-0.721,-0.721,-0.721,-0.721,-0.721,-0.721,-0.721,-0.721,-0.721,-0.721,-0.721,-0.721,-0.721,-0.721,-0.721,-0.6034,-0.396,-0.3722,-0.2367,-0.0362,-0.0122,0.0,0.0,0.0,0.0,0.0,0.0,0.0,0.0,-1.9279,-1.9279,-1.9279,-1.9279,-1.9279,-1.9279,-1.9279,-1.9279,-1.9279,-1.9279,-1.9279,-1.9279,-1.9279,-1.9279,-1.9279,-1.9279,0.0,0.0,-1.9279,0.0,-1.9175,-1.8921,-1.8586,-1.8265,-1.8016,-1.7747,-1.7582,-1.7582,-1.7582,-1.7582,-1.7582,-1.7582,-1.7582,-1.7635,-1.8715,-1.928,-1.9487,0.0,-2.114,0.0,-2.1285,-2.2459,0.0,-2.4202,-2.4202,-2.4053,-2.2937,-2.2426,-2.2165,0.0,-2.0885,-2.0775,0.0,-1.9524,-1.8617,0.0,0.0,0.0,0.0,0.0,0.0,0.0,-1.4809,0.0,0.0,0.0,-1.1651,-1.1306,0.0,0.0,0.0,0.0,0.0,0.0,0.0,0.0,0.0,0.0,0.0,0.0,0.0,0.0,0.0,0.0,-0.721,-0.721,-0.721,-0.721,-0.721,-0.721,-0.721,-0.721,-0.721,-0.721,-0.721,-0.721,-0.721,-0.721,-0.721,-0.721,-0.721,-0.721,-0.6486,-0.5213,-0.4079,-0.2927,-0.1687,-0.0483,0.0,0.0,0.0,0.0,0.0,0.0,0.0,0.0,-1.9279,-1.9279,-1.9279,-1.9279,-1.9279,-1.9279,-1.9279,-1.9279,-1.9279,-1.9279,-1.9279,-1.9279,0.0,0.0,0.0,0.0,0.0,-1.9279,0.0,0.0,-1.9227,-1.9123,-1.8639,0.0,-1.822,-1.7799,-1.7582,-1.7582,-1.7582,-1.7582,-1.7582,-1.7582,-1.7582,-1.7635,-1.8094,0.0,-1.9228,0.0,-2.0313,0.0,0.0,0.0,0.0,-2.2316,-2.2316,-2.2207,-2.1759,-2.1556,-2.1497,0.0,-2.1293,0.0,0.0,0.0,0.0,0.0,0.0,0.0,0.0,0.0,0.0,0.0,0.0,0.0,0.0,0.0,-1.3176,0.0,0.0,0.0,0.0,0.0,0.0,0.0,0.0,0.0,0.0,0.0,0.0,0.0,0.0,0.0,0.0,0.0,0.0,0.0,-0.721,-0.721,-0.721,-0.721,-0.721,-0.721,-0.721,-0.721,-0.721,-0.721,-0.721,-0.721,-0.721,-0.721,-0.721,-0.721,-0.617,-0.4352,-0.3826,-0.2558,-0.0774,-0.024,0.0,0.0,0.0,0.0,0.0,0.0,0.0,0.0,-1.9175,-1.9227,-1.9279,-1.9279,-1.9279,-1.9279,-1.9279,-1.9279,-1.9279,-1.9279,-1.9279,0.0,-1.9279,-1.9279,0.0,0.0,-1.9279,-1.9279,0.0,0.0,-1.9279,0.0,0.0,0.0,0.0,0.0,-1.7687,-1.7582,-1.7582,-1.7582,-1.7582,-1.7582,-1.7582,-1.7582,-1.7582,-1.8048,-1.8767,0.0,-1.9235,-2.0004,-2.0004,-2.0004,-2.0063,-2.068,-2.0885,-2.0885,-2.0577,-2.0621,-2.0834,-2.0526,-2.114,0.0,-2.0158,0.0,0.0,0.0,0.0,0.0,-1.6636,0.0,0.0,0.0,0.0,0.0,0.0,0.0,0.0,0.0,0.0,0.0,0.0,0.0,0.0,0.0,0.0,0.0,0.0,0.0,0.0,0.0,0.0,0.0,0.0,0.0,0.0,-0.721,-0.721,-0.721,-0.721,-0.721,-0.721,-0.721,-0.721,-0.721,-0.721,-0.721,-0.721,-0.721,-0.721,-0.721,-0.721,-0.6877,-0.559,-0.3583,-0.3231,-0.1899,0.0,0.0,0.0,0.0,0.0,0.0,0.0,0.0,0.0,0.0,-1.8974,-1.9123,-1.9279,-1.9279,-1.9279,-1.9279,-1.9279,-1.9279,-1.9279,0.0,0.0,0.0,0.0,0.0,0.0,0.0,0.0,-1.9279,-1.9279,0.0,-1.9175,0.0,0.0,-1.86,0.0,0.0,0.0,-1.7582,-1.7582,-1.7582,-1.7582,-1.7582,-1.7582,-1.7582,-1.7582,-1.7635,-1.7635,-1.7635,-1.7687,-1.7687,-1.7687,-1.7687,-1.7943,0.0,-2.0885,-2.0783,-1.9642,0.0,0.0,-1.9642,-2.0004,0.0,0.0,0.0,0.0,0.0,0.0,0.0,0.0,0.0,0.0,-1.6271,0.0,0.0,0.0,0.0,-1.5838,0.0,0.0,0.0,0.0,0.0,0.0,0.0,0.0,0.0,0.0,0.0,0.0,0.0,0.0,0.0,0.0,0.0,0.0,-0.721,-0.721,-0.721,-0.721,-0.721,-0.721,-0.721,-0.721,-0.721,-0.721,-0.721,-0.721,-0.721,-0.721,-0.721,-0.7154,-0.5984,-0.4754,-0.3525,-0.2352,-0.1132,0.0,0.0,0.0,0.0,0.0,0.0,0.0,0.0,0.0,0.0,-1.8593,-1.8639,-1.8848,-1.922,0.0,-1.9279,-1.9279,-1.9279,0.0,0.0,0.0,0.0,0.0,-1.9279,-1.9279,0.0,0.0,-1.9279,-1.9279,-1.9279,0.0,0.0,0.0,-1.8705,0.0,0.0,0.0,0.0,0.0,-1.7582,-1.7582,-1.7582,-1.7582,-1.7582,-1.7582,-1.7582,0.0,0.0,0.0,0.0,0.0,-1.7582,-1.7687,0.0,0.0,-1.867,-1.8304,-1.8408,0.0,-1.8251,-1.8871,-1.9642,-1.8923,-1.9443,-2.0004,-1.8461,-1.8153,0.0,0.0,0.0,-1.653,-1.6324,0.0,0.0,0.0,0.0,0.0,0.0,0.0,0.0,0.0,0.0,0.0,0.0,0.0,0.0,0.0,0.0,0.0,0.0,0.0,0.0,0.0,0.0,0.0,-0.721,-0.721,-0.721,-0.721,-0.721,-0.721,-0.721,-0.721,-0.721,-0.721,-0.721,-0.721,-0.721,-0.721,-0.721,-0.7154,-0.5929,-0.4756,-0.3525,-0.2351,-0.1131,0.0,0.0,0.0,0.0,0.0,0.0,0.0,0.0,0.0,0.0,-1.8272,-1.8408,0.0,0.0,0.0,-1.9279,-1.9279,0.0,0.0,0.0,-1.9279,0.0,-1.9279,0.0,-1.9279,0.0,-1.9279,-1.9279,-1.9279,-1.9279,0.0,-1.9004,-1.8921,0.0,0.0,0.0,0.0,0.0,0.0,-1.7582,-1.7582,-1.7582,-1.7582,-1.7582,-1.7582,-1.7582,-1.7582,-1.7582,-1.7582,0.0,0.0,-1.7582,0.0,0.0,-1.7582,-1.7582,0.0,-1.7582,-1.7582,-1.7582,-1.8048,-1.8506,-1.7838,-1.8565,-1.9443,-1.7996,-1.7943,-1.8206,-1.7536,-1.7113,0.0,-1.6643,-1.6483,0.0,-1.6105,0.0,0.0,0.0,0.0,0.0,0.0,0.0,0.0,0.0,0.0,0.0,0.0,-0.7925,0.0,0.0,0.0,0.0,0.0,0.0,-0.721,-0.721,-0.721,-0.721,0.0,0.0,-0.721,-0.721,-0.721,-0.721,-0.721,-0.721,-0.721,-0.721,-0.721,-0.721,-0.7154,-0.5479,-0.4364,-0.3525,-0.1847,-0.0733,0.0,0.0,0.0,0.0,0.0,0.0,0.0,0.0,0.0,0.0,-1.8058,0.0,0.0,0.0,-1.9121,0.0,0.0,0.0,-1.9301,0.0,-1.9286,-1.9279,-1.9279,-1.9279,-1.9279,-1.9279,-1.9279,0.0,-1.9279,-1.9279,0.0,0.0,-1.8705,-1.8496,-1.7635,0.0,0.0,0.0,0.0,0.0,-1.7582,-1.7582,-1.7582,-1.7582,-1.7582,0.0,-1.7582,-1.7582,-1.7582,-1.7582,-1.7582,-1.7582,-1.7582,-1.7582,-1.7582,-1.7582,-1.7582,-1.7582,-1.7582,-1.7582,-1.7582,-1.7582,-1.7582,-1.7582,-1.7582,-1.7582,-1.7582,-1.7582,-1.7582,-1.743,-1.7232,-1.7179,0.0,0.0,0.0,0.0,-1.5945,0.0,0.0,0.0,0.0,0.0,0.0,0.0,0.0,0.0,0.0,0.0,0.0,0.0,0.0,0.0,0.0,-0.721,-0.721,-0.721,-0.721,-0.721,0.0,0.0,-0.721,-0.721,-0.721,-0.721,-0.721,-0.721,-0.721,-0.721,-0.721,-0.721,-0.7099,-0.4697,-0.358,-0.3469,-0.1064,0.0,0.0,0.0,0.0,0.0,0.0,0.0,0.0,0.0,0.0,0.0,-1.8326,-1.8646,-1.8885,0.0,-1.9115,-1.9387,0.0,0.0,0.0,0.0,-1.9425,-1.9279,-1.9279,-1.9279,-1.9279,-1.9279,-1.9279,0.0,0.0,0.0,0.0,-1.8757,-1.8593,-1.8325,-1.7911,-1.7964,0.0,-1.7582,0.0,0.0,-1.7582,-1.7582,-1.7582,-1.7582,0.0,-1.7582,-1.7582,-1.7582,-1.7582,-1.7582,-1.7582,-1.7582,0.0,0.0,-1.7582,-1.7582,-1.7582,-1.7582,-1.7582,-1.7582,-1.7582,-1.7582,-1.7582,-1.7582,-1.7582,-1.7582,-1.7582,-1.7582,-1.7582,-1.7536,-1.743,-1.7232,-1.7073,-1.6861,0.0,0.0,0.0,0.0,0.0,0.0,0.0,0.0,0.0,0.0,0.0,0.0,0.0,0.0,0.0,0.0,0.0,0.0,0.0,-0.721,-0.721,-0.721,-0.721,-0.721,0.0,0.0,0.0,-0.721,-0.721,-0.721,-0.721,-0.721,-0.721,-0.721,-0.721,-0.721,-0.7099,-0.4697,-0.358,-0.3469,-0.1064,0.0,0.0,0.0,0.0,0.0,0.0,0.0,0.0,0.0,0.0,0.0,-1.8457,0.0,0.0,-1.907,0.0,0.0,-1.956,0.0,0.0,-1.9758,-1.9529,0.0,-1.9281,-1.9038,-1.89,-1.89,-1.89,0.0,-1.89,0.0,0.0,-1.8496,-1.8331,-1.8115,-1.7852,-1.7852,0.0,-1.7582,0.0,0.0,-1.7582,-1.7582,-1.7582,-1.7582,0.0,-1.7582,-1.7582,-1.7582,-1.7582,-1.7582,-1.7582,0.0,0.0,-1.7582,-1.7582,-1.7582,-1.7582,-1.7582,-1.7582,-1.7582,-1.7582,-1.7582,-1.7582,-1.7582,-1.7582,-1.7582,-1.7582,-1.7582,-1.7582,-1.7582,-1.7582,-1.743,-1.7279,-1.7067,-1.6583,-1.6377,-1.6217,0.0,0.0,0.0,0.0,0.0,0.0,0.0,0.0,0.0,0.0,0.0,0.0,0.0,0.0,0.0,0.0,-0.721,-0.721,-0.721,-0.721,0.0,0.0,0.0,0.0,-0.721,-0.721,-0.721,-0.721,-0.721,-0.721,-0.721,-0.721,-0.721,-0.7099,-0.4697,-0.358,-0.3469,-0.1064,0.0,0.0,0.0,0.0,0.0,0.0,0.0,0.0,0.0,0.0,0.0,-1.8597,0.0,0.0,0.0,0.0,0.0,0.0,-1.9555,0.0,-1.9816,0.0,-1.927,-1.9227,-1.8759,-1.8412,-1.8213,0.0,-1.8153,-1.8153,-1.8153,-1.8003,-1.7799,-1.7747,-1.7529,-1.7147,-1.7147,0.0,0.0,0.0,0.0,-1.7582,-1.7582,-1.7582,-1.7582,0.0,0.0,0.0,-1.7582,-1.7582,-1.7582,-1.7582,-1.7582,-1.7582,-1.7582,-1.7582,-1.7582,-1.7582,-1.7582,-1.7582,-1.7582,-1.7582,-1.7582,-1.7582,-1.7582,-1.7582,-1.7582,-1.7582,-1.7582,-1.7582,-1.7582,-1.7582,-1.7582,-1.743,-1.7173,-1.6842,-1.653,-1.6271,-1.5998,-1.5945,-1.5891,0.0,0.0,0.0,0.0,0.0,0.0,0.0,0.0,0.0,0.0,0.0,0.0,0.0,0.0,0.0,-0.721,-0.721,0.0,0.0,0.0,0.0,-0.721,-0.721,0.0,-0.721,0.0,-0.721,-0.721,-0.721,-0.721,-0.7099,-0.4697,-0.358,-0.3469,-0.1064,0.0,0.0,0.0,0.0,0.0,0.0,0.0,0.0,0.0,0.0,0.0,0.0,0.0,0.0,0.0,0.0,-1.939,-1.9398,-1.9389,-1.9507,-1.9787,-1.9513,-1.9226,-1.8973,-1.8896,-1.8316,-1.71,-1.7022,0.0,0.0,0.0,0.0,-1.6617,-1.6399,-1.5802,-1.4728,-1.4722,-1.5209,0.0,0.0,0.0,-1.7582,-1.7582,-1.7582,-1.7582,0.0,0.0,-1.7582,-1.7582,0.0,-1.7582,-1.7582,-1.7582,-1.7582,-1.7582,-1.7582,-1.7582,-1.7582,-1.7582,-1.7582,-1.7582,-1.7582,-1.7582,-1.7582,-1.7582,-1.7582,-1.7582,-1.7582,-1.7582,-1.7582,-1.7582,-1.7582,-1.7582,-1.7582,-1.7483,-1.7173,-1.6849,-1.6524,-1.6271,-1.6051,-1.5891,-1.5891,0.0,0.0,0.0,0.0,0.0,0.0,0.0,0.0,0.0,0.0,0.0,0.0,0.0,0.0,0.0,0.0,0.0,0.0,0.0,0.0,0.0,-0.721,0.0,0.0,0.0,-0.721,-0.721,-0.721,-0.721,-0.7099,-0.4697,-0.358,-0.3469,-0.1064,0.0,0.0,0.0,0.0,0.0,0.0,0.0,0.0,0.0,0.0,0.0,0.0,0.0,0.0,0.0,0.0,0.0,0.0,-1.8404,0.0,-1.8761,-1.8562,-1.8052,-1.7297,-1.6808,-1.6254,-1.558,-1.5392,-1.5364,-1.5364,-1.5209,-1.5162,-1.5162,-1.5049,0.0,-1.4137,-1.4078,-1.44,-1.4995,0.0,0.0,-1.5802,-1.6452,-1.6393,-1.5802,0.0,-1.7041,0.0,0.0,0.0,-1.7582,-1.7582,-1.7582,-1.7582,-1.7582,-1.7582,-1.7582,-1.7582,-1.7582,-1.7582,-1.7582,-1.7582,-1.7582,-1.7582,-1.7582,-1.7582,-1.7582,-1.7582,-1.7582,-1.7582,-1.7582,-1.7582,-1.7582,-1.7582,-1.7536,-1.7279,-1.7067,-1.6849,-1.6377,-1.6217,-1.6051,-1.5945,-1.5891,0.0,0.0,0.0,0.0,0.0,0.0,0.0,0.0,0.0,0.0,0.0,0.0,0.0,0.0,0.0,0.0,0.0,0.0,0.0,0.0,0.0,0.0,0.0,0.0,0.0,-0.721,-0.721,-0.721,-0.7099,-0.4697,-0.358,-0.3469,-0.1064,0.0,0.0,0.0,0.0,0.0,0.0,0.0,0.0,0.0,0.0,0.0,0.0,-1.9424,0.0,0.0,-1.9185,0.0,-1.763,-1.7279,-1.7155,-1.7378,-1.7255,-1.6702,-1.5613,-1.4931,-1.4388,-1.4067,-1.3889,-1.3759,-1.376,-1.376,-1.376,-1.376,-1.376,-1.3652,-1.3383,-1.3383,-1.3491,0.0,0.0,0.0,0.0,0.0,0.0,0.0,0.0,0.0,0.0,0.0,-1.7259,-1.7259,-1.7477,-1.7582,-1.7582,-1.7582,-1.7582,-1.7582,-1.7582,-1.7582,-1.7582,-1.7582,-1.7582,-1.7582,-1.7582,-1.7582,-1.7582,-1.7582,-1.7582,-1.7582,-1.7582,-1.7582,-1.7582,-1.7582,-1.7582,-1.7529,-1.7331,-1.7173,-1.6961,-1.6477,-1.6271,-1.6164,-1.5945,-1.5891,0.0,0.0,0.0,0.0,0.0,0.0,0.0,0.0,0.0,0.0,0.0,0.0,0.0,0.0,0.0,0.0,0.0,0.0,0.0,0.0,0.0,-0.721,-0.721,0.0,-0.721,0.0,-0.721,-0.7043,-0.6763,-0.4585,-0.3469,-0.3078,-0.0953,0.0,0.0,0.0,0.0,0.0,0.0,0.0,0.0,0.0,0.0,0.0,0.0,0.0,0.0,0.0,0.0,0.0,0.0,-1.6514,-1.5806,-1.5806,-1.5784,-1.5632,-1.5183,-1.5061,-1.4463,-1.2995,-1.2831,-1.2736,-1.259,-1.2575,-1.2575,-1.2575,-1.2575,-1.2096,-1.1017,-1.1017,-1.15,0.0,0.0,0.0,0.0,0.0,0.0,0.0,0.0,0.0,0.0,-1.5589,-1.6074,-1.6127,-1.7206,-1.7582,-1.7582,-1.7582,-1.7582,-1.7582,-1.7582,-1.7582,-1.7582,-1.7582,-1.7582,-1.7582,-1.7582,-1.7582,-1.7582,-1.7582,-1.7582,-1.7582,-1.7582,-1.7582,-1.7582,-1.7582,-1.7582,-1.7582,-1.7582,-1.716,-1.6736,-1.6677,-1.6258,-1.5945,-1.5891,-1.5891,-1.5891,0.0,0.0,0.0,0.0,0.0,0.0,0.0,0.0,0.0,0.0,-0.7379,0.0,0.0,0.0,0.0,0.0,0.0,0.0,-0.721,0.0,-0.721,-0.721,-0.721,0.0,-0.721,-0.721,-0.6652,-0.5539,-0.4195,-0.3021,-0.1903,-0.056,0.0,0.0,0.0,0.0,0.0,0.0,0.0,0.0,0.0,0.0,0.0,0.0,0.0,0.0,0.0,0.0,0.0,0.0,-1.4793,-1.4207,-1.3439,-1.3968,-1.4113,-1.3209,-1.3026,-1.2655,-1.2041,-1.182,-1.1655,-1.1573,-1.1461,-1.1391,-1.1391,-1.1391,-1.1177,-1.0692,-1.0692,-1.0907,0.0,0.0,0.0,0.0,0.0,0.0,0.0,0.0,-1.3437,-1.4132,-1.462,-1.4835,-1.4835,-1.5316,-1.5908,-1.6558,-1.6558,-1.6988,-1.7582,-1.7582,-1.7582,-1.7582,-1.7582,-1.7582,-1.7582,-1.7582,-1.7582,-1.7582,-1.7582,-1.7582,-1.7582,-1.7582,-1.7582,-1.7582,-1.7582,-1.7582,-1.7582,-1.7582,-1.7265,-1.6955,-1.673,-1.6258,-1.5891,-1.5891,-1.5891,-1.5891,0.0,0.0,0.0,0.0,0.0,0.0,0.0,0.0,0.0,0.0,0.0,-0.721,0.0,0.0,0.0,0.0,0.0,0.0,-0.721,0.0,-0.721,-0.721,-0.721,-0.721,-0.721,-0.721,-0.6541,-0.5371,-0.414,-0.2519,-0.0672,-0.0224,0.0,0.0,0.0,0.0,0.0,0.0,0.0,0.0,0.0,0.0,0.0,-1.8357,0.0,-1.6926,0.0,-1.586,-1.4738,-1.3844,-1.337,-1.284,-1.1893,-1.2603,-1.2779,-1.1897,-1.1658,-1.1557,-1.1504,-1.1269,-1.1102,-1.1045,-1.0875,-1.0773,-1.0773,-1.072,0.0,-1.0692,-1.0692,-1.0692,-1.0692,-1.0692,0.0,0.0,0.0,0.0,0.0,-1.2254,-1.2363,-1.3112,-1.3437,-1.3599,-1.3652,-1.3976,-1.462,-1.5375,-1.5375,-1.5855,-1.6611,-1.6988,-1.71,-1.7147,-1.7477,-1.7582,-1.7582,-1.7582,-1.7582,-1.7582,-1.7582,-1.7582,-1.7582,-1.7582,-1.7582,-1.7582,-1.7582,-1.7582,-1.7582,-1.7483,-1.7272,-1.6955,-1.6524,-1.6152,-1.5891,-1.5891,-1.5891,-1.5891,-1.5891,0.0,0.0,0.0,0.0,0.0,0.0,-0.9085,-0.7989,-0.7989,-0.7487,0.0,0.0,0.0,0.0,0.0,0.0,0.0,0.0,0.0,0.0,0.0,-0.721,-0.721,-0.721,-0.721,-0.6374,-0.481,-0.3245,-0.1623,0.0,0.0,0.0,0.0,0.0,0.0,0.0,0.0,0.0,0.0,0.0,0.0,0.0,-1.5865,-1.5634,-1.5628,-1.5628,-1.456,-1.3725,-1.3725,-1.2603,-1.1837,-1.1776,-1.1837,-1.1837,-1.1776,-1.1776,-1.1699,-1.1516,-1.1496,-1.1415,-1.1232,-1.1062,-1.102,0.0,0.0,-1.0692,-1.0692,-1.0692,-1.0692,-1.0692,0.0,0.0,-1.0692,0.0,-1.0747,-1.0747,-1.0747,-1.0747,-1.0802,-1.1928,-1.2413,-1.2526,-1.3652,-1.4137,-1.4132,-1.4132,-1.4132,-1.4293,-1.5482,-1.5914,-1.6074,-1.7206,-1.7582,-1.7582,-1.7582,-1.7582,-1.7582,-1.7582,-1.7582,-1.7582,-1.7582,-1.7582,-1.7582,-1.7582,-1.7582,-1.7529,-1.7279,-1.6955,-1.6577,-1.5998,-1.5891,-1.5891,-1.5891,-1.5891,-1.5891,-1.5891,0.0,0.0,0.0,0.0,0.0,0.0,-0.9085,-0.7989,-0.7989,0.0,0.0,0.0,0.0,0.0,0.0,0.0,0.0,-0.721,-0.721,0.0,-0.721,-0.721,-0.721,-0.721,-0.721,-0.5924,-0.3525,-0.112,0.0,0.0,0.0,0.0,0.0,0.0,0.0,0.0,0.0,0.0,0.0,0.0,0.0,0.0,-1.5688,-1.4917,-1.4321,-1.4321,-1.326,-1.2427,-1.2427,-1.2074,-1.1776,-1.1776,-1.1776,-1.1776,-1.1776,-1.1776,-1.1752,0.0,-1.1573,-1.1472,0.0,-1.124,-1.109,-1.0972,-1.0967,-1.0822,-1.0692,-1.0692,-1.0692,-1.0692,0.0,0.0,0.0,-1.0692,-1.0692,-1.0692,-1.0692,-1.0692,-1.0747,-1.1072,-1.1232,-1.1286,-1.166,-1.2254,-1.2955,-1.2955,-1.3437,-1.4137,-1.4567,-1.5209,-1.5968,-1.6346,-1.6836,-1.7331,-1.7331,-1.743,-1.7582,-1.7378,-1.7331,-1.7279,-1.7054,-1.6995,-1.6995,-1.6995,-1.6995,-1.6948,-1.6895,-1.6636,-1.6318,-1.5945,-1.5891,-1.5891,-1.5891,-1.5891,-1.5891,-1.5891,-1.4922,0.0,0.0,0.0,0.0,0.0,0.0,-0.7989,0.0,-0.7487,0.0,0.0,0.0,0.0,0.0,0.0,0.0,0.0,-0.721,0.0,-0.721,-0.721,-0.721,-0.721,-0.721,-0.5924,-0.3525,-0.112,0.0,0.0,0.0,0.0,0.0,0.0,0.0,0.0,0.0,0.0,0.0,0.0,0.0,0.0,-1.4267,-1.3555,-1.302,-1.302,-1.2307,-1.1776,-1.1776,-1.1776,-1.1776,-1.1776,-1.1776,-1.1776,-1.1776,-1.1776,0.0,-1.1776,-1.1671,-1.1606,-1.1606,-1.1427,-1.1277,-1.1171,-1.1098,-1.0915,-1.0798,0.0,0.0,-1.0692,-1.0692,-1.0692,-1.0692,-1.0692,-1.0692,-1.0692,-1.0692,-1.0692,-1.0692,-1.0692,-1.0692,-1.0692,-1.0692,-1.1122,-1.1769,-1.1769,-1.2146,-1.2738,-1.3166,-1.3701,-1.44,-1.5269,-1.5927,-1.6471,-1.6902,-1.7113,-1.7213,-1.706,-1.7008,-1.6955,-1.6736,-1.6677,-1.6677,-1.6677,-1.6677,-1.6677,-1.6577,-1.6318,-1.6105,-1.5945,-1.5891,-1.5891,-1.5891,-1.5891,-1.5891,-1.5891,-1.4535,-1.3236,-1.2526,0.0,0.0,0.0,0.0,0.0,0.0,-0.7601,0.0,0.0,0.0,0.0,0.0,0.0,0.0,-0.721,-0.721,0.0,-0.721,-0.721,-0.721,-0.721,-0.626,-0.4806,-0.2854,-0.0896,0.0,0.0,0.0,0.0,0.0,0.0,0.0,0.0,0.0,0.0,0.0,0.0,0.0,0.0,-1.201,-1.1776,0.0,0.0,-1.1776,0.0,-1.1776,-1.1776,-1.1776,-1.1776,-1.1776,-1.1776,-1.1776,-1.1776,-1.1776,-1.1776,0.0,0.0,0.0,-1.1614,-1.1512,-1.15,-1.1171,-1.098,-1.1024,-1.0789,-1.0692,-1.0692,-1.0692,-1.0692,-1.0692,-1.0692,-1.0692,-1.0692,-1.0692,-1.0692,-1.0692,-1.0692,-1.0637,-1.0637,-1.0637,-1.0637,-1.0637,-1.0637,-1.0472,-1.0417,-1.1496,-1.171,-1.1864,-1.4143,-1.49,-1.5173,-1.6305,-1.6677,-1.6624,-1.6683,-1.6677,-1.6677,-1.6624,-1.6624,-1.6624,-1.6624,-1.6624,-1.6577,-1.6324,-1.6057,-1.5891,-1.5891,-1.5891,-1.5891,-1.5891,-1.5838,-1.5779,-1.5779,-1.3825,-1.2309,-1.2309,0.0,0.0,0.0,0.0,0.0,0.0,-0.7715,-0.7493,0.0,0.0,0.0,0.0,0.0,-0.721,-0.721,-0.721,-0.721,-0.721,-0.721,-0.721,-0.7154,-0.4752,-0.3022,-0.1903,-0.0616,0.0,0.0,0.0,0.0,0.0,0.0,0.0,0.0,0.0,0.0,0.0,0.0,0.0,0.0,0.0,0.0,-1.1776,-1.1776,-1.1776,-1.1776,-1.1776,-1.1776,-1.1776,-1.1776,-1.1776,-1.1776,-1.1776,-1.1776,-1.1776,-1.1776,-1.1776,-1.1776,-1.1776,-1.1736,-1.165,-1.1504,-1.1281,-1.1102,-1.1028,-1.0789,-1.0692,-1.0692,-1.0692,-1.0692,-1.0692,-1.0692,-1.0692,-1.0692,-1.0692,-1.0582,-1.0366,-1.0366,-1.0257,-1.0033,-1.0033,-1.0033,-1.0033,-1.0033,-0.9981,-0.9981,-1.0194,-1.084,-1.1705,-1.3176,-1.4148,-1.49,-1.6045,-1.6264,-1.6152,-1.6318,-1.6371,-1.6371,-1.6158,-1.6099,-1.6099,-1.6099,-1.6099,-1.6045,-1.5998,-1.5945,-1.5891,-1.5891,-1.5891,-1.5891,-1.5891,-1.519,-1.46,-1.46,-1.2635,-1.1109,-1.1109,-0.9809,0.0,0.0,-0.8436,-0.81,-0.7989,-0.7546,-0.7268,0.0,0.0,0.0,0.0,-0.721,-0.721,-0.721,-0.721,-0.721,-0.721,-0.721,-0.721,-0.7154,-0.4752,-0.3469,-0.3078,-0.0953,0.0,0.0,0.0,0.0,0.0,0.0,0.0,0.0,0.0,0.0,0.0,0.0,0.0,0.0,-1.1504,-1.1589,-1.165,-1.165,-1.1719,-1.1776,-1.1776,-1.1776,-1.1776,-1.1776,-1.1776,-1.1776,-1.1776,-1.1776,-1.1776,-1.1776,-1.1776,-1.1776,-1.1776,-1.1776,-1.1732,-1.163,-1.1366,-1.1179,-1.1086,-1.0826,-1.0692,-1.0692,-1.0692,-1.0692,-1.0692,-1.0692,-1.0637,-1.0531,-1.0531,-1.0363,-1.0091,-1.0091,-0.9981,-0.9816,-0.9816,-0.9816,-0.9816,-0.9816,-0.9706,-0.9599,-0.9599,-0.9919,-1.0511,-1.171,-1.2792,-1.3825,-1.497,-1.5618,-1.5945,-1.6051,-1.6111,-1.6105,-1.5945,-1.5891,-1.5891,-1.5891,-1.5891,-1.5891,-1.5891,-1.5891,-1.5891,-1.5891,-1.5512,-1.5137,-1.5137,-1.4159,-1.3398,-1.3398,-1.1873,-1.0726,-1.0726,-0.9644,0.0,-0.8885,-0.8491,-0.8156,-0.7989,-0.7601,-0.7324,-0.721,0.0,0.0,-0.721,-0.721,-0.721,-0.721,-0.721,-0.721,-0.721,-0.721,-0.6932,-0.6374,-0.4474,-0.3301,-0.2742,-0.084,0.0,0.0,0.0,0.0,0.0,0.0,0.0,0.0,0.0,0.0,0.0,0.0,0.0,0.0,-1.122,-1.135,-1.1455,-1.1455,-1.1589,-1.1695,-1.1695,-1.1695,-1.1695,-1.1695,-1.1695,-1.1703,-1.1732,-1.1736,-1.1748,-1.1776,-1.1776,-1.1776,-1.1776,-1.1776,-1.1776,-1.1776,-1.1419,-1.1224,-1.1224,-1.0875,-1.0692,-1.0637,-1.0637,-1.0637,-1.0582,-1.0582,-1.0417,-1.0202,-1.0202,-1.0036,-0.9761,-0.9761,-0.9706,-0.9651,-0.9651,-0.9651,-0.9651,-0.9651,-0.9544,-0.9323,-0.9323,-0.9158,-0.9103,-1.0292,-1.1328,-1.2363,-1.3786,-1.4863,-1.5678,-1.5832,-1.5891,-1.5891,-1.5891,-1.5891,-1.5891,-1.5891,-1.5891,-1.5832,-1.5672,-1.5624,-1.5565,-1.5399,-1.4595,-1.3948,-1.3948,-1.2965,-1.2141,-1.2141,-1.1164,-1.0457,-1.0457,0.0,-0.8881,-0.8826,-0.8598,-0.8318,-0.7989,-0.7715,-0.7438,-0.721,-0.721,-0.721,0.0,-0.721,-0.721,-0.721,-0.721,-0.721,-0.721,-0.721,-0.671,-0.565,-0.4475,-0.3245,-0.2015,-0.084,-0.0168,0.0,0.0,0.0,0.0,0.0,0.0,0.0,0.0,0.0,0.0,0.0,0.0,0.0,-1.1196,-1.1244,-1.1265,-1.1265,-1.1289,-1.1309,-1.1309,-1.1309,-1.1309,-1.1309,-1.1309,-1.1366,-1.1524,-1.1541,-1.1606,-1.1764,-1.1776,-1.1776,-1.1776,-1.1776,-1.1776,-1.1776,-1.1419,-1.1224,-1.1224,-1.0875,-1.0582,-1.0363,-1.0363,-1.0202,-0.9926,-0.9926,-0.9923,-0.9871,-0.9871,-0.9706,-0.9489,-0.9489,-0.9323,-0.9047,-0.9047,-0.9047,-0.9047,-0.9047,-0.8995,-0.8992,-0.8992,-0.8937,-0.9103,-1.0292,-1.0836,-1.1328,-1.3511,-1.4326,-1.4654,-1.5618,-1.5891,-1.5891,-1.5891,-1.5891,-1.5891,-1.5891,-1.5891,-1.5672,-1.4708,-1.4433,-1.4164,-1.3176,-1.2797,-1.2689,-1.2689,-1.1764,-1.0945,-1.0945,-0.997,-0.9154,-0.9154,0.0,-0.8826,-0.8598,-0.8266,-0.7989,-0.7662,-0.7435,-0.7265,-0.721,-0.721,-0.721,-0.721,-0.721,-0.721,-0.721,-0.721,-0.721,-0.721,-0.721,-0.7099,-0.693,-0.5704,-0.4475,-0.3301,-0.2071,-0.0953,0.0,0.0,0.0,0.0,0.0,0.0,0.0,0.0,0.0,0.0,0.0,0.0,0.0,-1.0919,-1.1017,-1.1086,-1.1086,-1.1159,-1.1224,-1.1224,-1.1224,-1.1224,-1.1224,-1.1224,-1.1252,-1.1342,-1.135,-1.1382,-1.1468,-1.148,-1.148,-1.148,-1.1667,-1.1732,-1.163,-1.1191,-1.0792,-1.0438,-1.0279,-1.0143,-1.0036,-1.0036,-0.9926,-0.9816,-0.9816,-0.9706,-0.9596,-0.9596,-0.9434,-0.9158,-0.9158,-0.9047,-0.8885,-0.8885,-0.8885,-0.8885,-0.8885,-0.8885,-0.8885,-0.8885,-0.8885,-0.8992,-0.9533,-1.0186,-1.1,-1.2689,-1.3673,-1.4433,-1.5565,-1.5891,-1.5891,-1.5891,-1.5891,-1.5891,-1.5891,-1.5458,-1.4869,-1.4326,-1.3673,-1.3073,-1.2521,-1.1923,-1.1492,-1.1492,-1.0511,-0.9754,-0.9754,-0.9265,0.0,0.0,-0.8768,-0.8654,-0.854,-0.81,-0.7715,-0.7607,-0.7379,-0.721,-0.721,-0.721,-0.721,-0.721,-0.721,-0.721,-0.721,-0.721,-0.721,-0.721,-0.721,-0.721,-0.721,-0.5984,-0.4756,-0.358,-0.2351,-0.112,0.0,0.0,0.0,0.0,0.0,0.0,0.0,0.0,0.0,0.0,0.0,0.0,0.0,-1.0692,-1.0806,-1.0907,-1.0907,-1.1013,-1.1098,-1.1098,-1.1098,-1.1098,-1.1098,-1.1098,-1.1114,-1.1159,-1.1163,-1.1179,-1.122,-1.1224,-1.1166,-1.1109,-1.1374,-1.1526,-1.1326,-1.0914,-1.0394,-0.982,-0.9816,-0.9761,-0.9706,-0.9706,-0.9651,-0.9596,-0.9596,-0.9485,-0.9268,-0.9268,-0.9158,-0.8885,-0.8885,-0.8885,-0.8885,-0.8885,-0.8885,-0.8885,-0.8885,-0.8885,-0.8885,-0.8885,-0.8885,-0.8885,-0.8885,-0.9537,-1.0457,-1.1651,-1.2635,-1.3673,-1.5078,-1.5672,-1.5838,-1.5571,-1.5512,-1.5458,-1.5185,-1.4428,-1.3727,-1.3457,-1.2694,-1.1928,-1.1655,-1.0895,-1.0296,-1.0296,-0.9537,-0.8885,-0.8885,0.0,0.0,0.0,-0.8657,-0.8484,-0.8374,-0.7937,-0.7551,-0.7493,-0.7324,-0.721,-0.721,-0.721,-0.721,-0.721,-0.721,-0.721,-0.721,-0.721,-0.721,-0.721,-0.721,-0.721,-0.721,-0.6262,-0.5033,-0.358,-0.2629,-0.14,0.0,0.0,0.0,0.0,0.0,0.0,0.0,0.0,0.0,0.0,0.0,0.0,0.0,-1.0692,-1.0704,-1.0712,-1.0712,-1.072,-1.0729,-1.0729,-1.0729,-1.0729,-1.0729,-1.0729,-1.0798,-1.0968,-1.0988,-1.1049,-1.1208,-1.1224,-1.1109,-1.082,-1.0844,-1.0856,-1.084,-1.0387,-1.0044,-0.982,-0.9816,-0.9651,-0.9434,-0.9434,-0.9268,-0.894,-0.894,-0.894,-0.8937,-0.8937,-0.894,-0.8885,-0.8885,-0.8885,-0.8885,-0.8885,-0.8885,-0.8885,-0.8885,-0.8885,-0.8885,-0.8885,-0.8885,-0.8885,-0.8885,-0.8937,-0.9265,-1.0457,-1.0891,-1.1383,-1.3673,-1.5083,-1.5678,-1.46,-1.4331,-1.4056,-1.296,-1.2575,-1.2254,-1.1214,-1.0891,-1.0511,-0.9372,-0.9103,-0.9047,-0.9047,-0.8937,-0.8885,-0.8885,0.0,0.0,-0.8885,-0.8657,-0.8374,-0.81,-0.7771,-0.7493,-0.7265,-0.721,-0.721,-0.721,-0.721,-0.721,-0.721,-0.721,-0.721,-0.721,-0.721,-0.721,-0.721,-0.721,-0.721,-0.721,-0.7099,-0.5868,-0.358,-0.3525,-0.2183,0.0,0.0,0.0,0.0,0.0,0.0,0.0,0.0,0.0,0.0,0.0,0.0,0.0,-1.0692,-1.0692,-1.0692,-1.0692,-1.0692,-1.0692,-1.0692,-1.0692,-1.0692,-1.0692,-1.0692,-1.072,-1.0789,-1.0798,-1.0766,-1.0667,-1.0615,-1.0503,-1.0223,-1.0167,-1.0156,-1.0084,-0.9827,-0.9547,-0.9268,-0.9268,-0.9213,-0.9103,-0.9103,-0.9051,-0.8885,-0.8885,-0.8885,-0.8885,-0.8885,-0.8885,-0.8885,-0.8885,-0.8885,-0.8885,-0.8885,-0.8885,-0.8885,-0.8885,-0.8885,-0.8885,-0.8885,-0.8885,-0.8885,-0.8885,-0.8885,-0.9099,-1.0296,-1.0726,-1.1,-1.2635,-1.3393,-1.3501,-1.2363,-1.3073,-1.3894,-1.2689,-1.1873,-1.1214,-1.0781,-1.0131,-0.9427,-0.8992,-0.8885,-0.8885,-0.8885,-0.8885,-0.8885,-0.8885,0.0,-0.8826,-0.8657,-0.8377,-0.81,-0.7771,-0.749,-0.7324,-0.721,-0.721,-0.721,-0.721,-0.721,-0.721,-0.721,-0.721,-0.721,-0.721,-0.721,-0.721,-0.721,-0.721,-0.721,-0.721,-0.721,-0.5924,-0.358,-0.358,-0.2295,0.0,0.0,0.0,0.0,0.0,0.0,0.0,0.0,0.0,0.0,0.0,0.0,0.0,-1.0692,-1.0692,-1.0692,-1.0692,-1.0692,-1.0692,-1.0692,-1.0692,-1.0692,-1.0692,-1.0692,-1.0692,-1.0692,-1.0637,-1.0472,-1.0312,-1.0202,-1.0036,-0.9706,-0.9596,-0.9532,-0.9528,-0.9321,-0.9158,-0.8885,-0.8885,-0.8885,-0.8885,-0.8885,-0.8885,-0.8885,-0.8885,-0.8885,-0.8885,-0.8885,-0.8885,-0.8885,-0.8885,-0.8885,-0.8885,-0.8885,-0.8885,-0.8885,-0.8885,-0.8885,-0.8885,-0.8885,-0.8885,-0.8885,-0.8885,-0.8885,-0.9047,-0.986,-1.0402,-1.0836,-1.1651,-1.2146,-1.2146,-1.1,-1.1873,-1.2802,-1.1601,-1.0731,-1.0131,-1.0131,-0.9478,-0.8885,-0.8885,-0.8885,-0.8885,-0.8885,-0.8885,-0.8885,-0.8885,-0.8885,-0.8826,-0.854,-0.8211,-0.7878,-0.7607,-0.7379,-0.721,-0.721,-0.721,-0.721,-0.721,-0.721,-0.721,-0.721,-0.721,-0.721,-0.721,-0.721,-0.721,-0.721,-0.721,-0.721,-0.721,-0.721,-0.6149,-0.414,-0.3748,-0.2463,-0.056,-0.0168,0.0,0.0,0.0,0.0,0.0,0.0,0.0,0.0,0.0,0.0,0.0,-1.0692,-1.0692,-1.0692,-1.0692,-1.0692,-1.0692,-1.0692,-1.0692,-1.0692,-1.0692,-1.0692,-1.0692,-1.0692,-1.0472,-1.0312,-1.0312,-0.9981,-0.9706,-0.9434,-0.9103,-0.9047,-0.9379,-0.9103,-0.8885,-0.8885,-0.8885,-0.8885,-0.8885,-0.8885,-0.8885,-0.8885,-0.8885,-0.8885,-0.8885,-0.8885,-0.8885,-0.8885,-0.8885,-0.8885,-0.8885,-0.8885,-0.8885,-0.8885,-0.8885,-0.8885,-0.8885,-0.8885,-0.8885,-0.8885,-0.8885,-0.8885,-0.8885,-0.8885,-0.9699,-1.0672,-1.0672,-1.1492,-1.2146,-1.1,-1.0672,-1.0402,-0.921,-0.8885,-0.8885,-0.8885,-0.8885,-0.8885,-0.8885,-0.8885,-0.8885,-0.8885,-0.8885,-0.8885,-0.8885,-0.8885,-0.8826,-0.854,-0.8211,-0.7881,-0.7607,-0.7379,-0.721,-0.721,-0.721,-0.721,-0.721,-0.721,-0.721,-0.721,-0.721,-0.721,-0.721,-0.721,-0.721,-0.721,-0.721,-0.721,-0.721,-0.721,-0.6541,-0.5371,-0.414,-0.2966,-0.1735,-0.056,0.0,0.0,0.0,0.0,0.0,0.0,0.0,0.0,0.0,0.0,0.0,-1.0852,-1.0692,-1.0692,-1.0692,-1.0692,-1.0692,-1.0692,-1.0692,-1.0692,-1.0692,-1.0527,-1.0421,-1.0421,-1.0147,-0.9871,-0.971,-0.9599,-0.9379,-0.9051,-0.894,-0.8937,-0.9047,-0.8937,-0.8885,-0.8885,-0.8885,-0.8885,-0.8885,-0.8885,-0.8885,-0.8885,-0.8885,-0.8885,-0.8885,-0.8885,-0.8885,-0.8885,-0.8885,-0.8885,-0.8885,-0.8885,-0.8885,-0.8885,-0.8885,-0.8885,-0.8885,-0.8885,-0.8885,-0.8885,-0.8885,-0.8885,-0.8885,-0.8885,-0.9154,-0.9427,-0.9427,-0.9699,-0.9864,-0.9537,-0.9427,-0.9372,-0.8992,-0.8885,-0.8885,-0.8885,-0.8885,-0.8885,-0.8885,-0.8885,-0.8885,-0.8885,-0.8885,-0.8885,-0.8885,-0.8768,-0.8488,-0.8211,-0.7881,-0.7604,-0.7324,-0.7265,-0.721,-0.721,-0.721,-0.721,-0.721,-0.721,-0.721,-0.721,-0.721,-0.721,-0.721,-0.721,-0.721,-0.721,-0.721,-0.721,-0.721,-0.721,-0.6541,-0.5371,-0.5035,-0.3748,-0.1791,-0.14,-0.0784,0.0,0.0,0.0,0.0,0.0,0.0,0.0,0.0,0.0,0.0,-1.0907,-1.0692,-1.0692,-1.0692,-1.0692,-1.0692,-1.0692,-1.0692,-1.0692,-1.0692,-1.0476,-1.0312,-1.0312,-0.9926,-0.9599,-0.9434,-0.9268,-0.9103,-0.894,-0.8885,-0.8885,-0.8885,-0.8885,-0.8885,-0.8885,-0.8885,-0.8885,-0.8885,-0.8885,-0.8885,-0.8885,-0.8885,-0.8885,-0.8885,-0.8885,-0.8885,-0.8885,-0.8885,-0.8885,-0.8885,-0.8885,-0.8885,-0.8885,-0.8885,-0.8885,-0.8885,-0.8885,-0.8885,-0.8885,-0.8885,-0.8885,-0.8885,-0.8885,-0.8885,-0.8885,-0.8885,-0.8885,-0.8885,-0.8885,-0.8885,-0.8885,-0.8885,-0.8885,-0.8885,-0.8885,-0.8885,-0.8885,-0.8885,-0.8885,-0.8885,-0.8885,-0.8885,-0.8885,-0.8885,-0.8657,-0.8374,-0.8045,-0.7771,-0.7493,-0.721,-0.721,-0.721,-0.721,-0.721,-0.721,-0.721,-0.721,-0.721,-0.721,-0.721,-0.721,-0.721,-0.721,-0.721,-0.721,-0.721,-0.721,-0.721,-0.721,-0.6818,-0.6096,-0.5144,-0.3916,-0.2463,-0.1512,-0.0672,0.0,0.0,0.0,0.0,0.0,0.0,0.0,0.0,0.0,0.0,-1.1072,-1.0747,-1.0692,-1.0692,-1.0692,-1.0692,-1.0692,-1.0692,-1.0692,-1.0692,-1.0421,-1.0257,-1.0202,-0.9706,-0.9379,-0.9379,-0.9103,-0.8885,-0.8885,-0.8885,-0.8885,-0.8885,-0.8885,-0.8885,-0.8885,-0.8885,-0.8885,-0.8885,-0.8885,-0.8885,-0.8885,-0.8885,-0.8885,-0.8885,-0.8885,-0.8885,-0.8885,-0.8885,-0.8885,-0.8885,-0.8885,-0.8885,-0.8885,-0.8885,-0.8885,-0.8885,-0.8885,-0.8885,-0.8885,-0.8885,-0.8885,-0.8885,-0.8885,-0.8885,-0.8885,-0.8885,-0.8885,-0.8885,-0.8885,-0.8885,-0.8885,-0.8885,-0.8885,-0.8885,-0.8885,-0.8885,-0.8885,-0.8885,-0.8885,-0.8885,-0.8885,-0.8885,-0.8881,-0.8881,-0.8657,-0.8318,-0.7989,-0.7715,-0.7493,-0.721,-0.721,-0.721,-0.721,-0.721,-0.721,-0.721,-0.721,-0.721,-0.721,-0.721,-0.721,-0.721,-0.721,-0.721,-0.721,-0.721,-0.721,-0.721,-0.721,-0.721,-0.7099,-0.492,-0.3804,-0.3469,-0.1288,-0.0224,0.0,0.0,0.0,0.0,0.0,0.0,0.0,0.0,0.0,0.0,-1.2254,-1.1286,-1.0692,-1.0692,-1.0692,-1.0692,-1.0692,-1.0692,-1.0637,-1.0417,-1.0091,-0.9816,-0.9599,-0.9268,-0.8992,-0.8992,-0.8937,-0.8885,-0.8885,-0.8885,-0.8885,-0.8885,-0.8885,-0.8885,-0.8885,-0.8885,-0.8885,-0.8885,-0.8885,-0.8885,-0.8885,-0.8885,-0.8885,-0.8885,-0.8885,-0.8885,-0.8885,-0.8885,-0.8885,-0.8885,-0.8885,-0.8885,-0.8885,-0.8885,-0.8885,-0.8885,-0.8885,-0.8885,-0.8885,-0.8885,-0.8885,-0.8885,-0.8885,-0.8885,-0.8885,-0.8885,-0.8885,-0.8885,-0.8885,-0.8885,-0.8885,-0.8885,-0.8885,-0.8885,-0.8885,-0.8885,-0.8885,-0.8885,-0.8885,-0.8885,-0.8885,-0.8885,-0.8826,-0.8598,-0.8322,-0.7989,-0.7715,-0.7435,-0.7265,-0.721,-0.721,-0.721,-0.721,-0.721,-0.721,-0.721,-0.721,-0.721,-0.721,-0.721,-0.721,-0.721,-0.721,-0.721,-0.721,-0.721,-0.721,-0.721,-0.721,-0.721,-0.721,-0.6652,-0.5365,-0.358,-0.3022,-0.1735,0.0,0.0,0.0,0.0,0.0,0.0,0.0,0.0,0.0,0.0,-1.2738,-1.1932,-1.1341,-1.0798,-1.0692,-1.0692,-1.0692,-1.0582,-1.0472,-1.0312,-0.9871,-0.9544,-0.9434,-0.9103,-0.8885,-0.8885,-0.8885,-0.8885,-0.8885,-0.8885,-0.8885,-0.8885,-0.8885,-0.8885,-0.8885,-0.8885,-0.8885,-0.8885,-0.8885,-0.8885,-0.8885,-0.8885,-0.8885,-0.8885,-0.8885,-0.8885,-0.8885,-0.8885,-0.8885,-0.8885,-0.8885,-0.8885,-0.8885,-0.8885,-0.8885,-0.8885,-0.8885,-0.8885,-0.8885,-0.8885,-0.8885,-0.8885,-0.8885,-0.8885,-0.8885,-0.8885,-0.8885,-0.8885,-0.8885,-0.8885,-0.8885,-0.8885,-0.8885,-0.8885,-0.8885,-0.8885,-0.8885,-0.8885,-0.8885,-0.8885,-0.8885,-0.8885,-0.8826,-0.854,-0.8211,-0.7878,-0.7662,-0.7379,-0.721,-0.721,-0.721,-0.721,-0.721,-0.721,-0.721,-0.721,-0.721,-0.721,-0.721,-0.721,-0.721,-0.721,-0.721,-0.721,-0.721,-0.721,-0.721,-0.721,-0.721,-0.721,-0.7154,-0.6596,-0.5648,-0.4419,-0.3245,-0.2015,-0.084,-0.0224,0.0,0.0,0.0,0.0,0.0,0.0,0.0,0.0,-1.3383,-1.2684,-1.2091,-1.1177,-1.0798,-1.0637,-1.0637,-1.0363,-1.0202,-1.0147,-0.9706,-0.9379,-0.9323,-0.9051,-0.8885,-0.8885,-0.8885,-0.8885,-0.8885,-0.8885,-0.8885,-0.8885,-0.8885,-0.8885,-0.8885,-0.8885,-0.8885,-0.8885,-0.8885,-0.8885,-0.8885,-0.8885,-0.8885,-0.8885,-0.8885,-0.8885,-0.8885,-0.8885,-0.8885,-0.8885,-0.8885,-0.8885,-0.8885,-0.8885,-0.8885,-0.8885,-0.8885,-0.8885,-0.8885,-0.8885,-0.8885,-0.8885,-0.8885,-0.8885,-0.8885,-0.8885,-0.8885,-0.8885,-0.8885,-0.8885,-0.8885,-0.8885,-0.8885,-0.8885,-0.8885,-0.8885,-0.8885,-0.8885,-0.8885,-0.8885,-0.8885,-0.8881,-0.8712,-0.8488,-0.8156,-0.7826,-0.7549,-0.7324,-0.721,-0.721,-0.721,-0.721,-0.721,-0.721,-0.721,-0.721,-0.721,-0.721,-0.721,-0.721,-0.721,-0.721,-0.721,-0.721,-0.721,-0.721,-0.721,-0.721,-0.721,-0.721,-0.7154,-0.6151,-0.5594,-0.526,-0.3078,-0.2015,-0.168,-0.0504,0.0,0.0,0.0,0.0,0.0,0.0,0.0,0.0,-1.5482,-1.3814,-1.2358,-1.22,-1.1177,-1.0366,-1.0366,-1.0091,-0.9761,-0.9544,-0.9434,-0.9268,-0.8992,-0.8937,-0.8885,-0.8885,-0.8885,-0.8885,-0.8885,-0.8885,-0.8885,-0.8885,-0.8885,-0.8885,-0.8885,-0.8885,-0.8885,-0.8885,-0.8885,-0.8885,-0.8885,-0.8885,-0.8885,-0.8885,-0.8885,-0.8885,-0.8885,-0.8885,-0.8885,-0.8885,-0.8885,-0.8885,-0.8885,-0.8885,-0.8885,-0.8885,-0.8885,-0.8885,-0.8885,-0.8885,-0.8885,-0.8885,-0.8885,-0.8885,-0.8885,-0.8885,-0.8885,-0.8885,-0.8885,-0.8885,-0.8885,-0.8885,-0.8885,-0.8885,-0.8885,-0.8885,-0.8885,-0.8885,-0.8885,-0.8885,-0.8885,-0.8712,-0.8432,-0.81,-0.7826,-0.7549,-0.7268,-0.721,-0.721,-0.721,-0.721,-0.721,-0.721,-0.721,-0.721,-0.721,-0.721,-0.721,-0.721,-0.721,-0.721,-0.721,-0.721,-0.721,-0.721,-0.721,-0.721,-0.721,-0.721,-0.721,-0.721,-0.7043,-0.6374,-0.5314,-0.3971,-0.2742,-0.168,-0.0504,0.0,0.0,0.0,0.0,0.0,0.0,0.0,0.0,-1.6021,-1.5055,-1.4083,-1.3285,-1.2096,-1.1177,-1.1076,-1.0202,-0.9544,-0.9434,-0.9213,-0.9047,-0.894,-0.8885,-0.8885,-0.8885,-0.8885,-0.8885,-0.8885,-0.8885,-0.8885,-0.8885,-0.8885,-0.8885,-0.8885,-0.8885,-0.8885,-0.8885,-0.8885,-0.8885,-0.8885,-0.8885,-0.8885,-0.8885,-0.8885,-0.8885,-0.8885,-0.8885,-0.8885,-0.8885,-0.8885,-0.8885,-0.8885,-0.8885,-0.8885,-0.8885,-0.8885,-0.8885,-0.8885,-0.8885,-0.8885,-0.8885,-0.8885,-0.8885,-0.8885,-0.8885,-0.8885,-0.8885,-0.8885,-0.8885,-0.8885,-0.8885,-0.8885,-0.8885,-0.8885,-0.8885,-0.8885,-0.8885,-0.8885,-0.8885,-0.8885,-0.8826,-0.8546,-0.81,-0.7878,-0.766,-0.7265,-0.721,-0.721,-0.721,-0.721,-0.721,-0.721,-0.721,-0.721,-0.721,-0.721,-0.721,-0.721,-0.721,-0.721,-0.721,-0.721,-0.721,-0.721,-0.721,-0.721,-0.721,-0.721,-0.721,-0.721,-0.721,-0.6932,-0.6318,-0.5144,-0.3916,-0.2686,-0.1512,-0.062,0.0,0.0,0.0,0.0,0.0,0.0,0.0]},{"header":{"parameterUnit":"m.s-1","parameterCategory":1,"la1":30.6,"la2":28.766,"lo1":-90.7593,"lo2":-88.6598,"dy":0.0162,"dx":0.0183,"nx":116,"ny":114,"refTime":"2023-08-31T06:00:00:Z","depth":0,"parameterNumber":3,"parameterNumberName":"V-component_of_WINDS"},"data":[0.0,0.0,0.0,0.0,0.0,0.0,0.0,0.0,0.0,0.0,0.0,0.0,0.0,0.0,0.0,0.0,0.0,0.0,0.0,0.0,0.0,0.0,0.0,0.0,0.0,0.0,0.0,0.0,0.0,0.0,0.0,0.0,0.0,0.0,0.0,0.0,0.0,0.0,0.0,0.0,0.0,0.0,0.0,0.0,0.0,0.0,0.0,0.0,0.0,0.0,0.0,0.0,0.0,0.0,0.0,0.0,0.0,0.0,0.0,0.0,0.0,0.0,0.0,0.0,0.0,0.0,0.0,0.0,0.0,0.0,0.0,0.0,0.0,0.0,0.0,0.0,0.0,0.0,0.0,0.0,0.0,0.0,0.0,0.0,0.0,0.0,0.0,0.0,0.0,0.0,0.0,0.0,0.0,0.0,0.0,0.0,0.0,0.0,0.0,0.0,0.0,0.0,0.0,0.0,0.0,0.0,0.0,0.0,0.0,0.0,0.0,0.0,0.0,0.0,0.0,0.0,0.0,0.0,0.0,0.0,0.0,0.0,0.0,0.0,0.0,0.0,0.0,0.0,0.0,0.0,0.0,0.0,0.0,0.0,0.0,0.0,0.0,0.0,0.0,0.0,0.0,0.0,0.0,0.0,0.0,0.0,0.0,0.0,0.0,0.0,0.0,0.0,0.0,0.0,0.0,0.0,0.0,0.0,0.0,0.0,0.0,0.0,0.0,0.0,0.0,0.0,0.0,0.0,0.0,0.0,0.0,0.0,0.0,0.0,0.0,0.0,0.0,0.0,0.0,0.0,0.0,0.0,0.0,0.0,0.0,0.0,0.0,0.0,0.0,0.0,0.0,0.0,0.0,0.0,0.0,0.0,0.0,0.0,0.0,0.0,0.0,0.0,0.0,0.0,0.0,0.0,0.0,0.0,0.0,0.0,0.0,0.0,0.0,0.0,0.0,0.0,0.0,0.0,0.0,0.0,0.0,0.0,0.0,0.0,0.0,0.0,0.0,0.0,0.0,0.0,0.0,0.0,0.0,0.0,0.0,0.0,0.0,0.0,0.0,0.0,0.0,0.0,0.0,0.0,0.0,0.0,0.0,0.0,0.0,0.0,0.0,0.0,0.0,0.0,0.0,0.0,0.0,0.0,0.0,0.0,0.0,0.0,0.0,0.0,0.0,0.0,0.0,0.0,0.0,0.0,0.0,0.0,0.0,0.0,0.0,0.0,0.0,0.0,0.0,0.0,0.0,0.0,0.0,0.0,0.0,0.0,0.0,0.0,0.0,0.0,0.0,0.0,0.0,0.0,0.0,0.0,0.0,0.0,0.0,0.0,0.0,0.0,0.0,0.0,0.0,0.0,0.0,0.0,0.0,0.0,0.0,0.0,0.0,0.0,0.0,0.0,0.0,0.0,0.0,0.0,0.0,0.0,0.0,0.0,0.0,0.0,0.0,0.0,0.0,0.0,0.0,0.0,0.0,0.0,0.0,0.0,0.0,0.0,0.0,0.0,0.0,0.0,0.0,0.0,0.0,0.0,0.0,0.0,0.0,0.0,0.0,0.0,0.0,0.0,0.0,0.0,0.0,0.0,0.0,0.0,0.0,0.0,0.0,0.0,0.0,0.0,0.0,0.0,0.0,0.0,0.0,0.0,0.0,0.0,0.0,0.0,0.0,0.0,0.0,0.0,0.0,0.0,0.0,0.0,0.0,0.0,0.0,0.0,0.0,0.0,0.0,0.0,0.0,0.0,0.0,0.0,0.0,0.0,0.0,0.0,0.0,0.0,0.0,0.0,0.0,0.0,0.0,0.0,0.0,0.0,0.0,0.0,0.0,0.0,0.0,0.0,0.0,0.0,0.0,0.0,0.0,0.0,0.0,0.0,0.0,0.0,0.0,0.0,0.0,0.0,0.0,0.0,0.0,0.0,0.0,0.0,0.0,0.0,0.0,0.0,0.0,0.0,0.0,0.0,0.0,0.0,0.0,0.0,0.0,0.0,0.0,0.0,0.0,0.0,0.0,0.0,0.0,0.0,0.0,0.0,0.0,0.0,0.0,0.0,0.0,0.0,0.0,0.0,0.0,0.0,0.0,0.0,0.0,0.0,0.0,0.0,0.0,0.0,0.0,0.0,0.0,0.0,0.0,0.0,0.0,0.0,0.0,0.0,0.0,0.0,0.0,0.0,0.0,0.0,0.0,0.0,0.0,0.0,0.0,0.0,0.0,0.0,0.0,0.0,0.0,0.0,0.0,0.0,0.0,0.0,0.0,0.0,0.0,0.0,0.0,0.0,0.0,0.0,0.0,0.0,0.0,0.0,0.0,0.0,0.0,0.0,0.0,0.0,0.0,0.0,0.0,0.0,0.0,0.0,0.0,0.0,0.0,0.0,0.0,0.0,0.0,0.0,0.0,0.0,0.0,0.0,0.0,0.0,0.0,0.0,0.0,0.0,0.0,0.0,0.0,0.0,0.0,0.0,0.0,0.0,0.0,0.0,0.0,0.0,0.0,0.0,0.0,0.0,0.0,0.0,0.0,0.0,0.0,0.0,0.0,0.0,0.0,0.0,0.0,0.0,0.0,0.0,0.0,0.0,0.0,0.0,0.0,0.0,0.0,0.0,0.0,0.0,0.0,0.0,0.0,0.0,0.0,0.0,0.0,0.0,0.0,0.0,0.0,0.0,0.0,0.0,0.0,0.0,0.0,0.0,0.0,0.0,0.0,0.0,0.0,0.0,0.0,0.0,0.0,0.0,0.0,0.0,0.0,0.0,0.0,0.0,0.0,0.0,0.0,0.0,0.0,0.0,0.0,0.0,0.0,0.0,0.0,0.0,0.0,0.0,0.0,0.0,0.0,0.0,0.0,0.0,0.0,0.0,0.0,0.0,0.0,0.0,0.0,0.0,0.0,0.0,0.0,0.0,0.0,0.0,0.0,0.0,0.0,0.0,0.0,0.0,0.0,0.0,0.0,0.0,0.0,0.0,0.0,0.0,0.0,0.0,0.0,0.0,0.0,0.0,0.0,0.0,0.0,0.0,0.0,0.0,0.0,0.0,0.0,0.0,0.0,0.0,0.0,0.0,0.0,0.0,0.0,0.0,0.0,0.0,0.0,0.0,0.0,0.0,0.0,0.0,0.0,0.0,0.0,0.0,0.0,0.0,0.0,0.0,0.0,0.0,0.0,0.0,0.0,0.0,0.0,0.0,0.0,0.0,0.0,0.0,0.0,0.0,0.0,0.0,0.0,0.0,0.0,0.0,0.0,0.0,0.0,0.0,0.0,0.0,0.0,0.0,0.0,0.0,0.0,0.0,0.0,0.0,0.0,0.0,0.0,0.0,0.0,0.0,0.0,0.0,0.0,0.0,0.0,0.0,0.0,0.0,0.0,0.0,0.0,0.0,0.0,0.0,0.0,0.0,0.0,0.0,0.0,0.0,0.0,0.0,0.0,0.0,0.0,0.0,0.0,0.0,0.0,0.0,0.0,0.0,0.0,0.0,0.0,0.0,0.0,0.0,0.0,0.0,0.0,0.0,0.0,0.0,0.0,0.0,0.0,0.0,0.0,0.0,0.0,0.0,0.0,0.0,0.0,0.0,0.0,0.0,0.0,0.0,0.0,0.0,0.0,0.0,0.0,0.0,0.0,0.0,0.0,0.0,0.0,0.0,0.0,0.0,0.0,0.0,0.0,0.0,0.0,0.0,0.0,0.0,0.0,0.0,0.0,0.0,0.0,0.0,0.0,0.0,0.0,0.0,0.0,0.0,0.0,0.0,0.0,0.0,0.0,0.0,0.0,0.0,0.0,0.0,0.0,0.0,0.0,0.0,0.0,0.0,0.0,0.0,0.0,0.0,0.0,0.0,0.0,0.0,0.0,0.0,0.0,0.0,0.0,0.0,0.0,0.0,0.0,0.0,0.0,0.0,0.0,0.0,0.0,0.0,0.0,0.0,0.0,0.0,0.0,0.0,0.0,0.0,0.0,0.0,0.0,0.0,0.0,0.0,0.0,0.0,0.0,0.0,0.0,0.0,0.0,0.0,0.0,0.0,0.0,0.0,0.0,0.0,0.0,0.0,0.0,0.0,0.0,0.0,0.0,0.0,0.0,0.0,0.0,0.0,0.0,0.0,0.0,0.0,0.0,0.0,0.0,0.0,0.0,0.0,0.0,0.0,0.0,0.0,0.0,0.0,0.0,0.0,0.0,0.0,0.0,0.0,0.0,0.0,0.0,0.0,0.0,0.0,0.0,0.0,0.0,0.0,0.0,0.0,0.0,0.0,0.0,0.0,0.0,0.0,0.0,0.0,0.0,0.0,0.0,0.0,0.0,0.0,0.0,0.0,0.0,0.0,0.0,0.0,0.0,0.0,0.0,0.0,0.0,0.0,0.0,0.0,0.0,0.0,0.0,0.0,0.0,0.0,0.0,0.0,0.0,0.0,0.0,0.0,0.0,0.0,0.0,0.0,0.0,0.0,0.0,0.0,0.0,0.0,0.0,0.0,0.0,0.0,0.0,0.0,0.0,0.0,0.0,0.0,0.0,0.0,0.0,0.0,0.0,0.0,0.0,0.0,0.0,0.0,0.0,0.0,0.0,0.0,0.0,0.0,0.0,0.0,0.0,0.0,0.0,0.0,0.0,0.0,0.0,0.0,0.0,0.0,0.0,0.0,0.0,0.0,0.0,0.0,0.0,0.0,0.0,0.0,0.0,0.0,0.0,0.0,0.0,0.0,0.0,0.0,0.0,0.0,0.0,0.0,0.0,0.0,0.0,0.0,0.0,0.0,0.0,0.0,0.0,0.0,0.0,0.0,0.0,0.0,0.0,0.0,0.0,0.0,0.0,0.0,0.0,0.0,0.0,0.0,0.0,0.0,0.0,0.0,0.0,0.0,0.0,0.0,0.0,0.0,0.0,0.0,0.0,0.0,0.0,0.0,0.0,0.0,0.0,0.0,0.0,0.0,0.0,0.0,0.0,0.0,0.0,0.0,0.0,0.0,0.0,0.0,0.0,0.0,0.0,0.0,0.0,0.0,0.0,0.0,0.0,0.0,0.0,0.0,0.0,0.0,0.0,0.0,0.0,0.0,0.0,0.0,0.0,0.0,0.0,0.0,0.0,0.0,0.0,0.0,0.0,0.0,0.0,0.0,0.0,0.0,0.0,0.0,0.0,0.0,0.0,0.0,0.0,0.0,0.0,0.0,0.0,0.0,0.0,0.0,0.0,0.0,0.0,0.0,0.0,0.0,0.0,0.0,0.0,0.0,0.0,0.0,0.0,0.0,0.0,0.0,0.0,0.0,0.0,0.0,0.0,0.0,0.0,0.0,0.0,0.0,0.0,0.0,0.0,0.0,0.0,0.0,0.0,0.0,0.0,0.0,0.0,0.0,0.0,0.0,0.0,0.0,0.0,0.0,0.0,0.0,0.0,0.0,0.0,0.0,0.0,0.0,0.0,0.0,0.0,0.0,0.0,0.0,0.0,0.0,0.0,0.0,0.0,0.0,0.0,0.0,0.0,0.0,0.0,0.0,0.0,0.0,0.0,0.0,0.0,0.0,0.0,0.0,0.0,0.0,0.0,0.0,0.0,0.0,0.0,0.0,0.0,0.0,0.0,0.0,0.0,0.0,0.0,0.0,0.0,0.0,0.0,0.0,0.0,0.0,0.0,0.0,0.0,0.0,0.0,0.0,0.0,0.0,0.0,0.0,0.0,0.0,0.0,0.0,0.0,0.0,0.0,0.0,0.0,0.0,0.0,0.0,0.0,0.0,0.0,0.0,0.0,0.0,0.0,0.0,0.0,0.0,0.0,0.0,0.0,0.0,0.0,0.0,0.0,0.0,0.0,0.0,0.0,0.0,0.0,0.0,0.0,0.0,0.0,0.0,0.0,0.0,0.0,0.0,0.0,0.0,0.0,0.0,0.0,0.0,0.0,0.0,0.0,0.0,0.0,0.0,0.0,0.0,0.0,0.0,0.0,0.0,0.0,0.0,0.0,0.0,0.0,0.0,0.0,0.0,0.0,0.0,0.0,0.0,0.0,0.0,0.0,0.0,0.0,0.0,0.0,0.0,0.0,0.0,0.0,0.0,0.0,0.0,0.0,0.0,0.0,0.0,0.0,0.0,4.1965,0.0,0.0,0.0,0.0,0.0,0.0,0.0,0.0,0.0,0.0,0.0,0.0,0.0,0.0,0.0,0.0,0.0,0.0,0.0,0.0,0.0,0.0,0.0,0.0,0.0,0.0,0.0,0.0,0.0,0.0,0.0,0.0,0.0,0.0,0.0,0.0,0.0,0.0,4.2506,4.2506,4.2506,4.2506,4.1981,4.1346,4.0638,0.0,0.0,0.0,0.0,0.0,0.0,0.0,0.0,0.0,0.0,0.0,0.0,0.0,0.0,0.0,0.0,0.0,0.0,0.0,0.0,0.0,0.0,0.0,0.0,0.0,0.0,0.0,0.0,0.0,0.0,0.0,0.0,0.0,0.0,0.0,0.0,0.0,0.0,0.0,0.0,0.0,0.0,0.0,0.0,0.0,0.0,0.0,0.0,0.0,0.0,0.0,0.0,0.0,0.0,0.0,0.0,0.0,0.0,0.0,0.0,0.0,0.0,0.0,0.0,0.0,0.0,0.0,0.0,0.0,0.0,0.0,4.2158,0.0,0.0,0.0,0.0,0.0,0.0,0.0,0.0,0.0,0.0,0.0,0.0,0.0,0.0,0.0,0.0,0.0,0.0,0.0,0.0,0.0,0.0,0.0,4.5648,4.4418,4.4435,4.439,4.4406,0.0,0.0,0.0,0.0,0.0,0.0,4.3927,4.3927,4.3852,4.3687,4.3687,4.3687,4.3687,4.3127,4.2538,4.1933,4.1656,0.0,0.0,0.0,0.0,0.0,0.0,0.0,0.0,0.0,0.0,0.0,0.0,0.0,0.0,0.0,0.0,0.0,0.0,0.0,0.0,0.0,0.0,0.0,0.0,0.0,0.0,0.0,0.0,0.0,0.0,0.0,0.0,0.0,0.0,0.0,0.0,0.0,0.0,0.0,0.0,0.0,0.0,0.0,0.0,0.0,0.0,0.0,0.0,0.0,0.0,0.0,0.0,0.0,0.0,0.0,0.0,0.0,0.0,0.0,0.0,0.0,0.0,0.0,4.4573,4.4834,4.4801,4.4195,4.4123,4.4486,4.3567,4.3164,4.3096,0.0,0.0,0.0,0.0,0.0,0.0,0.0,0.0,0.0,0.0,0.0,0.0,0.0,0.0,0.0,0.0,0.0,0.0,0.0,0.0,0.0,0.0,4.6801,4.5775,4.5673,4.5648,4.5597,4.5511,0.0,0.0,0.0,0.0,0.0,4.4068,4.4068,4.4068,4.4039,4.4039,4.4039,4.4039,4.3935,4.3848,4.3684,4.2173,4.1492,4.1444,0.0,0.0,0.0,0.0,0.0,0.0,0.0,0.0,0.0,0.0,0.0,0.0,0.0,0.0,0.0,0.0,0.0,0.0,0.0,0.0,0.0,0.0,0.0,0.0,0.0,0.0,0.0,0.0,0.0,0.0,0.0,0.0,0.0,0.0,0.0,0.0,0.0,0.0,0.0,0.0,0.0,4.401,4.3906,0.0,0.0,0.0,0.0,0.0,0.0,0.0,0.0,0.0,0.0,0.0,0.0,0.0,4.474,4.5251,4.4922,4.497,4.5361,4.5038,4.4896,4.4879,4.4777,4.5145,4.583,4.5699,0.0,4.3157,4.3814,0.0,0.0,0.0,0.0,0.0,0.0,0.0,0.0,0.0,0.0,0.0,0.0,0.0,0.0,0.0,0.0,0.0,0.0,0.0,0.0,0.0,4.7121,4.6233,4.6185,4.6185,4.6161,4.6112,4.5833,0.0,0.0,0.0,4.5188,4.5108,4.5108,4.5081,4.5001,4.5001,4.5001,4.5001,4.5001,4.4828,4.453,4.3744,4.324,4.2972,4.2972,0.0,0.0,0.0,0.0,0.0,0.0,0.0,0.0,0.0,0.0,0.0,0.0,0.0,0.0,0.0,0.0,0.0,0.0,0.0,0.0,0.0,0.0,0.0,0.0,0.0,0.0,0.0,0.0,0.0,0.0,0.0,0.0,0.0,0.0,0.0,0.0,0.0,0.0,0.0,4.4105,4.4231,4.3848,4.4105,4.4133,0.0,0.0,0.0,0.0,0.0,0.0,0.0,0.0,0.0,4.5059,4.4912,4.4934,4.5168,4.5402,4.5682,4.6058,4.6244,4.6416,4.651,4.614,4.6167,4.6477,4.6063,4.5373,4.4601,4.5094,4.5196,4.5015,0.0,0.0,0.0,0.0,4.5081,4.5188,0.0,0.0,0.0,0.0,0.0,0.0,0.0,0.0,0.0,0.0,0.0,0.0,4.8825,4.7742,4.7068,4.7068,4.6994,4.6945,4.6945,4.6682,4.6531,4.6531,4.6299,4.613,4.6032,4.6,4.595,4.585,4.5825,4.58,4.58,4.58,4.5588,4.5214,4.5214,4.4801,4.4097,4.4097,4.4056,4.3956,0.0,0.0,0.0,0.0,0.0,0.0,0.0,0.0,0.0,0.0,0.0,0.0,0.0,0.0,0.0,0.0,0.0,0.0,0.0,0.0,0.0,0.0,0.0,0.0,0.0,0.0,0.0,0.0,0.0,0.0,0.0,0.0,0.0,0.0,0.0,0.0,0.0,4.4299,4.4462,4.3818,4.4451,4.4667,0.0,0.0,0.0,0.0,0.0,0.0,4.5983,4.6182,4.6285,4.6285,4.5863,4.5728,4.5836,4.6188,4.6539,4.6856,4.7212,4.7448,4.7569,4.7078,4.6938,4.7095,4.656,4.642,4.6605,4.6282,4.6209,4.6281,4.5988,4.5813,4.5734,4.6052,4.6025,4.59,0.0,0.0,0.0,0.0,0.0,0.0,0.0,0.0,0.0,0.0,0.0,5.0542,4.9712,4.9172,4.8876,4.8876,4.8584,4.8384,4.8384,4.7622,4.7132,4.7132,4.6664,4.6383,4.6383,4.6299,4.6286,4.6286,4.6123,4.6074,4.6074,4.6074,4.6067,4.6024,4.6024,4.5303,4.4097,4.4097,4.4097,4.4068,4.3956,0.0,0.0,0.0,0.0,0.0,0.0,0.0,0.0,0.0,0.0,0.0,0.0,0.0,0.0,0.0,0.0,0.0,0.0,0.0,0.0,0.0,0.0,0.0,0.0,0.0,0.0,0.0,0.0,0.0,0.0,0.0,0.0,0.0,0.0,0.0,0.0,0.0,0.0,4.4138,4.5135,0.0,0.0,0.0,0.0,4.5622,4.5674,4.5717,4.5717,4.6378,4.6778,4.6778,4.735,4.7901,4.8405,4.7701,4.7565,4.8004,4.7333,4.7036,4.7041,4.7005,4.7356,4.8028,4.7992,4.8425,4.8971,4.7077,4.607,4.5863,4.6966,4.6715,4.5854,4.6991,4.692,4.6352,0.0,0.0,0.0,0.0,0.0,0.0,0.0,0.0,5.2716,5.1897,5.113,5.0342,4.9519,4.9295,4.9206,4.9206,4.9094,4.9013,4.9013,4.8671,4.8384,4.8177,4.7907,4.7645,4.7424,4.7399,4.7399,4.7399,4.7356,4.7335,4.7335,4.7284,4.7084,4.673,4.666,4.6165,4.5355,4.5028,4.4828,4.4708,4.4338,4.4126,0.0,0.0,0.0,0.0,0.0,0.0,0.0,0.0,0.0,0.0,0.0,0.0,0.0,0.0,0.0,0.0,0.0,0.0,0.0,0.0,0.0,0.0,0.0,0.0,0.0,0.0,0.0,0.0,0.0,0.0,0.0,0.0,0.0,0.0,0.0,0.0,0.0,4.5197,4.5875,0.0,4.5485,4.5665,4.59,4.6074,4.6639,4.7061,4.725,4.7497,4.7639,4.7639,4.7402,4.7369,4.7571,4.7305,4.7285,4.7577,4.7313,4.7276,4.7443,4.7443,4.7587,4.7839,4.7839,4.8019,4.8195,4.7509,4.7321,4.7494,4.7403,4.7204,4.7053,4.7474,4.7447,4.7214,0.0,0.0,0.0,0.0,0.0,0.0,0.0,0.0,5.2785,5.1973,5.1205,5.0432,4.9631,4.9641,4.9711,4.9711,4.9584,4.9493,4.9493,4.9333,4.9132,4.89,4.8813,4.8674,4.844,4.8403,4.8346,4.8249,4.8449,4.8535,4.8393,4.8366,4.8161,4.7789,4.7435,4.7049,4.6683,4.6123,4.5742,4.5407,4.5001,4.4801,4.4763,0.0,0.0,0.0,0.0,0.0,0.0,0.0,0.0,0.0,0.0,0.0,0.0,0.0,0.0,0.0,0.0,0.0,0.0,0.0,0.0,0.0,0.0,0.0,0.0,0.0,0.0,0.0,0.0,0.0,0.0,0.0,0.0,0.0,0.0,0.0,4.6454,4.5775,4.6478,4.6776,4.6098,4.6334,4.659,4.6753,4.7339,4.7775,4.7953,4.7976,4.7976,4.7976,4.7474,4.7245,4.7245,4.7245,4.7294,4.7428,4.7428,4.7533,4.7717,4.7717,4.7717,4.7717,4.7717,4.7717,4.7717,4.7717,4.7919,4.8199,4.7951,4.7767,4.7735,4.7986,4.7913,4.7699,0.0,0.0,0.0,0.0,0.0,0.0,0.0,5.3783,5.2899,5.2119,5.1518,5.0875,5.0114,5.031,5.05,5.05,5.013,4.9923,4.9923,4.9556,4.9329,4.9314,4.9299,4.9299,4.9299,4.9243,4.9052,4.8712,4.9362,4.9525,4.92,4.9179,4.9179,4.9143,4.8338,4.7949,4.7861,4.7363,4.6753,4.6147,4.5975,4.5975,4.6024,0.0,0.0,0.0,0.0,0.0,0.0,0.0,0.0,0.0,0.0,0.0,0.0,0.0,0.0,0.0,0.0,0.0,0.0,0.0,0.0,0.0,0.0,0.0,0.0,0.0,0.0,0.0,0.0,0.0,0.0,0.0,0.0,0.0,4.5968,4.6334,4.6478,4.5825,4.6908,4.7428,4.6776,4.7302,4.7717,4.7717,4.7717,4.7717,4.7717,4.7717,4.7717,4.7717,4.7717,4.7717,4.7717,4.7717,4.7717,4.7717,4.7717,4.7717,4.7717,4.7717,4.7699,4.7699,4.7699,4.772,4.772,4.772,4.772,4.7793,4.8568,4.8405,4.7808,4.8608,4.8409,4.7762,0.0,0.0,0.0,0.0,0.0,0.0,0.0,5.3983,5.299,5.2754,5.1541,5.0612,5.0393,5.0448,5.05,5.05,5.0385,5.034,5.034,5.0221,5.0062,4.9819,4.9537,4.9375,4.9375,4.9317,4.9224,4.9145,4.9319,4.9365,4.9284,4.8973,4.8846,4.8809,4.8262,4.7992,4.797,4.7829,4.7648,4.7399,4.6436,4.6067,4.6074,0.0,0.0,0.0,0.0,0.0,0.0,0.0,0.0,0.0,0.0,0.0,0.0,0.0,0.0,0.0,0.0,0.0,0.0,0.0,0.0,0.0,0.0,0.0,0.0,0.0,0.0,0.0,0.0,0.0,0.0,0.0,0.0,4.7554,4.7214,4.7302,4.7363,4.7151,4.749,4.7636,4.7428,4.7593,4.7717,4.7717,4.7717,4.7717,4.7717,4.7717,4.7717,4.7717,4.7717,4.7717,4.7717,4.7717,4.7717,4.7717,4.7717,4.7717,4.7717,4.7717,4.7806,4.7994,4.7994,4.8132,4.8345,4.8345,4.8345,4.8363,4.8331,4.8176,4.8052,4.8506,4.8547,4.8364,0.0,0.0,0.0,0.0,0.0,0.0,0.0,5.3953,5.3089,5.3089,5.1629,5.0708,5.1053,5.0785,5.0573,5.0573,5.0553,5.0532,5.0532,5.0511,5.0407,5.0233,5.0,4.9865,4.9865,4.9806,4.9738,4.9594,4.991,4.9973,4.9837,4.9587,4.9455,4.942,4.8823,4.8458,4.8288,4.8288,4.8191,4.7951,4.7186,4.69,4.6878,4.6653,4.656,4.6537,4.6269,4.6196,4.6203,4.6123,0.0,0.0,0.0,0.0,0.0,0.0,0.0,0.0,0.0,0.0,0.0,0.0,0.0,0.0,0.0,0.0,0.0,0.0,0.0,0.0,0.0,0.0,0.0,0.0,4.8233,4.8194,4.8055,4.7847,4.7717,4.7717,4.7717,4.7717,4.7717,4.7717,4.7717,4.7717,4.7717,4.7717,4.7717,4.7717,4.7717,4.7717,4.7717,4.7717,4.7717,4.7806,4.787,4.787,4.8012,4.8072,4.8072,4.8072,4.8152,0.0,4.8307,4.8421,4.8605,4.8605,4.8605,0.0,0.0,0.0,0.0,0.0,4.8605,4.8623,0.0,0.0,0.0,0.0,0.0,0.0,0.0,5.3818,5.3241,5.3337,5.1799,5.1029,5.1828,5.1222,5.074,5.074,5.0673,5.0635,5.0624,5.0584,5.0534,5.0521,5.0511,5.0511,5.0511,5.0511,5.0344,5.0062,5.071,5.0878,5.0583,5.0481,5.0438,5.04,4.9652,4.9113,4.8782,4.8782,4.8513,4.8093,4.8093,4.8053,4.7933,4.7467,4.7281,4.7216,4.6694,4.6537,4.6548,4.6371,0.0,0.0,0.0,0.0,0.0,0.0,0.0,0.0,0.0,0.0,0.0,0.0,0.0,0.0,0.0,0.0,0.0,0.0,0.0,0.0,0.0,0.0,0.0,0.0,4.9011,4.8895,4.8603,4.8154,4.7827,4.772,4.7717,4.7717,4.7717,4.7717,4.7717,4.7717,4.7717,4.7699,4.7741,0.0,0.0,0.0,0.0,4.7804,4.7804,4.8034,4.8173,4.8173,4.8477,4.8623,4.8623,4.8641,4.8659,4.8695,4.8695,4.8713,4.8767,4.8767,4.8767,4.873,4.8695,4.8695,4.8731,4.873,4.8767,4.8783,0.0,0.0,0.0,0.0,0.0,0.0,0.0,5.4184,5.3453,5.4164,5.2269,5.1167,5.197,5.1392,5.0946,5.0946,5.092,5.0903,5.0858,5.0822,5.0773,5.0663,5.0613,5.0582,5.0582,5.0521,5.0459,5.0396,5.0558,5.0581,5.0505,5.0228,5.0066,4.9998,4.9569,4.9299,4.9193,4.9193,4.8965,4.864,4.864,4.8384,4.7992,4.7875,4.7852,4.7834,4.771,4.7671,4.7692,4.7669,4.7669,4.7689,4.7752,4.779,0.0,0.0,0.0,0.0,0.0,0.0,0.0,0.0,0.0,0.0,0.0,0.0,0.0,0.0,0.0,0.0,0.0,0.0,0.0,4.8994,4.9011,4.8978,4.8911,4.881,4.8531,4.7925,4.7759,4.7717,4.7717,4.7717,4.7717,4.7717,4.7717,4.7785,4.7995,4.8015,0.0,4.842,4.842,4.842,4.842,4.8476,4.8495,4.8514,0.0,0.0,4.8764,4.8881,4.9046,4.9237,4.9237,4.9397,4.965,4.965,4.965,4.9602,4.923,4.9252,4.9491,4.9607,4.965,4.9665,0.0,0.0,0.0,0.0,0.0,0.0,0.0,5.403,5.3368,5.388,5.2163,5.1227,5.2107,5.1483,5.1002,5.1002,5.1002,5.0997,5.0952,5.0945,5.0911,5.0848,5.0824,5.0789,5.0789,5.0726,5.071,5.071,5.0595,5.0542,5.0562,5.0344,5.0233,5.0197,5.0025,4.9832,4.965,4.9613,4.9424,4.9097,4.9064,4.8898,4.8603,4.8269,4.8151,4.8151,4.811,4.8111,4.8131,4.8032,4.8032,4.809,4.8012,4.7992,4.7992,0.0,0.0,0.0,0.0,0.0,0.0,0.0,0.0,0.0,0.0,0.0,0.0,0.0,0.0,4.9075,0.0,0.0,4.942,4.9627,4.9655,4.958,4.942,4.9375,4.9126,4.8513,4.8384,4.8365,4.8365,4.8365,4.8365,4.8365,4.8365,4.8403,4.8531,4.8549,4.8639,4.8797,4.8797,4.8797,4.8797,4.8934,4.9001,4.9001,4.9246,4.9358,4.934,4.9431,4.9516,4.9637,4.9637,4.9745,4.9912,4.9912,4.9912,4.9879,4.9717,4.9722,4.9802,4.9885,4.9912,4.9912,0.0,0.0,0.0,0.0,0.0,0.0,0.0,5.4032,5.3533,5.3619,5.2217,5.1496,5.2269,5.1583,5.1074,5.1074,5.1074,5.1063,5.1042,5.1042,5.1031,5.1002,5.1002,5.1002,5.1002,5.0958,5.092,5.092,5.0738,5.0664,5.0654,5.0573,5.0532,5.0521,5.0521,5.0355,5.0099,5.0038,4.9825,4.9522,4.9464,4.939,4.9252,4.871,4.8514,4.8495,4.8439,4.8458,4.8458,4.8231,4.8268,4.8383,4.821,4.8212,4.8232,4.8173,4.8172,0.0,0.0,0.0,0.0,0.0,0.0,0.0,0.0,0.0,4.9171,4.9234,4.9249,4.9375,4.9749,4.9817,4.9916,5.0248,5.0302,5.0212,4.9942,4.9844,4.9674,4.9295,4.9108,4.9011,4.9011,4.9011,4.9011,4.9011,4.9011,4.9027,4.9075,4.9075,4.9108,4.9174,4.9174,4.9174,4.9174,4.9394,4.9498,4.9498,4.9787,4.9952,4.9952,4.9978,4.9992,4.9992,5.0163,5.0314,5.0466,5.0466,5.0466,5.048,5.0583,5.0558,5.0428,5.0106,4.9992,4.9992,0.0,0.0,0.0,0.0,0.0,0.0,0.0,0.0,5.4525,5.4467,5.3203,5.2366,5.2464,5.1811,5.136,5.136,5.136,5.13,5.1191,5.1187,5.1128,5.1008,5.1002,5.1002,5.1002,5.099,5.0984,5.0984,5.092,5.0874,5.0855,5.074,5.0643,5.0593,5.0593,5.0532,5.0448,5.0438,5.0245,4.9924,4.9924,4.9706,4.939,4.9314,4.9237,4.9193,4.9193,4.9174,4.9145,4.8815,4.8934,4.9129,4.8797,4.8915,4.9094,4.8797,4.8711,4.8658,4.8345,4.8495,4.8917,4.9556,4.9498,4.942,0.0,0.0,4.9784,5.0088,5.0156,5.0169,5.0224,5.0236,5.0248,5.029,5.0302,5.029,5.0248,5.0236,5.0212,5.0156,4.9479,4.9011,4.9011,4.9011,4.9011,4.9011,4.9011,4.9108,4.9326,4.936,4.9483,4.9792,4.9792,4.9792,4.9792,4.9819,4.9833,4.9852,4.9999,5.0082,5.0082,5.0207,5.0255,5.0293,5.1075,5.1832,5.2481,5.2481,5.2481,5.2481,5.2494,5.2494,5.2309,5.0801,5.0255,5.0255,0.0,0.0,0.0,0.0,0.0,0.0,0.0,0.0,0.0,5.4761,5.3384,5.2446,5.26,5.1889,5.1394,5.1394,5.1394,5.1386,5.1325,5.1322,5.1291,5.1241,5.1222,5.1222,5.1222,5.1155,5.1123,5.1123,5.0972,5.0894,5.0887,5.0767,5.0692,5.0653,5.0653,5.0643,5.0623,5.0563,5.047,5.0344,5.031,5.0178,5.0038,5.0038,5.0025,4.9949,4.9464,4.9299,0.0,4.9145,4.9174,4.9287,4.9145,4.9193,4.9268,4.9129,4.9097,4.9097,4.9161,4.9271,4.9502,0.0,4.9981,4.9955,5.0236,5.0181,5.0132,5.0278,5.0302,5.0302,5.0302,5.0302,5.0302,0.0,5.0302,5.0302,5.0302,5.0302,5.0302,5.0302,4.9981,4.9757,4.9757,4.9757,4.9757,4.9757,4.9757,4.9798,4.991,4.9923,5.0,5.0126,5.0126,5.0126,5.0126,5.0126,5.0126,5.0145,5.0709,5.0963,5.0982,5.152,5.1754,5.1773,5.2136,5.248,5.2805,5.2805,5.2805,5.2805,5.2805,5.2805,5.2709,5.2002,5.1754,5.1697,0.0,0.0,0.0,0.0,0.0,0.0,0.0,0.0,0.0,0.0,5.3823,5.2971,5.2733,5.1921,5.1394,5.1394,5.1394,5.1394,5.1394,5.1394,5.1394,5.1394,5.1394,5.1394,5.1394,5.13,5.1255,5.1255,5.107,5.0958,5.0935,5.0808,5.074,5.0712,5.0712,5.0712,5.0702,5.0643,5.0623,5.0623,5.0563,5.0542,5.0521,5.0521,5.0511,5.0407,4.9851,4.9627,4.9584,4.9498,4.9512,4.9556,4.9468,4.9498,4.9556,4.9468,4.936,4.936,4.9716,4.9803,0.0,5.0224,5.0302,5.0302,5.0302,5.0302,5.0302,5.0302,5.0302,5.0378,5.0608,5.0665,5.0722,5.0951,5.099,5.099,5.099,5.099,5.099,5.099,5.099,5.099,5.099,5.0569,5.0302,5.0302,5.0302,5.0302,5.0302,5.0302,5.0417,5.0646,5.0665,5.0779,5.099,5.099,5.099,5.1009,5.1639,5.1926,5.1945,5.2537,5.2919,5.3148,5.3148,5.3282,5.3511,5.3511,5.3511,5.3511,5.3511,5.3511,5.3511,5.3511,5.3206,5.2709,0.0,0.0,0.0,0.0,0.0,0.0,0.0,0.0,0.0,0.0,0.0,0.0,0.0,5.1921,5.1394,5.1394,5.1394,5.1394,5.1394,5.1394,5.1394,5.1394,5.1394,5.1394,5.1394,5.1392,5.1392,5.1392,5.1255,5.1128,5.0996,5.0942,5.0816,5.0712,5.0712,5.0712,5.0712,5.0712,5.0702,5.0702,5.0683,5.0653,5.0593,5.0593,5.0562,5.05,5.0459,5.0416,5.0325,4.9993,5.0044,5.0212,4.9884,5.0012,5.0212,4.987,4.9556,4.936,4.9716,4.9803,4.987,5.0224,5.0302,5.0302,5.0302,5.0302,5.0302,5.0302,5.0302,5.0569,5.141,5.1551,5.183,5.2594,5.2709,5.2709,5.2709,5.2709,5.2709,5.2709,5.2709,5.2709,0.0,5.1257,5.0302,5.0302,5.0302,5.0302,5.0302,5.0302,5.0684,5.1544,5.1551,5.1945,5.2709,5.2709,5.2709,5.2709,5.2747,5.2747,5.2747,5.2785,5.3263,5.4065,5.4065,5.4543,5.5326,5.5326,5.5326,5.5326,5.5326,5.5326,5.5326,5.5326,5.4256,5.2805,0.0,0.0,0.0,0.0,0.0,0.0,0.0,0.0,0.0,0.0,0.0,0.0,0.0,0.0,0.0,0.0,5.1394,5.1394,5.1394,5.1394,5.1394,5.1394,5.1394,5.1394,5.1394,5.1394,5.1394,5.1394,5.1278,5.1187,5.1132,5.0972,5.0882,5.0836,5.073,5.0712,5.0712,5.0712,5.0712,5.0712,5.0712,5.0692,5.0682,5.0682,5.0653,5.0633,0.0,5.0553,5.0457,5.034,5.0352,5.0416,5.0287,5.034,5.0404,5.0306,5.0186,5.0118,5.0221,5.0264,5.0287,5.0404,5.0427,5.0427,5.0427,5.0412,5.0379,5.0379,5.0784,5.1257,5.1551,5.204,5.248,5.2747,5.2805,5.2805,5.2805,5.2805,5.2805,5.2805,5.2805,0.0,0.0,0.0,0.0,5.1964,5.1964,5.1964,5.1964,5.1964,5.2079,5.2384,5.2403,5.2518,5.2805,5.2805,5.2805,5.2805,5.3397,5.397,5.4524,5.4524,5.4696,5.4963,5.4963,5.5135,5.5403,5.5403,5.5403,5.5403,5.5403,5.5409,5.5409,5.5409,5.5113,5.4624,0.0,0.0,0.0,0.0,0.0,0.0,0.0,0.0,0.0,0.0,0.0,0.0,0.0,0.0,0.0,0.0,0.0,5.1394,5.1394,5.1394,5.1394,5.1394,5.1394,5.1394,5.1394,5.1394,5.1394,5.1394,5.1302,5.1248,5.1199,5.1023,5.0928,5.0887,5.0758,5.0712,5.0712,5.0712,5.0712,5.0712,5.0712,5.0712,5.0712,5.0712,5.0712,0.0,5.0712,5.0643,5.0563,5.0542,5.0521,5.05,5.05,5.05,5.05,5.05,5.05,5.05,5.05,5.05,5.05,5.05,5.05,5.05,5.05,5.0468,5.0435,5.0435,5.1079,5.1732,5.2007,5.2721,5.3359,5.3683,5.3722,5.3722,5.3722,5.3722,5.3722,5.3722,5.3722,5.3722,0.0,0.0,0.0,5.2843,5.2805,5.2805,5.2805,5.2805,5.2938,5.3244,5.3263,5.3416,5.3722,5.3722,5.3722,5.3741,5.4295,5.4868,5.5403,5.5409,5.539,5.5403,5.5428,5.5428,5.5428,5.5428,5.5428,5.5428,5.5428,5.5446,5.5425,5.5481,5.5579,5.5586,0.0,0.0,0.0,0.0,0.0,0.0,0.0,0.0,0.0,0.0,0.0,0.0,0.0,0.0,0.0,0.0,0.0,0.0,5.1394,5.1394,5.1394,5.1394,5.1394,5.1394,5.1394,5.1394,5.1394,5.1394,5.1392,5.1327,5.1199,5.1053,5.0966,5.0887,5.0758,5.0712,5.0712,5.0712,5.0712,5.0712,5.0712,5.0712,5.0712,5.0712,5.0712,5.0712,5.0712,5.0712,5.0683,5.0623,5.0553,5.0511,5.0511,5.0511,5.0511,5.0511,5.0511,5.0511,5.0511,5.0511,5.0511,5.0511,5.0511,5.0511,5.0511,5.0511,5.0511,5.0511,5.1185,5.2001,0.0,0.0,5.4441,5.5269,5.5403,5.5403,5.5403,5.5403,5.5403,0.0,0.0,0.0,0.0,0.0,0.0,5.3065,0.0,5.2919,5.2919,5.2919,5.3301,5.4142,5.418,5.4562,5.5403,5.5403,5.5403,5.5403,5.5403,5.5403,5.5416,5.5421,5.5408,5.5408,5.5468,5.5504,5.5504,5.5504,5.5504,5.5497,5.5497,5.5508,5.5535,5.5682,5.5721,5.573,0.0,0.0,0.0,0.0,0.0,0.0,0.0,0.0,0.0,0.0,0.0,0.0,0.0,0.0,0.0,0.0,0.0,0.0,5.1394,5.1394,5.1394,5.1394,5.1394,5.1394,5.1394,5.1394,5.1394,5.1394,5.1297,5.1222,5.1199,5.1011,5.0913,5.0887,5.0758,5.0712,5.0712,5.0712,5.0712,5.0712,5.0712,5.0712,5.0712,5.0712,5.0712,5.0712,5.0712,5.0712,5.0702,5.0673,5.0663,5.0653,5.0653,5.0653,5.0653,5.0653,5.0653,5.0653,5.0653,5.0653,5.0653,5.0653,5.0653,5.0653,5.0653,5.0613,5.0563,5.0563,5.1691,5.2721,0.0,0.0,0.0,5.5437,5.5476,0.0,5.5476,5.5476,0.0,5.5402,0.0,5.5451,5.5402,5.5439,0.0,0.0,5.4778,5.4734,5.4734,5.4734,5.4849,5.5059,5.5078,5.5193,5.5403,5.5396,5.5427,5.5476,5.5476,5.5476,5.5476,5.5468,5.548,5.548,5.5492,5.5504,5.5504,5.5504,5.555,5.5652,5.5652,5.573,5.5888,5.5916,5.6025,5.615,0.0,0.0,0.0,0.0,0.0,0.0,0.0,0.0,0.0,0.0,0.0,0.0,0.0,0.0,0.0,0.0,0.0,0.0,0.0,5.1218,5.1218,5.1218,5.1288,5.1302,5.1302,5.1364,5.1364,5.1302,5.1245,5.1163,5.1118,5.0965,5.0894,5.0887,5.0758,5.0712,5.0712,5.0712,5.0712,0.0,0.0,5.0712,5.0712,5.0712,5.0712,5.0712,5.0712,5.0712,5.0712,5.0712,5.0712,5.0712,5.0712,5.0712,5.0712,5.0712,5.0712,5.0712,5.0712,5.0712,5.0712,5.0712,5.0712,5.0712,5.0712,5.0663,5.0643,5.0643,5.161,0.0,5.2469,5.3828,0.0,0.0,0.0,0.0,5.5504,5.5504,5.5492,0.0,5.548,0.0,5.5456,5.548,5.5504,0.0,5.547,5.5453,5.5453,5.5453,5.5453,5.5453,5.5453,5.5453,5.5453,5.5451,5.5468,5.5504,5.5504,5.5504,5.5504,5.5527,5.5539,5.5551,0.0,5.5585,5.5596,5.5656,5.573,5.5787,5.5846,5.5932,5.6051,5.6115,5.6207,5.6316,0.0,0.0,0.0,0.0,0.0,0.0,0.0,0.0,0.0,0.0,0.0,0.0,0.0,0.0,0.0,0.0,0.0,0.0,0.0,0.0,5.1002,5.1002,5.1099,5.1163,5.1163,5.1291,5.1291,5.1163,5.1155,5.1103,5.0997,5.0913,5.0882,5.0874,5.0749,5.0712,5.0712,5.0712,5.0712,5.0712,5.0712,5.0712,5.0712,0.0,5.0712,5.0712,5.0712,5.0712,5.0712,5.0712,5.0712,5.0712,5.0712,5.0712,5.0712,5.0712,5.0712,5.0712,5.0712,5.0712,5.0712,5.0712,5.0712,5.0712,5.0712,5.0712,5.0712,5.0712,0.0,5.1804,5.1804,5.3105,5.4193,5.4319,0.0,5.5393,5.5508,5.5527,5.5527,5.5516,5.5527,5.5527,5.5516,5.5527,5.5527,5.5527,5.5527,5.5516,5.5504,5.5504,5.5504,5.5504,5.5504,5.5504,5.5516,5.5516,5.5516,5.5527,5.5527,5.5527,5.5527,5.5585,5.5607,5.5607,0.0,0.0,5.5705,5.5835,5.5904,5.5946,5.6071,5.6135,5.6183,5.6299,5.6348,5.6356,0.0,0.0,0.0,0.0,0.0,0.0,0.0,0.0,0.0,0.0,5.5665,5.5102,0.0,0.0,0.0,0.0,0.0,0.0,0.0,0.0,0.0,5.1002,5.1025,5.1036,5.1036,5.1058,5.1058,5.1036,5.0972,5.0942,5.0913,5.0793,5.0721,5.0721,5.0702,5.0712,5.0712,5.0712,5.0712,5.0712,5.0712,5.0712,5.0712,5.0712,0.0,0.0,5.0712,5.0712,5.0712,5.0712,5.0712,5.0712,5.0712,5.0712,5.0712,5.0712,5.0712,5.0712,5.0712,5.0712,5.0712,5.0712,5.0712,5.0712,5.0712,5.0712,0.0,0.0,5.1327,5.1875,5.1875,5.271,5.3633,5.4344,5.4575,5.4902,5.5575,5.5671,5.564,0.0,0.0,0.0,0.0,0.0,0.0,0.0,0.0,5.5607,5.5504,5.5504,5.5504,5.5504,5.5504,5.5527,5.5585,5.5585,5.5607,5.5671,5.5671,5.5671,5.5682,5.5682,5.5673,5.5673,5.5684,0.0,5.5705,5.5835,5.5978,5.6071,5.6202,5.6367,5.652,5.6531,5.6553,5.6555,0.0,0.0,0.0,0.0,0.0,0.0,0.0,5.5045,5.5185,5.5185,5.5437,5.4962,5.3292,5.3175,5.2541,0.0,0.0,0.0,0.0,0.0,0.0,0.0,5.0832,5.0911,5.0911,5.0959,5.0972,5.0939,0.0,5.0866,5.0793,5.074,5.0712,5.0712,5.0712,5.0712,5.0712,5.0712,5.0712,5.0712,5.0712,5.0712,5.0712,0.0,0.0,0.0,5.0712,5.0712,5.0712,5.0712,5.0712,5.0712,5.0712,5.0712,5.0712,5.0712,5.0712,5.0712,5.0712,5.0712,5.0712,5.0712,5.0712,5.0712,5.0712,0.0,0.0,0.0,5.101,5.1279,5.1279,5.1972,0.0,5.3683,5.4203,5.478,5.5588,5.5703,0.0,5.5671,0.0,0.0,0.0,0.0,0.0,0.0,0.0,5.5662,5.5607,5.5596,5.5596,5.5596,5.5596,5.5618,5.564,5.564,5.5682,5.5703,5.5703,5.5703,5.5703,5.5703,5.5703,5.5703,5.5703,0.0,5.5808,5.5954,5.6078,5.6227,5.6379,5.6525,5.6606,5.6606,5.6606,5.6606,0.0,0.0,0.0,0.0,0.0,0.0,0.0,5.4557,5.4773,5.4773,5.4966,5.4522,5.3011,5.2981,5.2384,0.0,0.0,0.0,0.0,0.0,0.0,0.0,0.0,0.0,0.0,0.0,0.0,5.0814,5.0814,0.0,0.0,0.0,0.0,0.0,5.0653,5.0614,5.0554,5.0633,5.0614,0.0,0.0,5.0702,0.0,0.0,0.0,0.0,0.0,5.0712,5.0712,5.0712,5.0712,5.0712,5.0712,5.0712,5.0712,5.0712,5.0712,5.0712,5.0712,5.0712,5.0712,5.0712,5.0712,5.0712,5.0712,5.0712,0.0,5.0712,5.0712,5.0712,5.0712,5.1221,5.1991,0.0,5.378,5.4568,5.5549,5.5703,5.5703,0.0,5.5703,0.0,0.0,0.0,0.0,0.0,0.0,0.0,5.5703,5.5703,5.5703,5.5703,5.5703,5.5703,5.5703,5.5703,5.5703,5.5703,5.5703,5.5703,5.5703,5.5703,5.5703,5.5703,5.5703,0.0,0.0,5.6037,5.6175,5.632,5.6528,5.6606,5.6606,5.6606,5.6606,5.6606,0.0,0.0,0.0,0.0,0.0,0.0,0.0,5.433,5.4347,5.4347,5.4012,5.3405,5.2461,5.2754,5.2332,0.0,0.0,0.0,0.0,0.0,0.0,0.0,0.0,0.0,0.0,0.0,0.0,5.0534,0.0,0.0,0.0,0.0,0.0,0.0,0.0,0.0,5.0068,5.0396,0.0,0.0,0.0,0.0,0.0,0.0,0.0,0.0,0.0,5.0712,5.0712,5.0712,5.0712,5.0712,5.0712,5.0712,5.0712,5.0712,0.0,0.0,5.0712,5.0712,5.0712,5.0712,5.0712,5.0712,5.0712,0.0,5.0712,5.0712,5.0712,5.0712,5.0712,5.077,5.1318,0.0,5.328,5.3876,5.5472,5.5703,5.5703,5.5703,0.0,0.0,0.0,0.0,0.0,0.0,0.0,0.0,5.5703,5.5703,5.5703,5.5703,5.5703,5.5703,5.5703,5.5703,5.5703,5.5703,5.5703,5.5703,5.5703,5.5703,5.5703,5.5703,5.5703,0.0,0.0,5.6037,5.6175,5.632,5.6528,5.6606,5.6606,5.6606,5.6606,5.6606,0.0,0.0,0.0,0.0,0.0,0.0,5.3621,5.3814,5.3757,5.3271,5.3264,5.2793,5.1417,5.1635,5.1459,5.0474,0.0,0.0,0.0,0.0,0.0,0.0,0.0,0.0,0.0,0.0,5.05,5.05,5.05,0.0,0.0,0.0,0.0,0.0,0.0,0.0,0.0,5.0062,0.0,0.0,0.0,0.0,0.0,0.0,0.0,0.0,0.0,0.0,5.0712,5.0712,5.0712,5.0712,5.0712,5.0712,5.0712,5.0712,5.0712,5.0712,5.0712,5.0712,5.0712,5.0712,5.0712,5.0712,5.0712,0.0,5.0712,5.0712,5.0712,5.0712,5.0712,5.0712,5.1068,5.2241,5.2856,5.3626,5.4799,5.5395,5.5703,5.5703,0.0,0.0,0.0,0.0,0.0,0.0,0.0,0.0,5.5703,5.5703,5.5703,5.5703,5.5703,5.5703,5.5703,5.5703,5.5703,5.5703,5.5703,5.5703,5.5703,5.5703,5.5703,5.5703,5.5703,0.0,0.0,5.6071,5.6251,5.6497,5.6577,5.6606,5.6606,5.6606,5.6606,5.6606,0.0,0.0,0.0,0.0,0.0,5.3185,5.3185,5.34,5.3248,5.2453,5.2472,5.2006,5.0581,5.0508,5.0425,5.0038,5.0236,0.0,0.0,0.0,0.0,0.0,0.0,0.0,0.0,0.0,5.0142,5.0142,5.0142,5.0025,0.0,0.0,0.0,0.0,0.0,0.0,0.0,0.0,0.0,0.0,0.0,0.0,0.0,0.0,0.0,0.0,0.0,0.0,0.0,0.0,0.0,5.0712,5.0712,5.0712,5.0712,5.0712,5.0712,5.0712,5.0712,5.0712,5.0712,5.0712,5.0712,5.0712,0.0,0.0,5.0712,5.0712,5.0712,5.0712,5.0712,5.0712,5.0952,5.1769,5.2635,5.351,5.4376,5.5184,5.5703,0.0,0.0,0.0,0.0,0.0,0.0,0.0,0.0,0.0,0.0,5.5703,5.5703,5.5703,5.5703,5.5703,5.5703,5.5703,5.5703,5.5703,5.5703,5.5703,5.5703,5.5703,5.5703,5.5703,0.0,0.0,0.0,5.6097,5.6295,5.6606,5.6606,5.6606,5.6606,5.6606,5.6606,5.6606,0.0,0.0,0.0,0.0,0.0,0.0,5.3185,5.3206,5.2913,5.2107,5.1599,5.099,5.0098,4.9583,4.9317,4.9299,4.9929,0.0,0.0,0.0,0.0,0.0,0.0,0.0,0.0,0.0,4.9299,4.9299,4.9299,4.9299,4.9299,4.9299,4.9317,0.0,0.0,0.0,0.0,0.0,0.0,0.0,0.0,0.0,0.0,0.0,0.0,0.0,0.0,0.0,0.0,0.0,0.0,0.0,0.0,5.0712,5.0712,5.0712,5.0712,5.0712,5.0712,5.0712,5.0712,5.0712,5.0712,5.0712,5.0712,5.0712,5.0712,5.0712,5.0712,5.0712,5.0712,5.0712,5.0952,5.1769,5.2635,5.351,5.4376,5.5184,0.0,0.0,0.0,0.0,0.0,0.0,0.0,0.0,0.0,0.0,0.0,5.5703,5.5703,5.5703,5.5703,5.5703,5.5703,5.5703,5.5703,5.5703,5.5703,5.5703,5.5703,5.5703,5.5703,0.0,0.0,0.0,0.0,5.6097,5.6295,5.6606,5.6606,5.6606,5.6606,5.6606,5.6606,5.6606,0.0,0.0,0.0,0.0,0.0,0.0,0.0,5.1573,5.1261,5.0473,5.0223,4.9803,4.8937,4.8912,4.8967,4.8967,4.9363,0.0,0.0,0.0,0.0,0.0,0.0,0.0,0.0,0.0,4.9299,4.9299,4.9299,4.9174,4.8967,4.8967,4.8832,4.8623,4.8623,0.0,0.0,0.0,0.0,0.0,0.0,0.0,0.0,0.0,0.0,0.0,0.0,0.0,0.0,0.0,0.0,0.0,0.0,0.0,0.0,5.0712,5.0712,5.0712,5.0712,5.0712,5.0712,5.0712,5.0712,5.0712,5.0712,5.0712,5.0712,5.0712,5.0712,5.0712,5.0712,5.0712,5.0789,5.1029,5.2279,5.3299,0.0,0.0,0.0,0.0,0.0,0.0,0.0,0.0,0.0,0.0,0.0,0.0,0.0,5.5703,5.5703,5.5703,5.5703,5.5703,5.5703,5.5703,5.5703,5.5703,5.5703,5.5703,5.5703,5.5703,0.0,0.0,0.0,0.0,0.0,5.6191,5.6375,5.6606,5.6606,5.6606,5.6606,5.6606,5.6606,5.6606,0.0,0.0,0.0,0.0,0.0,0.0,0.0,5.0802,5.0508,4.9721,4.961,4.928,4.8398,4.8477,4.8604,4.8604,4.8797,0.0,0.0,0.0,0.0,0.0,0.0,0.0,4.9113,4.8982,4.8915,4.8915,4.8915,4.8815,4.8604,4.8604,4.8495,4.8306,4.8306,4.8306,0.0,0.0,0.0,0.0,0.0,0.0,4.9416,0.0,0.0,0.0,0.0,0.0,0.0,0.0,0.0,0.0,0.0,0.0,0.0,0.0,5.0604,5.0712,5.0712,5.0712,5.0712,5.0712,5.0712,0.0,5.0712,5.0712,5.0712,5.0712,5.0712,5.0712,5.0712,5.0712,5.0712,5.0712,5.2106,0.0,0.0,0.0,0.0,0.0,0.0,0.0,0.0,0.0,0.0,0.0,0.0,0.0,0.0,5.5703,5.5703,5.5703,5.5703,5.5703,5.5703,5.5703,5.5703,5.5703,5.5703,5.5703,5.5703,5.5703,0.0,0.0,0.0,0.0,0.0,5.6252,5.6416,5.6606,5.6606,5.6606,5.6606,5.6606,5.6606,5.6606,0.0,0.0,0.0,0.0,0.0,0.0,0.0,5.0618,5.0343,4.961,4.9519,4.9187,4.8398,4.8306,4.8306,4.8306,0.0,0.0,0.0,0.0,0.0,0.0,0.0,0.0,4.8764,4.8458,4.8306,4.8306,4.8306,4.8306,4.8306,4.8306,4.8306,4.8306,4.8306,4.8306,0.0,0.0,0.0,0.0,0.0,0.0,0.0,0.0,0.0,0.0,0.0,0.0,0.0,0.0,0.0,0.0,0.0,0.0,0.0,0.0,0.0,0.0,0.0,5.0712,5.0712,5.0712,5.0712,5.0712,5.0712,5.0712,0.0,5.0712,5.0712,5.0712,5.0712,5.0712,5.0712,5.0712,5.2106,0.0,0.0,0.0,0.0,0.0,0.0,0.0,0.0,0.0,0.0,0.0,0.0,0.0,0.0,5.5703,5.5703,5.5703,5.5703,5.5703,5.5703,5.5703,5.5703,5.5703,5.5703,5.5703,5.5703,5.5703,0.0,0.0,0.0,0.0,0.0,5.6252,5.6416,5.6606,5.6606,5.6606,5.6606,5.6606,5.6606,5.6606,0.0,0.0,0.0,0.0,0.0,0.0,0.0,0.0,0.0,0.0,4.8618,4.8526,4.8324,4.8306,4.8306,0.0,0.0,0.0,0.0,0.0,0.0,0.0,0.0,0.0,4.842,4.8344,4.8306,4.8306,4.8306,4.8306,4.8306,4.8306,4.8306,4.8306,4.8306,4.8306,0.0,0.0,0.0,0.0,0.0,0.0,0.0,0.0,0.0,0.0,4.9399,4.9569,0.0,0.0,0.0,0.0,0.0,0.0,0.0,0.0,5.0634,5.0712,5.0712,0.0,5.0712,5.0712,5.0712,5.0712,0.0,5.0712,5.0712,5.0712,5.0712,5.0712,5.0712,5.0712,5.0712,5.0712,0.0,0.0,0.0,0.0,0.0,0.0,0.0,0.0,0.0,0.0,0.0,0.0,0.0,0.0,0.0,5.5703,5.5703,5.5703,5.5703,5.5703,5.5703,5.5703,5.5703,5.5703,5.5703,5.5703,5.5703,5.5703,0.0,0.0,0.0,0.0,5.611,5.6252,5.6416,5.6606,5.6606,5.6606,5.6606,5.6606,5.6606,5.6606,0.0,0.0,0.0,0.0,0.0,0.0,0.0,0.0,0.0,0.0,0.0,0.0,0.0,0.0,0.0,0.0,0.0,0.0,0.0,0.0,0.0,0.0,0.0,4.8306,4.8306,4.8306,4.8306,4.8306,4.8306,4.8306,4.8306,4.8306,4.8306,4.8306,4.8306,4.8306,4.8306,0.0,0.0,0.0,4.855,0.0,0.0,0.0,0.0,0.0,4.9176,4.9268,0.0,4.9222,4.9268,4.9401,0.0,0.0,0.0,0.0,5.0575,5.0712,5.0712,5.0712,5.0712,5.0712,5.0712,5.0712,5.0712,5.0712,5.0712,5.0712,5.0712,5.0712,5.0712,5.0712,5.0712,0.0,5.1779,0.0,0.0,0.0,0.0,0.0,0.0,0.0,0.0,0.0,0.0,0.0,0.0,0.0,0.0,5.5703,5.5703,5.5703,5.5703,5.5703,5.5703,5.5703,5.5703,5.5703,5.5703,5.5703,5.5703,5.5703,5.5703,0.0,0.0,0.0,5.611,5.6336,5.65,5.6606,5.6606,5.6606,5.6606,5.6606,5.6608,5.6593,0.0,0.0,0.0,0.0,0.0,0.0,0.0,0.0,0.0,0.0,0.0,0.0,0.0,0.0,0.0,0.0,0.0,0.0,0.0,0.0,0.0,0.0,4.8306,4.8306,4.8306,4.8306,4.8306,4.8306,4.8306,4.8306,4.8306,4.8306,4.8306,4.8306,4.8306,4.8306,4.8306,4.8306,4.8306,0.0,4.8514,0.0,0.0,0.0,0.0,0.0,0.0,0.0,0.0,4.8909,4.8925,4.9027,4.9365,0.0,0.0,0.0,0.0,0.0,5.0712,5.0712,5.0712,5.0712,5.0712,5.0712,5.0712,5.0712,5.0712,5.0712,5.0712,5.0712,5.0712,5.0712,0.0,0.0,0.0,0.0,0.0,0.0,0.0,0.0,0.0,0.0,0.0,0.0,0.0,0.0,0.0,0.0,0.0,5.5703,5.5703,5.5703,5.5703,5.5703,5.5703,5.5703,5.5703,5.5703,5.5703,5.5703,5.5703,5.5703,5.5703,0.0,0.0,0.0,5.6116,5.6429,5.658,5.6606,5.6606,5.6606,5.6608,5.6608,5.6595,5.6603,0.0,0.0,0.0,0.0,0.0,0.0,0.0,0.0,0.0,0.0,0.0,0.0,0.0,0.0,0.0,0.0,0.0,0.0,0.0,0.0,0.0,4.8306,4.8306,4.8306,4.8306,4.8306,4.8306,4.8306,4.8306,4.8306,4.8306,4.8306,4.8306,4.8306,4.8306,4.8306,4.8306,4.8306,4.8306,4.8325,4.8514,0.0,0.0,0.0,0.0,0.0,0.0,0.0,0.0,4.8909,4.9094,4.9365,4.9637,0.0,0.0,0.0,0.0,0.0,5.0712,5.0712,5.0712,5.0712,5.0712,5.0712,5.0712,5.0712,5.0712,5.0712,5.0712,5.0712,5.0712,5.0712,5.0712,0.0,0.0,0.0,0.0,0.0,0.0,0.0,0.0,0.0,0.0,0.0,0.0,0.0,0.0,0.0,0.0,5.5703,5.5703,5.5703,5.5703,5.5703,5.5703,5.5703,5.5703,5.5703,5.5703,5.5703,5.5703,5.5703,5.5703,0.0,0.0,5.5998,5.611,5.6285,5.6446,5.6606,5.6606,5.6591,5.6598,5.6598,5.6605,5.6592,0.0,0.0,0.0,0.0,0.0,0.0,0.0,0.0,0.0,0.0,0.0,0.0,0.0,0.0,0.0,0.0,0.0,0.0,0.0,0.0,4.8287,4.8247,4.8247,4.8267,4.8306,4.8306,4.8306,4.8306,4.8306,4.8306,4.8306,4.8306,4.8306,4.8306,4.8306,4.8306,4.8306,4.8306,4.8306,4.8325,0.0,0.0,0.0,0.0,0.0,0.0,0.0,0.0,0.0,0.0,4.9362,4.9641,4.9762,0.0,0.0,0.0,0.0,0.0,5.0712,5.0712,5.0712,5.0712,5.0712,5.0712,5.0712,5.0712,5.0712,5.0712,5.0712,5.0712,5.0712,0.0,5.0712,5.0712,0.0,0.0,0.0,0.0,0.0,0.0,0.0,0.0,0.0,0.0,0.0,0.0,0.0,0.0,0.0,0.0,5.5703,5.5703,5.5703,5.5703,5.5703,5.5703,5.5703,5.5703,5.5703,5.5703,5.5703,5.5703,5.5703,5.5724,0.0,5.5975,5.611,5.6252,5.6423,5.6595,5.6595,5.66,5.6607,5.6592,5.6595,5.6597,0.0,0.0,0.0,0.0,0.0,0.0,0.0,0.0,0.0,0.0,0.0,0.0,0.0,0.0,0.0,0.0,0.0,0.0,0.0,0.0,4.8208,4.8168,4.8187,4.8208,4.8286,4.8286,4.8287,4.8306,4.8306,4.8306,4.8306,4.8306,4.8306,4.8306,4.8306,4.8306,4.8306,4.8306,4.8306,4.8325,0.0,0.0,0.0,0.0,0.0,0.0,0.0,0.0,0.0,0.0,0.0,0.0,0.0,0.0,0.0,5.0624,5.0712,5.0712,5.0712,5.0712,5.0712,5.0712,5.0712,5.0712,5.0712,5.0712,5.0712,5.0712,5.0712,5.0712,0.0,5.0712,0.0,5.0712,0.0,0.0,0.0,0.0,0.0,0.0,0.0,0.0,0.0,0.0,0.0,0.0,0.0,0.0,0.0,0.0,5.5203,5.5415,5.5415,5.5511,5.5703,5.5703,5.5703,5.5703,5.5703,5.5703,5.5703,5.5703,5.5703,5.5705,5.588,5.6013,5.6142,5.6303,5.6464,5.6605,5.6605,5.6609,5.6595,5.6599,5.66,5.66,0.0,0.0,0.0,0.0,0.0,0.0,0.0,0.0,0.0,0.0,0.0,0.0,0.0,0.0,0.0,0.0,0.0,0.0,0.0,0.0,4.8012,4.8012,4.813,4.8207,4.8207,4.8207,4.8246,4.8306,4.8306,4.8306,4.8306,4.8306,4.8306,4.8306,4.8306,4.8306,4.8306,4.8306,4.8306,4.8326,4.8852,0.0,0.0,0.0,0.0,0.0,0.0,0.0,0.0,0.0,0.0,0.0,0.0,0.0,5.0673,5.0683,5.0712,5.0712,5.0712,5.0712,5.0712,5.0712,5.0712,5.0712,5.0712,5.0712,5.0712,5.0712,5.0712,5.0712,0.0,5.0712,5.0712,0.0,0.0,0.0,0.0,0.0,0.0,0.0,0.0,0.0,0.0,0.0,0.0,0.0,0.0,0.0,0.0,0.0,0.0,5.4549,5.4587,5.4934,5.5684,5.5703,5.5703,5.5703,5.5703,5.5703,5.5703,5.5703,5.5703,5.5716,5.5975,5.6123,5.6203,5.6478,5.6584,5.6592,5.6592,5.6596,5.6599,5.6601,5.6601,5.6601,0.0,0.0,0.0,0.0,0.0,0.0,0.0,0.0,0.0,0.0,0.0,0.0,0.0,0.0,0.0,0.0,0.0,0.0,0.0,4.809,4.809,4.8012,4.805,4.811,4.8187,4.8228,4.8267,4.8306,4.8306,4.8306,4.8306,4.8306,4.8306,4.8306,4.8306,4.8306,4.8306,4.8306,4.8306,4.8325,4.8659,4.8903,0.0,0.0,0.0,0.0,0.0,0.0,0.0,0.0,5.0249,5.0464,5.0272,5.0432,5.0712,5.0712,5.0712,5.0712,5.0712,5.0712,5.0712,5.0712,5.0712,5.0712,5.0712,5.0712,5.0712,5.0712,5.0712,5.0712,0.0,0.0,5.0712,0.0,0.0,0.0,0.0,0.0,0.0,0.0,0.0,0.0,0.0,0.0,0.0,0.0,0.0,0.0,0.0,0.0,0.0,5.3683,5.4222,5.4645,5.4953,5.5453,5.5703,5.5703,5.5703,5.5703,5.5703,5.5703,5.5703,5.5705,5.5902,5.6057,5.6203,5.639,5.6516,5.6597,5.66,5.6601,5.6601,5.6601,5.6601,5.6601,0.0,0.0,0.0,0.0,0.0,0.0,0.0,0.0,0.0,0.0,0.0,0.0,0.0,0.0,0.0,0.0,0.0,0.0,4.7909,4.8008,4.8008,4.7909,4.7949,4.8008,4.8107,4.8169,4.8229,4.8267,4.8267,4.8267,4.8267,4.8287,4.8306,4.8306,4.8306,4.8306,4.8306,4.8306,4.8306,4.8325,4.8605,4.8869,0.0,0.0,0.0,0.0,0.0,0.0,0.0,0.0,5.0504,5.0663,5.0432,5.0523,5.0712,5.0712,5.0712,5.0712,5.0712,5.0712,5.0712,5.0712,5.0712,5.0712,5.0712,5.0712,5.0712,5.0712,5.0712,5.0712,5.0712,0.0,0.0,0.0,0.0,0.0,0.0,0.0,0.0,0.0,0.0,0.0,0.0,0.0,0.0,0.0,0.0,0.0,0.0,0.0,0.0,0.0,5.3376,5.3933,5.4491,5.5049,5.5453,5.5703,5.5724,5.5724,5.5703,5.5724,5.5735,5.5726,5.5907,5.6056,5.6206,5.634,5.6474,5.6601,5.6601,5.6601,5.6601,5.6601,5.6601,5.6601,0.0,0.0,0.0,0.0,0.0,0.0,0.0,0.0,0.0,0.0,0.0,0.0,0.0,0.0,0.0,0.0,0.0,0.0,4.7717,4.7717,4.7717,4.7717,4.784,4.7881,4.7881,4.7968,4.8052,4.8187,4.8187,4.8187,4.8187,4.8267,4.8306,4.8306,4.8306,4.8306,4.8306,4.8306,4.8306,4.8326,4.8745,4.8984,4.9134,0.0,0.0,0.0,0.0,0.0,0.0,0.0,5.0712,5.0712,5.0712,5.0712,5.0712,5.0712,5.0712,5.0712,5.0712,5.0712,5.0712,5.0712,5.0712,5.0712,5.0712,5.0712,5.0712,5.0712,5.0712,5.0712,5.0712,5.0712,0.0,0.0,0.0,0.0,0.0,0.0,0.0,0.0,0.0,0.0,0.0,0.0,0.0,0.0,0.0,0.0,0.0,0.0,0.0,0.0,5.1904,5.2731,5.4453,5.4491,5.4895,5.5684,5.5766,5.5766,5.5714,5.5766,5.5797,5.5807,5.6007,5.613,5.6203,5.6345,5.6484,5.6601,5.6601,5.6601,5.6601,5.6601,5.6601,5.6601,0.0,0.0,0.0,0.0,0.0,0.0,0.0,0.0,0.0,0.0,0.0,0.0,0.0,0.0,0.0,0.0,0.0,0.0,4.7699,4.778,4.784,4.784,4.7881,4.7904,4.797,4.7927,4.7968,4.807,4.807,4.807,4.807,4.8187,4.8246,4.8228,4.8267,4.8306,4.8306,4.8306,4.8306,4.8325,4.8514,4.8642,4.8732,0.0,0.0,0.0,0.0,0.0,0.0,0.0,0.0,0.0,5.0712,5.0712,5.0712,5.0712,5.0712,5.0712,5.0712,5.0712,5.0712,5.0712,5.0712,5.0712,5.0712,5.0712,5.0712,5.0712,5.0712,5.0712,5.0712,0.0,0.0,0.0,0.0,0.0,0.0,0.0,0.0,0.0,0.0,0.0,0.0,0.0,0.0,0.0,0.0,0.0,0.0,0.0,0.0,0.0,5.1606,5.2154,5.2673,5.3897,5.463,5.4861,5.5547,5.5836,5.5766,5.5836,5.5875,5.5876,5.6036,5.6136,5.6227,5.6458,5.6561,5.6601,5.6601,5.6601,5.6601,5.6601,5.6601,5.6601,0.0,0.0,0.0,0.0,0.0,0.0,0.0,0.0,0.0,0.0,4.7717,4.7717,0.0,0.0,0.0,0.0,0.0,0.0,0.0,4.7798,4.7819,4.7819,4.7819,4.7842,4.7888,4.7842,4.7842,4.7888,4.7929,4.7968,4.7968,4.8128,4.8187,4.8207,4.8267,4.8306,4.8306,4.8306,4.8306,4.8306,4.8382,4.8457,4.8532,0.0,0.0,0.0,0.0,0.0,0.0,0.0,0.0,0.0,5.0712,5.0712,5.0712,5.0712,5.0712,5.0712,5.0712,5.0712,5.0712,5.0712,5.0712,5.0693,5.0693,5.0702,5.0712,0.0,5.0702,5.0693,5.0693,5.0702,0.0,0.0,0.0,0.0,0.0,0.0,0.0,0.0,0.0,0.0,0.0,0.0,0.0,0.0,0.0,0.0,0.0,0.0,0.0,0.0,5.1174,5.1597,5.1992,5.334,5.4198,5.4545,5.548,5.5914,5.5876,5.5914,5.5953,5.5952,5.6102,5.6206,5.6264,5.6492,5.6601,5.6601,5.6601,5.6601,5.6601,5.6601,5.6601,5.6601,0.0,0.0,0.0,0.0,0.0,0.0,0.0,0.0,0.0,0.0,4.7717,4.7717,0.0,0.0,0.0,0.0,0.0,0.0,0.0,0.0,4.7717,4.7717,4.7717,4.7717,4.7717,4.7717,4.7717,4.7717,4.7819,4.7881,4.7881,4.8087,4.8187,4.8187,4.8248,4.8306,4.8306,4.8306,4.8306,4.8306,4.8306,4.8382,4.8476,4.8494,0.0,0.0,0.0,0.0,0.0,0.0,0.0,0.0,5.0712,5.0712,5.0712,5.0712,5.0712,5.0712,5.0712,5.0693,5.0693,5.0693,5.0702,5.0712,5.072,5.0712,5.0702,5.0702,0.0,5.0711,5.0712,0.0,0.0,0.0,0.0,0.0,0.0,0.0,0.0,0.0,0.0,0.0,0.0,0.0,0.0,0.0,0.0,0.0,0.0,0.0,0.0,5.0701,5.0701,5.1114,5.196,5.2789,5.3637,0.0,5.544,5.5922,5.5999,5.5999,5.5999,5.6007,5.6203,5.6292,5.6324,5.6514,5.6601,5.6601,5.6601,5.6601,5.6601,5.6601,5.6601,5.6601,0.0,0.0,0.0,0.0,0.0,0.0,0.0,0.0,0.0,0.0,0.0,0.0,0.0,0.0,0.0,0.0,0.0,0.0,0.0,0.0,4.7717,4.7717,4.7717,4.7717,4.7717,4.7717,4.7717,4.7717,4.7738,4.7738,4.7759,4.7949,4.8032,4.8052,4.8229,4.8306,4.8306,4.8306,4.8306,4.8306,4.8306,4.8306,4.8363,4.8457,4.8606,0.0,0.0,0.0,0.0,0.0,0.0,0.0,5.0712,5.0712,5.0712,5.0712,5.0712,5.0712,5.0712,5.0693,5.0702,5.0702,5.0739,5.0775,5.0784,5.0775,5.0785,5.0785,5.0775,5.0784,0.0,0.0,0.0,0.0,0.0,0.0,0.0,0.0,0.0,0.0,0.0,0.0,0.0,0.0,0.0,0.0,0.0,0.0,0.0,0.0,0.0,5.0701,5.0738,5.088,5.1082,5.1927,5.2794,0.0,5.4605,5.5395,5.5995,5.5995,5.5995,5.6012,5.6214,5.6292,5.6324,5.6514,5.6601,5.6601,5.6601,5.6601,5.6601,5.6601,5.6601,5.6601,0.0,0.0,0.0,0.0,0.0,0.0,0.0,0.0,0.0,0.0,0.0,0.0,0.0,0.0,0.0,0.0,0.0,0.0,0.0,0.0,4.7717,4.7717,4.7717,4.7717,4.7717,4.7717,4.7717,4.7717,4.7717,4.7717,4.7699,4.7866,4.797,4.8012,4.8189,4.8267,4.8306,4.8306,4.8306,4.8306,4.8306,4.8306,4.8306,4.8382,4.8457,4.8569,4.8836,0.0,0.0,0.0,0.0,0.0,0.0,0.0,5.0712,5.0712,5.0712,5.0712,5.0712,5.0702,5.0701,5.0729,5.0793,5.0846,5.0846,5.0844,5.0861,5.0861,5.0844,0.0,0.0,0.0,0.0,0.0,0.0,0.0,0.0,0.0,0.0,0.0,0.0,0.0,0.0,0.0,0.0,0.0,0.0,0.0,0.0,5.0702,5.072,5.0784,5.0838,5.0855,5.0861,5.1716,5.2594,5.3464,5.4379,5.5219,5.6012,5.6012,5.6012,5.601,5.622,5.6292,5.6324,5.6514,5.6601,5.6601,5.6601,5.6601,5.6601,5.6601,5.6601,5.6601,0.0,0.0,0.0,0.0,0.0,0.0,0.0,0.0,0.0,0.0,0.0,0.0,0.0,0.0,0.0,0.0,0.0,0.0,0.0,0.0,0.0,4.7717,4.7717,4.7738,4.7738,4.7741,4.7762,4.7762,4.7678,4.7615,4.7615,4.7738,4.7866,4.8012,4.807,4.8189,4.8306,4.8306,4.8306,4.8306,4.8306,4.8306,4.8306,4.8306,4.8382,4.8513,4.8569,4.8999,4.9561,4.9688,0.0,0.0,0.0,0.0,5.0712,5.0712,5.0712,5.0712,5.0712,5.0712,5.0729,5.081,5.0863,5.0888,5.0888,5.0893,5.0898,5.0898,0.0,0.0,0.0,0.0,0.0,0.0,0.0,0.0,0.0,0.0,0.0,0.0,0.0,0.0,0.0,0.0,0.0,0.0,0.0,0.0,5.071,5.072,5.0784,5.0899,5.0908,5.0905,5.0898,5.1621,5.2414,5.3285,5.431,5.5219,5.6012,5.6012,5.601,5.6032,5.6225,5.632,5.6344,5.6534,5.6601,5.6601,5.6601,5.6601,5.6601,5.6601,5.6601,5.6601,0.0,0.0,0.0,0.0,0.0,0.0,0.0,0.0,0.0,0.0,4.7717,4.7717,0.0,0.0,0.0,0.0,0.0,0.0,4.7717,0.0,0.0,4.7717,4.7819,4.7861,4.7861,4.7927,4.7951,4.7951,4.7557,4.728,4.7173,4.732,4.76,4.7992,4.7793,4.7915,4.8306,4.8306,4.8306,4.8306,4.8306,4.8306,4.8306,4.8306,4.8382,4.8513,4.8569,4.8867,4.9274,4.9408,4.9822,0.0,0.0,0.0,5.0712,5.0712,5.0712,5.0712,5.0712,5.074,5.081,5.0866,5.089,5.089,0.0,0.0,5.0898,0.0,0.0,0.0,0.0,0.0,0.0,0.0,0.0,0.0,0.0,0.0,0.0,0.0,0.0,0.0,0.0,0.0,0.0,0.0,0.0,0.0,5.0793,5.0846,5.0891,5.0899,5.0893,5.0898,5.0898,5.1014,5.1505,5.2384,5.402,5.5219,5.6012,5.6012,5.6056,5.6175,5.6261,5.637,5.6482,5.6559,5.6601,5.6601,5.6601,5.6601,5.6601,5.6601,5.6601,5.6601,0.0,0.0,0.0,0.0,0.0,0.0,0.0,0.0,0.0,0.0,0.0,4.7717,0.0,0.0,0.0,4.7717,4.7717,4.7717,4.7717,4.7717,4.7717,4.7717,4.784,4.7881,4.7881,4.7968,4.787,4.7603,4.7389,4.7125,4.6829,4.6649,4.6913,4.7551,4.7542,4.7689,4.7915,4.7915,4.7915,4.7915,4.7915,4.8073,4.8306,4.8306,4.8343,4.8401,4.8495,4.8801,4.915,4.9249,4.9702,5.0195,5.0195,0.0,0.0,0.0,5.0712,5.0702,5.074,5.0785,5.0819,5.0882,5.0898,5.0898,5.0898,5.0898,5.0898,0.0,0.0,0.0,0.0,0.0,0.0,0.0,0.0,0.0,0.0,0.0,0.0,0.0,0.0,0.0,0.0,0.0,0.0,0.0,0.0,5.0829,5.0855,5.0872,5.0888,5.0893,5.089,5.0898,5.0898,5.0898,5.1351,5.2229,5.3962,5.4987,5.5335,5.5799,5.6064,5.6201,5.6266,5.6374,5.6511,5.6579,5.6601,5.6601,5.6601,5.6601,5.6601,5.6601,5.6601,5.6601,0.0,0.0,0.0,0.0,0.0,0.0,0.0,0.0,0.0,0.0,0.0,0.0,0.0,0.0,0.0,0.0,4.7717,4.7717,4.7717,4.7717,4.7717,4.7759,4.7863,4.7925,4.7984,4.7929,4.7728,4.7389,4.7129,4.6812,4.6411,4.6038,4.6207,4.6819,4.7066,4.724,4.736,4.7421,4.7399,4.7381,4.7548,4.7816,4.8132,4.8249,4.8306,4.8306,4.8457,4.8714,4.8988,4.9071,4.9502,5.0012,5.0087,5.0325,0.0,0.0,0.0,5.0712,5.0775,5.0801,5.0819,5.0882,5.0898,5.0898,0.0,0.0,5.0898,0.0,0.0,0.0,0.0,0.0,0.0,0.0,0.0,0.0,0.0,0.0,0.0,0.0,0.0,0.0,0.0,0.0,0.0,0.0,0.0,5.0844,5.0897,5.0897,5.0913,5.0898,5.0898,5.0898,5.0898,5.0898,5.1351,5.2229,5.373,5.4581,5.4832,5.5625,5.6067,5.623,5.6281,5.6387,5.6525,5.658,5.6601,5.6601,5.6601,5.6601,5.6601,5.6601,5.6601,5.6601,0.0,0.0,0.0,0.0,0.0,0.0,0.0,0.0,0.0,0.0,0.0,0.0,4.7717,4.7717,4.7717,4.7717,4.7717,4.7717,4.7717,4.7717,4.7759,4.7881,4.7968,0.0,4.8168,4.7813,4.7611,4.7591,4.6701,4.6151,4.5943,4.558,4.5555,4.58,4.6102,4.6459,4.6753,4.6868,4.6845,4.6799,4.7378,4.7611,4.7674,4.8132,4.8306,4.8306,4.8457,4.855,4.8641,4.8768,4.9094,4.9488,4.9735,5.0012,5.0283,0.0,0.0,0.0,5.0775,5.0801,5.0819,5.0882,5.0898,5.0898,0.0,0.0,0.0,0.0,0.0,0.0,0.0,0.0,0.0,0.0,0.0,0.0,0.0,0.0,0.0,0.0,0.0,0.0,0.0,0.0,0.0,0.0,0.0,5.0898,5.0898,5.0898,5.0898,5.0898,5.0898,5.0898,5.0898,5.0898,5.1351,5.221,5.313,5.4,5.4832,5.5625,5.6114,5.6284,5.6308,5.6411,5.6601,5.6601,5.6601,5.6601,5.6601,5.6601,5.6601,5.6601,5.6601,5.6601,0.0,0.0,0.0,0.0,0.0,0.0,0.0,0.0,0.0,0.0,0.0,0.0,0.0,4.7717,4.7717,4.7717,4.7717,4.7717,4.7717,4.7717,4.7759,4.7881,4.7949,4.8052,4.8187,4.8093,4.7754,4.7138,4.6799,4.6273,4.558,4.5459,4.5432,4.5529,4.5852,4.6035,4.6067,4.6213,4.6238,4.6244,4.6895,4.7335,4.7653,4.8132,4.8306,0.0,0.0,0.0,0.0,0.0,0.0,0.0,0.0,0.0,0.0,5.0604,5.0712,5.0712,5.0775,5.0801,5.0819,5.0882,5.0898,5.0898,5.0898,5.0898,0.0,0.0,0.0,0.0,0.0,0.0,0.0,0.0,0.0,0.0,0.0,0.0,0.0,0.0,0.0,0.0,0.0,0.0,0.0,0.0,0.0,0.0,5.0898,5.0898,5.0898,5.0898,5.0898,5.0898,5.0898,5.0898,5.1053,5.1389,5.224,5.3111,5.3981,5.4832,5.5617,5.6292,5.6292,5.6414,5.6601,5.6601,5.6601,5.6601,5.6601,5.6601,5.6601,5.6601,5.6601,5.6601,0.0,0.0,0.0,0.0,0.0,0.0,0.0,0.0,0.0,4.7717,0.0,0.0,0.0,0.0,4.7717,4.7717,4.7717,4.7717,4.7717,4.7717,4.7759,4.7881,4.7949,4.8052,4.8187,4.8111,4.7754,4.7138,4.6976,4.6465,4.5667,4.5667,4.5537,4.5327,4.5563,4.5606,4.5528,4.5674,4.5726,4.5734,4.6394,4.6845,4.7204,4.7836,0.0,0.0,0.0,0.0,0.0,0.0,0.0,0.0,0.0,0.0,0.0,0.0,0.0,5.0712,5.0748,5.0784,5.0819,5.0885,5.0909,5.0898,5.0898,0.0,0.0,0.0,0.0,0.0,0.0,0.0,0.0,0.0,0.0,0.0,0.0,0.0,0.0,0.0,0.0,0.0,0.0,0.0,0.0,0.0,0.0,0.0,5.0898,5.0898,5.0898,5.0898,5.0898,5.0898,5.0898,5.0898,5.0898,5.0917,5.1776,5.2655,5.3536,5.4407,5.5336,5.6261,5.6294,5.6414,5.6601,5.6601,5.6601,5.6601,5.6601,5.6601,5.6601,5.6601,5.6601,5.6601,0.0,0.0,0.0,0.0,0.0,0.0,0.0,0.0,4.7717,4.7717,0.0,0.0,0.0,0.0,0.0,4.7717,4.7717,4.7717,4.7717,4.7717,4.7759,4.7881,4.7949,4.8052,4.8187,4.7813,4.7611,4.7611,4.7138,4.6678,4.6211,4.6211,4.5862,4.523,4.5203,4.522,4.5203,4.5344,4.5318,4.5257,4.5938,4.6186,4.6291,0.0,0.0,0.0,4.8132,4.8363,0.0,4.8513,0.0,0.0,0.0,0.0,0.0,0.0,0.0,0.0,0.0,0.0,0.0,0.0,0.0,0.0,5.0898,0.0,0.0,0.0,0.0,0.0,0.0,0.0,0.0,0.0,0.0,0.0,0.0,0.0,0.0,0.0,0.0,0.0,0.0,0.0,0.0,0.0,0.0,5.0898,5.0898,5.0898,5.0898,5.0898,5.0898,5.0898,5.0898,5.0898,5.0898,5.0917,5.1757,5.2608,5.3478,5.4368,5.5277,5.6168,5.6266,5.6414,5.6601,5.6601,5.6601,5.6601,5.6601,5.6601,5.6601,5.6601,5.6601,5.6601,0.0,0.0,0.0,0.0,0.0,4.7717,4.7717,4.7717,4.7717,0.0,0.0,0.0,4.7717,4.7717,4.7717,4.7717,4.7717,4.7717,4.7717,4.7717,4.7759,4.7881,4.7949,4.8052,4.8187,4.8131,4.7937,4.7611,4.7464,4.716,4.6701,4.6363,4.6112,4.5912,4.5511,4.5327,4.5327,4.5184,4.514,4.5257,4.5759,4.6077,0.0,0.0,0.0,0.0,0.0,4.8035,4.8363,0.0,4.855,4.8661,0.0,0.0,0.0,0.0,0.0,0.0,5.0404,0.0,0.0,0.0,0.0,0.0,0.0,0.0,0.0,0.0,0.0,0.0,0.0,0.0,0.0,0.0,0.0,0.0,0.0,0.0,0.0,0.0,0.0,0.0,0.0,0.0,0.0,0.0,5.0898,5.0898,5.0898,5.0898,5.0898,5.0898,5.0898,5.0898,5.0898,5.0898,5.0898,5.0898,5.113,5.1718,5.2597,5.3459,5.4393,5.5376,5.6026,5.6414,5.6601,5.6601,5.6601,5.6601,5.6601,5.6601,5.6601,5.6601,5.6601,5.6601,0.0,0.0,0.0,0.0,0.0,4.7717,4.7717,4.7717,4.7717,0.0,0.0,0.0,4.7717,4.7717,4.7717,4.7717,4.7717,4.7717,4.7717,4.7717,4.7759,4.7881,4.7949,4.8052,4.8187,4.8267,4.8172,4.7897,4.7897,4.7653,4.7182,4.6913,4.6678,4.6483,4.5963,4.5727,4.5718,4.5274,0.0,0.0,4.5537,0.0,0.0,4.6411,4.6794,0.0,0.0,0.0,4.8035,4.8306,4.8457,0.0,0.0,0.0,0.0,0.0,0.0,0.0,0.0,0.0,0.0,0.0,0.0,0.0,5.0893,5.0909,0.0,0.0,0.0,0.0,0.0,0.0,0.0,0.0,0.0,0.0,0.0,0.0,0.0,0.0,0.0,0.0,0.0,0.0,0.0,5.0898,5.0898,5.0898,5.0898,5.0898,5.0898,5.0898,5.0898,5.0898,5.0898,5.0898,5.0898,5.0898,5.0898,5.137,5.2229,5.2732,5.3688,5.4986,5.5515,5.6068,5.6557,5.6581,5.6601,5.6601,5.6601,5.6601,5.6601,5.6601,5.6601,5.6601,0.0,0.0,4.7717,4.7717,4.7717,4.7717,4.7717,4.7717,4.7717,0.0,4.7717,4.7717,4.7717,4.7717,4.7717,4.7717,4.7717,4.7717,4.7717,4.7717,4.7759,4.7881,4.7949,4.8052,4.8187,4.8267,4.8306,4.8306,4.8306,4.8093,4.7674,4.7632,4.7378,4.6936,4.6435,4.6211,4.6161,4.5477,0.0,4.5397,4.5247,4.5274,0.0,0.0,4.6137,4.6315,4.716,4.7485,4.7591,4.8055,4.8383,0.0,0.0,0.0,0.0,0.0,4.9525,0.0,0.0,0.0,0.0,0.0,0.0,0.0,5.0827,5.0877,5.0898,0.0,0.0,0.0,0.0,0.0,0.0,0.0,0.0,0.0,0.0,0.0,0.0,0.0,0.0,0.0,0.0,5.0898,5.0898,5.0898,5.0898,5.0898,5.0898,5.0898,5.0898,5.0898,5.0898,5.0898,5.0898,5.0898,5.0898,5.0898,5.0898,5.1312,5.2047,5.2171,5.3134,5.475,5.4928,5.5578,5.6511,5.6579,5.6601,5.6601,5.6601,5.6601,5.6601,5.6601,5.6601,5.6601,0.0,4.7717,4.7717,4.7717,4.7717,4.7717,4.7717,4.7717,4.7717,4.7717,4.7717,4.7717,4.7717,4.7717,4.7717,4.7717,4.7717,4.7717,4.7717,4.7717,4.7759,4.7881,4.7949,4.8052,4.8187,4.8267,4.8306,4.8306,4.8306,4.8267,4.8152,4.7775,4.7548,4.7421,4.6584,4.6211,4.6161,0.0,0.0,4.5397,4.5247,0.0,4.5397,4.5528,4.5829,4.6235,4.6411,4.6724,4.7093,4.7569,4.8093,4.8532,0.0,0.0,0.0,0.0,0.0,0.0,0.0,0.0,0.0,0.0,0.0,0.0,5.05,5.0708,5.0905,0.0,0.0,0.0,0.0,0.0,0.0,0.0,0.0,0.0,0.0,0.0,0.0,0.0,0.0,0.0,0.0,5.0898,5.0898,5.0898,5.0898,5.0898,5.0898,5.0898,5.0898,5.0898,5.0898,5.0898,5.0898,5.0898,5.0898,5.0898,5.0898,5.0995,5.1177,5.1873,5.2804,5.3901,5.4675,5.5578,5.6511,5.6579,5.6601,5.6601,5.6601,5.6601,5.6601,5.6601,5.6601,5.6601,4.7717,4.7717,4.7717,4.7717,4.7717,4.7717,4.7717,4.7717,4.7717,4.7717,4.7717,4.7717,4.7717,4.7717,4.7717,4.7717,4.7717,4.7717,4.7717,4.7717,4.7759,4.7881,4.7949,4.8052,4.8187,4.8267,4.8306,4.8306,4.8306,4.8306,4.8287,4.8055,4.7955,4.7917,4.7226,4.6771,4.6513,0.0,4.5572,4.5397,4.5247,0.0,4.5397,4.5397,4.5563,4.5829,4.6112,4.6507,4.6931,4.716,4.7467,0.0,0.0,4.8326,4.8495,0.0,4.8976,4.916,0.0,0.0,0.0,4.9641,0.0,0.0,0.0,5.0417,5.0644,5.0652,0.0,0.0,0.0,0.0,0.0,0.0,0.0,0.0,0.0,0.0,0.0,0.0,0.0,0.0,0.0,5.0898,5.0898,5.0898,5.0898,5.0898,5.0898,5.0898,5.0898,5.0898,5.0898,5.0898,5.0898,5.0898,5.0898,5.0898,5.0898,5.0898,5.0917,5.1351,5.2103,5.3108,5.4015,5.4973,5.5948,5.6405,5.6601,5.6601,5.6601,5.6601,5.6601,5.6601,5.6601,5.6601,4.7717,4.7717,4.7717,4.7717,4.7717,4.7717,4.7717,4.7717,4.7717,4.7717,4.7717,4.7717,4.7717,4.7717,4.7717,4.7717,4.7717,4.7717,4.7717,4.7717,4.7759,4.7881,4.7949,4.8052,4.8187,4.8267,4.8306,4.8306,4.8306,4.8306,4.8306,4.8306,4.8306,4.8287,4.7816,4.7399,4.7004,0.0,0.0,4.5675,0.0,4.5468,4.5397,4.5397,4.5397,4.5476,4.6005,4.6435,4.6771,4.6863,0.0,4.7062,4.7509,4.7836,0.0,0.0,0.0,0.0,0.0,0.0,0.0,0.0,0.0,4.9803,0.0,0.0,0.0,5.0308,0.0,0.0,0.0,0.0,0.0,0.0,0.0,0.0,0.0,0.0,0.0,0.0,0.0,0.0,0.0,5.0898,5.0898,5.0898,5.0898,5.0898,5.0898,5.0898,5.0898,5.0898,5.0898,5.0898,5.0898,5.0898,5.0898,5.0898,5.0898,5.0898,5.0898,5.0898,5.1464,5.2507,5.3229,5.4206,5.5331,5.6054,5.6445,5.6601,5.6601,5.6601,5.6601,5.6601,5.6601,5.6601,4.7717,4.7717,4.7717,4.7717,4.7717,4.7717,4.7717,4.7717,4.7717,4.7717,4.7717,4.7717,4.7717,4.7717,4.7717,4.7717,0.0,0.0,4.7717,0.0,4.7759,4.7881,4.7949,4.8052,4.8187,4.8267,4.8306,4.8306,4.8306,4.8306,4.8306,4.8306,4.8306,4.8287,4.7816,4.7569,4.7485,0.0,4.6794,0.0,4.6707,4.6175,0.0,4.5397,4.5397,4.5476,4.6005,4.6235,4.6339,0.0,4.6908,4.6936,0.0,4.7428,4.7875,0.0,0.0,0.0,0.0,0.0,0.0,0.0,4.9206,0.0,0.0,0.0,4.9968,4.9967,0.0,0.0,0.0,0.0,0.0,0.0,0.0,0.0,0.0,0.0,0.0,0.0,0.0,0.0,0.0,0.0,5.0898,5.0898,5.0898,5.0898,5.0898,5.0898,5.0898,5.0898,5.0898,5.0898,5.0898,5.0898,5.0898,5.0898,5.0898,5.0898,5.0898,5.0898,5.1428,5.2339,5.2557,5.3611,5.5228,5.5388,5.5898,5.6601,5.6601,5.6601,5.6601,5.6601,5.6601,5.6601,4.7717,4.7717,4.7717,4.7717,4.7717,4.7717,4.7717,4.7717,4.7717,4.7717,4.7717,4.7717,0.0,0.0,0.0,0.0,0.0,4.7717,0.0,0.0,4.7738,4.778,4.7929,0.0,4.809,4.8247,4.8306,4.8306,4.8306,4.8306,4.8306,4.8306,4.8306,4.8287,4.8075,0.0,4.7591,0.0,4.7138,0.0,0.0,0.0,0.0,4.6266,4.6266,4.6297,4.6531,4.6625,4.6631,0.0,4.6724,0.0,0.0,0.0,0.0,0.0,0.0,0.0,0.0,0.0,0.0,0.0,0.0,0.0,0.0,0.0,4.9608,0.0,0.0,0.0,0.0,0.0,0.0,0.0,0.0,0.0,0.0,0.0,0.0,0.0,0.0,0.0,0.0,0.0,0.0,0.0,5.0898,5.0898,5.0898,5.0898,5.0898,5.0898,5.0898,5.0898,5.0898,5.0898,5.0898,5.0898,5.0898,5.0898,5.0898,5.0898,5.1172,5.1692,5.2262,5.3259,5.4545,5.5077,5.5801,5.6601,5.6601,5.6601,5.6601,5.6601,5.6601,5.6601,4.7759,4.7738,4.7717,4.7717,4.7717,4.7717,4.7717,4.7717,4.7717,4.7717,4.7717,0.0,4.7717,4.7717,0.0,0.0,4.7717,4.7717,0.0,0.0,4.7717,0.0,0.0,0.0,0.0,0.0,4.8267,4.8306,4.8306,4.8306,4.8306,4.8306,4.8306,4.8306,4.8306,4.8113,4.7795,0.0,4.7609,4.727,4.727,4.727,4.7266,4.6999,4.6908,4.6908,4.7044,4.7004,4.6931,4.7066,4.6794,0.0,4.7204,0.0,0.0,0.0,0.0,0.0,4.866,0.0,0.0,0.0,0.0,0.0,0.0,0.0,0.0,0.0,0.0,0.0,0.0,0.0,0.0,0.0,0.0,0.0,0.0,0.0,0.0,0.0,0.0,0.0,0.0,0.0,0.0,5.0898,5.0898,5.0898,5.0898,5.0898,5.0898,5.0898,5.0898,5.0898,5.0898,5.0898,5.0898,5.0898,5.0898,5.0898,5.0898,5.0944,5.1042,5.1242,5.1892,5.2739,5.3711,5.457,5.5469,5.6269,5.6504,5.6601,5.6601,5.6601,5.6601,5.6601,4.7861,4.778,4.7717,4.7717,4.7717,4.7717,4.7717,4.7717,4.7717,0.0,0.0,0.0,0.0,0.0,0.0,0.0,0.0,4.7717,4.7717,0.0,4.7759,0.0,0.0,4.7986,0.0,0.0,0.0,4.8306,4.8306,4.8306,4.8306,4.8306,4.8306,4.8306,4.8306,4.8287,4.8287,4.8287,4.8267,4.8267,4.8267,4.8267,4.8152,0.0,4.6908,4.6954,4.7421,0.0,0.0,4.7421,4.727,0.0,0.0,0.0,0.0,0.0,0.0,0.0,0.0,0.0,0.0,4.8804,0.0,0.0,0.0,0.0,4.8926,0.0,0.0,0.0,0.0,0.0,0.0,0.0,0.0,0.0,0.0,0.0,0.0,0.0,0.0,0.0,0.0,0.0,0.0,5.0898,5.0898,5.0898,5.0898,5.0898,5.0898,5.0898,5.0898,5.0898,5.0898,5.0898,5.0898,5.0898,5.0898,5.0898,5.0906,5.1037,5.1127,5.1207,5.1294,5.1863,5.2812,5.3672,5.4551,5.543,5.6269,5.6601,5.6601,5.6601,5.6601,5.6601,4.7968,4.7929,4.7847,4.772,0.0,4.7717,4.7717,4.7717,0.0,0.0,0.0,0.0,0.0,4.7717,4.7717,0.0,0.0,4.7717,4.7717,4.7717,0.0,0.0,0.0,4.7945,0.0,0.0,0.0,0.0,0.0,4.8306,4.8306,4.8306,4.8306,4.8306,4.8306,4.8306,0.0,0.0,0.0,0.0,0.0,4.8306,4.8267,0.0,0.0,4.7854,4.7995,4.7955,0.0,4.8015,4.7754,4.7421,4.7733,4.7524,4.727,4.7935,4.8073,0.0,0.0,0.0,4.8697,4.8787,0.0,0.0,0.0,0.0,0.0,0.0,0.0,0.0,0.0,0.0,0.0,0.0,0.0,0.0,0.0,0.0,0.0,0.0,0.0,0.0,0.0,0.0,0.0,5.0898,5.0898,5.0898,5.0898,5.0898,5.0898,5.0898,5.0898,5.0898,5.0898,5.0898,5.0898,5.0898,5.0898,5.0898,5.0906,5.1043,5.1146,5.1207,5.1274,5.1823,5.2715,5.3027,5.3984,5.5332,5.5625,5.6094,5.6601,5.6601,5.6601,5.6601,4.807,4.8269,0.0,0.0,0.0,4.7717,4.7717,0.0,0.0,0.0,4.7717,0.0,4.7717,0.0,4.7717,0.0,4.7717,4.7717,4.7717,4.7717,0.0,4.7785,4.7881,0.0,0.0,0.0,0.0,0.0,0.0,4.8306,4.8306,4.8306,4.8306,4.8306,4.8306,4.8306,4.8306,4.8306,4.8306,0.0,0.0,4.8306,0.0,0.0,4.8306,4.8306,0.0,4.8306,4.8306,4.8306,4.8113,4.7897,4.8191,4.7895,4.7524,4.8132,4.8152,4.8053,4.8343,4.8495,0.0,4.8679,4.8733,0.0,4.8839,0.0,0.0,0.0,0.0,0.0,0.0,0.0,0.0,0.0,0.0,0.0,0.0,5.0752,0.0,0.0,0.0,0.0,0.0,0.0,5.0898,5.0898,5.0898,5.0898,0.0,0.0,5.0898,5.0898,5.0898,5.0898,5.0898,5.0898,5.0898,5.0898,5.0898,5.0898,5.0906,5.1054,5.1162,5.1207,5.1295,5.1674,5.2266,5.2578,5.3535,5.4863,5.5176,5.582,5.6601,5.6601,5.6601,5.6601,4.8297,0.0,0.0,0.0,4.7928,0.0,0.0,0.0,4.7772,0.0,4.7735,4.7717,4.7717,4.7717,4.7717,4.7717,4.7717,0.0,4.7717,4.7717,0.0,0.0,4.7945,4.8026,4.8287,0.0,0.0,0.0,0.0,0.0,4.8306,4.8306,4.8306,4.8306,4.8306,0.0,4.8306,4.8306,4.8306,4.8306,4.8306,4.8306,4.8306,4.8306,4.8306,4.8306,4.8306,4.8306,4.8306,4.8306,4.8306,4.8306,4.8306,4.8306,4.8306,4.8306,4.8306,4.8306,4.8306,4.8382,4.8494,4.8513,0.0,0.0,0.0,0.0,4.8891,0.0,0.0,0.0,0.0,0.0,0.0,0.0,0.0,0.0,0.0,0.0,0.0,0.0,0.0,0.0,0.0,5.0898,5.0898,5.0898,5.0898,5.0898,0.0,0.0,5.0898,5.0898,5.0898,5.0898,5.0898,5.0898,5.0898,5.0898,5.0898,5.0898,5.0914,5.1113,5.1203,5.1211,5.1337,5.1406,5.1465,5.2285,5.3144,5.4023,5.4902,5.5781,5.6601,5.6601,5.6601,5.6601,5.001,5.0204,5.0177,0.0,4.9797,4.9692,0.0,0.0,0.0,0.0,4.8079,4.7717,4.7717,4.7717,4.7717,4.7717,4.7717,0.0,0.0,0.0,0.0,4.7925,4.7968,4.805,4.8226,4.8207,0.0,4.8306,0.0,0.0,4.8306,4.8306,4.8306,4.8306,0.0,4.8306,4.8306,4.8306,4.8306,4.8306,4.8306,4.8306,0.0,0.0,4.8306,4.8306,4.8306,4.8306,4.8306,4.8306,4.8306,4.8306,4.8306,4.8306,4.8306,4.8306,4.8306,4.8306,4.8306,4.8343,4.8382,4.8494,4.855,4.8624,0.0,0.0,0.0,0.0,0.0,0.0,0.0,0.0,0.0,0.0,0.0,0.0,0.0,0.0,0.0,0.0,0.0,0.0,0.0,5.0898,5.0898,5.0898,5.0898,5.0898,0.0,0.0,0.0,5.0898,5.0898,5.0898,5.0898,5.0898,5.0898,5.0898,5.0898,5.0898,5.0914,5.1113,5.1203,5.1211,5.1337,5.1406,5.1426,5.1641,5.2246,5.3125,5.3984,5.5254,5.6601,5.6601,5.6601,5.6601,5.071,0.0,0.0,5.1692,0.0,0.0,5.0463,0.0,0.0,4.9524,4.8796,0.0,4.8327,4.8024,4.7827,4.7827,4.7827,0.0,4.7827,0.0,0.0,4.8026,4.8068,4.813,4.8228,4.8228,0.0,4.8306,0.0,0.0,4.8306,4.8306,4.8306,4.8306,0.0,4.8306,4.8306,4.8306,4.8306,4.8306,4.8306,0.0,0.0,4.8306,4.8306,4.8306,4.8306,4.8306,4.8306,4.8306,4.8306,4.8306,4.8306,4.8306,4.8306,4.8306,4.8306,4.8306,4.8306,4.8306,4.8306,4.8382,4.8457,4.8532,4.8678,4.8769,4.8822,0.0,0.0,0.0,0.0,0.0,0.0,0.0,0.0,0.0,0.0,0.0,0.0,0.0,0.0,0.0,0.0,5.0898,5.0898,5.0898,5.0898,0.0,0.0,0.0,0.0,5.0898,5.0898,5.0898,5.0898,5.0898,5.0898,5.0898,5.0898,5.0898,5.0914,5.1113,5.1203,5.1211,5.1337,5.1406,5.1406,5.1406,5.1914,5.2812,5.4082,5.539,5.6601,5.6601,5.6601,5.6601,5.1096,0.0,0.0,0.0,0.0,0.0,0.0,5.0611,0.0,5.0468,0.0,4.9234,4.9125,4.8553,4.8121,4.8072,0.0,4.8073,4.8073,4.8073,4.8151,4.8247,4.8267,4.8325,4.8421,4.8421,0.0,0.0,0.0,0.0,4.8306,4.8306,4.8306,4.8306,0.0,0.0,0.0,4.8306,4.8306,4.8306,4.8306,4.8306,4.8306,4.8306,4.8306,4.8306,4.8306,4.8306,4.8306,4.8306,4.8306,4.8306,4.8306,4.8306,4.8306,4.8306,4.8306,4.8306,4.8306,4.8306,4.8306,4.8306,4.8382,4.8494,4.8569,4.8697,4.8804,4.8874,4.8891,4.8909,0.0,0.0,0.0,0.0,0.0,0.0,0.0,0.0,0.0,0.0,0.0,0.0,0.0,0.0,0.0,5.0898,5.0898,0.0,0.0,0.0,0.0,5.0898,5.0898,0.0,5.0898,0.0,5.0898,5.0898,5.0898,5.0898,5.0914,5.1113,5.1203,5.1211,5.1337,5.1406,5.1406,5.1406,5.1914,5.2851,5.4492,5.5664,5.6445,5.6562,5.6601,5.6601,0.0,0.0,0.0,0.0,0.0,5.3093,5.2758,5.2032,5.1487,5.138,5.0669,4.9922,4.9266,4.9065,4.8826,4.8458,4.8403,0.0,0.0,0.0,0.0,4.8605,4.8658,4.8815,4.9129,4.911,4.8982,0.0,0.0,0.0,4.8306,4.8306,4.8306,4.8306,0.0,0.0,4.8306,4.8306,0.0,4.8306,4.8306,4.8306,4.8306,4.8306,4.8306,4.8306,4.8306,4.8306,4.8306,4.8306,4.8306,4.8306,4.8306,4.8306,4.8306,4.8306,4.8306,4.8306,4.8306,4.8306,4.8306,4.8306,4.8306,4.8363,4.8494,4.8587,4.8678,4.8804,4.8856,4.8909,4.8909,0.0,0.0,0.0,0.0,0.0,0.0,0.0,0.0,0.0,0.0,0.0,0.0,0.0,0.0,0.0,0.0,0.0,0.0,0.0,0.0,0.0,5.0898,0.0,0.0,0.0,5.0898,5.0898,5.0898,5.0898,5.0914,5.1113,5.1203,5.1211,5.1337,5.1406,5.1406,5.1406,5.1914,5.2793,5.3828,5.4765,5.5605,5.6328,5.6601,5.6601,0.0,0.0,0.0,0.0,0.0,0.0,0.0,5.3071,0.0,5.2614,5.1877,5.1332,5.1138,5.0416,4.9838,4.9603,4.9191,4.8913,4.8913,4.8982,4.9017,4.9017,4.9031,0.0,4.9302,4.9299,4.9206,4.9048,0.0,0.0,4.8815,4.8641,4.864,4.8815,0.0,4.8458,0.0,0.0,0.0,4.8306,4.8306,4.8306,4.8306,4.8306,4.8306,4.8306,4.8306,4.8306,4.8306,4.8306,4.8306,4.8306,4.8306,4.8306,4.8306,4.8306,4.8306,4.8306,4.8306,4.8306,4.8306,4.8306,4.8306,4.8343,4.8457,4.8532,4.8587,4.8769,4.8822,4.8856,4.8891,4.8909,0.0,0.0,0.0,0.0,0.0,0.0,0.0,0.0,0.0,0.0,0.0,0.0,0.0,0.0,0.0,0.0,0.0,0.0,0.0,0.0,0.0,0.0,0.0,0.0,0.0,5.0898,5.0898,5.0898,5.0914,5.1113,5.1203,5.1211,5.1337,5.1406,5.1406,5.1406,5.1914,5.2793,5.3652,5.4531,5.541,5.6289,5.6601,5.6601,0.0,5.3185,0.0,0.0,5.3251,0.0,5.3662,5.3777,5.3796,5.3683,5.3107,5.2771,5.2921,5.1858,5.1018,5.0722,5.0082,4.9612,4.9409,4.9409,4.9409,4.9409,4.9409,4.9439,4.9512,4.9512,4.9483,0.0,0.0,0.0,0.0,0.0,0.0,0.0,0.0,0.0,0.0,0.0,4.8402,4.8402,4.8344,4.8306,4.8306,4.8306,4.8306,4.8306,4.8306,4.8306,4.8306,4.8306,4.8306,4.8306,4.8306,4.8306,4.8306,4.8306,4.8306,4.8306,4.8306,4.8306,4.8306,4.8306,4.8306,4.8325,4.8438,4.8494,4.8569,4.8715,4.8804,4.884,4.8891,4.8909,0.0,0.0,0.0,0.0,0.0,0.0,0.0,0.0,0.0,0.0,0.0,0.0,0.0,0.0,0.0,0.0,0.0,0.0,0.0,0.0,0.0,5.0898,5.0898,0.0,5.0898,0.0,5.0898,5.0921,5.094,5.1123,5.1211,5.1236,5.1358,5.1406,5.1406,5.1406,5.1797,5.2539,5.3594,5.4414,5.5156,5.6211,5.6601,5.6601,0.0,0.0,0.0,0.0,0.0,0.0,0.0,5.4016,5.4228,5.4228,5.4153,5.3851,5.3167,5.2959,5.2375,5.1168,5.0988,5.061,4.98,4.9744,4.9744,4.9744,4.9744,4.9903,5.0212,5.0212,5.0063,0.0,0.0,0.0,0.0,0.0,0.0,0.0,0.0,0.0,0.0,4.8883,4.8746,4.8729,4.842,4.8306,4.8306,4.8306,4.8306,4.8306,4.8306,4.8306,4.8306,4.8306,4.8306,4.8306,4.8306,4.8306,4.8306,4.8306,4.8306,4.8306,4.8306,4.8306,4.8306,4.8306,4.8306,4.8306,4.8306,4.8458,4.8605,4.8605,4.8767,4.8891,4.8909,4.8909,4.8909,0.0,0.0,0.0,0.0,0.0,0.0,0.0,0.0,0.0,0.0,5.0893,0.0,0.0,0.0,0.0,0.0,0.0,0.0,5.0898,0.0,5.0898,5.0898,5.0898,0.0,5.0898,5.0898,5.0954,5.1087,5.1156,5.1219,5.1293,5.1364,5.1406,5.1406,5.1406,5.1445,5.1699,5.3359,5.4043,5.4316,5.5996,5.6601,5.6601,0.0,0.0,0.0,0.0,0.0,0.0,0.0,5.4493,5.4689,5.4922,5.475,5.4572,5.4496,5.3998,5.3484,5.2945,5.1974,5.125,5.0888,5.0393,5.0088,5.0088,5.0088,5.0156,5.0302,5.0302,5.0236,0.0,0.0,0.0,0.0,0.0,0.0,0.0,0.0,4.9498,4.9283,4.9161,4.9097,4.9097,4.8949,4.878,4.8604,4.8604,4.8477,4.8306,4.8306,4.8306,4.8306,4.8306,4.8306,4.8306,4.8306,4.8306,4.8306,4.8306,4.8306,4.8306,4.8306,4.8306,4.8306,4.8306,4.8306,4.8306,4.8306,4.842,4.855,4.8587,4.8767,4.8909,4.8909,4.8909,4.8909,0.0,0.0,0.0,0.0,0.0,0.0,0.0,0.0,0.0,0.0,0.0,5.0898,0.0,0.0,0.0,0.0,0.0,0.0,5.0898,0.0,5.0898,5.0898,5.0898,5.0898,5.0898,5.0898,5.0969,5.1105,5.118,5.1266,5.1363,5.1386,5.1406,5.1406,5.1406,5.1406,5.1562,5.332,5.4004,5.4219,5.5957,5.6601,5.6601,5.3501,0.0,5.3888,0.0,5.4192,5.4528,5.4761,5.4899,5.5066,5.5358,5.514,5.508,5.5377,5.4849,5.4371,5.4123,5.3015,5.2231,5.1964,5.1162,5.0684,5.0684,5.0436,0.0,5.0302,5.0302,5.0302,5.0302,5.0302,0.0,0.0,0.0,0.0,0.0,4.9844,4.9817,4.9584,4.9498,4.9453,4.9439,4.9348,4.9161,4.8951,4.8951,4.8797,4.8586,4.8477,4.8458,4.8421,4.8344,4.8306,4.8306,4.8306,4.8306,4.8306,4.8306,4.8306,4.8306,4.8306,4.8306,4.8306,4.8306,4.8306,4.8306,4.8363,4.8438,4.855,4.8678,4.8803,4.8909,4.8909,4.8909,4.8909,4.8909,0.0,0.0,0.0,0.0,0.0,0.0,5.0557,5.0801,5.0801,5.0858,0.0,0.0,0.0,0.0,0.0,0.0,0.0,0.0,0.0,0.0,0.0,5.0898,5.0898,5.0898,5.0898,5.099,5.1122,5.1225,5.1302,5.1406,5.1406,5.1406,5.1406,5.1406,5.1406,5.1543,5.3047,5.3769,5.418,5.5664,5.6387,5.6601,5.421,5.4298,5.4279,5.4279,5.4576,5.4791,5.4791,5.514,5.539,5.5403,5.539,5.539,5.5403,5.5403,5.504,5.418,5.4085,5.3702,5.2843,5.204,5.157,0.0,0.0,5.0302,5.0302,5.0302,5.0302,5.0302,0.0,0.0,5.0302,0.0,5.029,5.029,5.029,5.029,5.0278,4.9923,4.9784,4.9776,4.9439,4.9302,4.9283,4.9283,4.9283,4.9237,4.8917,4.8799,4.8746,4.842,4.8306,4.8306,4.8306,4.8306,4.8306,4.8306,4.8306,4.8306,4.8306,4.8306,4.8306,4.8306,4.8306,4.8325,4.8457,4.855,4.866,4.8874,4.8909,4.8909,4.8909,4.8909,4.8909,4.8909,0.0,0.0,0.0,0.0,0.0,0.0,5.0557,5.0801,5.0801,0.0,0.0,0.0,0.0,0.0,0.0,0.0,0.0,5.0898,5.0898,0.0,5.0898,5.0898,5.0898,5.0898,5.0898,5.1005,5.1207,5.1335,5.1406,5.1406,5.1406,5.1406,5.1406,5.1406,5.1406,5.1484,5.2363,5.3242,5.4101,5.498,5.5859,5.6601,5.4262,5.4479,5.4639,5.4639,5.4966,5.52,5.52,5.5319,5.5403,5.5403,5.5403,5.5403,5.5403,5.5403,5.5288,0.0,5.4448,5.397,0.0,5.2881,5.2174,5.162,5.1322,5.0913,5.0302,5.0302,5.0302,5.0302,0.0,0.0,0.0,5.0302,5.0302,5.0302,5.0302,5.0302,5.029,5.02,5.0144,5.0132,5.0006,4.9844,4.9646,4.9646,4.9498,4.9302,4.9177,4.8982,4.8781,4.8676,4.855,4.8438,4.8438,4.8382,4.8306,4.8401,4.8438,4.8457,4.8495,4.8495,4.8495,4.8495,4.8495,4.8532,4.855,4.866,4.8768,4.8891,4.8909,4.8909,4.8909,4.8909,4.8909,4.8909,4.9193,0.0,0.0,0.0,0.0,0.0,0.0,5.0801,0.0,5.0858,0.0,0.0,0.0,0.0,0.0,0.0,0.0,0.0,5.0898,0.0,5.0898,5.0898,5.0898,5.0898,5.0898,5.1005,5.1207,5.1335,5.1406,5.1406,5.1406,5.1406,5.1406,5.1406,5.1406,5.1484,5.2363,5.3223,5.4101,5.498,5.5859,5.6601,5.4673,5.4874,5.5023,5.5023,5.5227,5.5403,5.5403,5.5403,5.5403,5.5403,5.5403,5.5403,5.5403,5.5403,0.0,5.5403,5.4906,5.46,5.46,5.376,5.3053,5.2556,5.1933,5.1353,5.0799,0.0,0.0,5.0302,5.0302,5.0302,5.0302,5.0302,5.0302,5.0302,5.0302,5.0302,5.0302,5.0302,5.0302,5.0302,5.0302,5.0169,4.9981,4.9981,4.987,4.9702,4.957,4.9405,4.9206,4.8984,4.8836,4.8696,4.8569,4.8495,4.8439,4.8513,4.8532,4.855,4.8605,4.8605,4.8605,4.8605,4.8605,4.8605,4.866,4.8768,4.8839,4.8891,4.8909,4.8909,4.8909,4.8909,4.8909,4.8909,4.9268,4.9612,4.9776,0.0,0.0,0.0,0.0,0.0,0.0,5.0861,0.0,0.0,0.0,0.0,0.0,0.0,0.0,5.0898,5.0898,0.0,5.0898,5.0898,5.0898,5.0898,5.0984,5.1083,5.1249,5.1359,5.1406,5.1406,5.1406,5.1406,5.1406,5.1406,5.1406,5.1445,5.1992,5.2949,5.4062,5.4609,5.5566,5.6601,5.5313,5.5403,0.0,0.0,5.5403,0.0,5.5403,5.5403,5.5403,5.5403,5.5403,5.5403,5.5403,5.5403,5.5403,5.5403,0.0,0.0,0.0,5.4639,5.4161,5.4104,5.2556,5.1658,5.1589,5.076,5.0302,5.0302,5.0302,5.0302,5.0302,5.0302,5.0302,5.0302,5.0302,5.0302,5.0302,5.0302,5.0314,5.0314,5.0314,5.0314,5.0314,5.0314,5.0348,5.0359,5.0044,4.9974,4.9898,4.9321,4.9118,4.9055,4.8731,4.8605,4.8623,4.8624,4.8605,4.8605,4.8623,4.8623,4.8623,4.8623,4.8623,4.866,4.8787,4.8875,4.8909,4.8909,4.8909,4.8909,4.8909,4.8926,4.8925,4.8925,4.9431,4.983,4.983,0.0,0.0,0.0,0.0,0.0,0.0,5.0863,5.0897,0.0,0.0,0.0,0.0,0.0,5.0898,5.0898,5.0898,5.0898,5.0898,5.0898,5.0898,5.0906,5.1108,5.1239,5.1293,5.1363,5.1406,5.1406,5.1406,5.1406,5.1406,5.1406,5.1406,5.1406,5.1406,5.2461,5.4004,5.4004,5.5098,5.6601,0.0,0.0,5.5403,5.5403,5.5403,5.5403,5.5403,5.5403,5.5403,5.5403,5.5403,5.5403,5.5403,5.5403,5.5403,5.5403,5.5403,5.5403,5.5403,5.5212,5.4811,5.4123,5.3072,5.2231,5.1608,5.076,5.0302,5.0302,5.0302,5.0302,5.0302,5.0302,5.0302,5.0302,5.0302,5.0325,5.039,5.039,5.0412,5.0438,5.0438,5.0438,5.0438,5.0438,5.0468,5.0468,5.0385,5.019,4.9955,4.9608,4.934,4.9118,4.8838,4.8786,4.8803,4.8768,4.875,4.875,4.8821,4.882,4.882,4.882,4.882,4.8838,4.8874,4.8891,4.8909,4.8909,4.8909,4.8909,4.8909,4.911,4.9289,4.9289,4.9749,5.0111,5.0111,5.0462,0.0,0.0,5.0749,5.0784,5.0801,5.0869,5.0909,0.0,0.0,0.0,0.0,5.0898,5.0898,5.0898,5.0898,5.0898,5.0898,5.0898,5.0898,5.0906,5.1108,5.1211,5.1236,5.1358,5.1406,5.1406,5.1406,5.1406,5.1406,5.1406,5.1406,5.1406,5.1406,5.2461,5.4004,5.4004,5.5098,5.6601,5.4123,5.4524,5.4811,5.4811,5.5135,5.5403,5.5403,5.5403,5.5403,5.5403,5.5403,5.5403,5.5403,5.5403,5.5403,5.5403,5.5403,5.5403,5.5403,5.5403,5.5193,5.4715,5.3473,5.2594,5.2155,5.0932,5.0302,5.0302,5.0302,5.0302,5.0302,5.0302,5.0314,5.0356,5.0356,5.0371,5.0446,5.0446,5.0468,5.05,5.05,5.05,5.05,5.05,5.0521,5.0562,5.0562,5.044,5.026,4.9974,4.9688,4.9431,4.9158,4.8976,4.8891,4.8856,4.8857,4.8839,4.8891,4.8909,4.8909,4.8909,4.8909,4.8909,4.8909,4.8909,4.8909,4.8909,4.901,4.9127,4.9127,4.9377,4.9569,4.9569,4.9936,5.0195,5.0195,5.0493,0.0,5.0712,5.074,5.0775,5.0801,5.0861,5.0901,5.0898,0.0,0.0,5.0898,5.0898,5.0898,5.0898,5.0898,5.0898,5.0898,5.0898,5.0937,5.099,5.1133,5.1222,5.1255,5.1341,5.1406,5.1406,5.1406,5.1406,5.1406,5.1406,5.1406,5.1406,5.1406,5.2461,5.4004,5.4004,5.5098,5.6601,5.2785,5.3397,5.3894,5.3894,5.4524,5.5021,5.5021,5.5021,5.5021,5.5021,5.5021,5.5059,5.5193,5.5212,5.5269,5.5403,5.5403,5.5403,5.5403,5.5403,5.5403,5.5403,5.3722,5.2805,5.2805,5.1162,5.0302,5.0314,5.0314,5.0314,5.0325,5.0325,5.0359,5.0424,5.0424,5.0457,5.0511,5.0511,5.0521,5.0532,5.0532,5.0532,5.0532,5.0532,5.0572,5.0613,5.0613,5.0643,5.0653,5.0306,5.0062,4.9817,4.9503,4.919,4.8978,4.8907,4.8909,4.8909,4.8909,4.8909,4.8909,4.8909,4.8909,4.8907,4.8959,4.8995,4.8993,4.9025,4.927,4.9457,4.9457,4.9684,4.9851,4.9851,5.0099,5.0272,5.0272,0.0,5.0693,5.0702,5.0702,5.0729,5.0801,5.0863,5.0905,5.0898,5.0898,5.0898,0.0,5.0898,5.0898,5.0898,5.0898,5.0898,5.0898,5.0898,5.0966,5.1075,5.1152,5.1225,5.1288,5.1341,5.1386,5.1406,5.1406,5.1406,5.1406,5.1406,5.1406,5.1406,5.1406,5.2461,5.4004,5.4004,5.5098,5.6601,5.2671,5.29,5.2996,5.2996,5.311,5.3206,5.3206,5.3206,5.3206,5.3206,5.3206,5.3473,5.4218,5.4295,5.46,5.5345,5.5403,5.5403,5.5403,5.5403,5.5403,5.5403,5.3722,5.2805,5.2805,5.1162,5.0325,5.0371,5.0371,5.0424,5.0478,5.0478,5.0459,5.0489,5.0489,5.0521,5.0582,5.0582,5.0613,5.0663,5.0663,5.0663,5.0663,5.0663,5.0692,5.0673,5.0673,5.0683,5.0653,5.0306,5.0171,5.0062,4.9558,4.9349,4.9273,4.8976,4.8909,4.8909,4.8909,4.8909,4.8909,4.8909,4.8909,4.8959,4.9257,4.9318,4.9396,4.9608,4.9707,4.9735,4.9735,4.9962,5.0147,5.0147,5.041,5.0624,5.0624,0.0,5.0702,5.0702,5.0757,5.0801,5.0891,5.0885,5.089,5.0898,5.0898,5.0898,5.0898,5.0898,5.0898,5.0898,5.0898,5.0898,5.0898,5.0898,5.0914,5.0917,5.1049,5.1152,5.1222,5.1286,5.1358,5.1406,5.1406,5.1406,5.1406,5.1406,5.1406,5.1406,5.1406,5.2461,5.4004,5.4004,5.5098,5.6601,5.1372,5.183,5.2155,5.2155,5.2499,5.2805,5.2805,5.2805,5.2805,5.2805,5.2805,5.2938,5.3359,5.3397,5.355,5.3951,5.4008,5.4008,5.4008,5.4887,5.5193,5.4715,5.351,5.2456,5.1591,5.0806,5.0416,5.0457,5.0457,5.0478,5.05,5.05,5.0521,5.0542,5.0542,5.0593,5.0643,5.0643,5.0663,5.0712,5.0712,5.0712,5.0712,5.0712,5.0712,5.0712,5.0712,5.0712,5.0673,5.0514,5.0347,5.0135,4.9735,4.9514,4.9318,4.8993,4.8909,4.8909,4.8909,4.8909,4.8909,4.8909,4.9027,4.9209,4.9349,4.9514,4.9655,4.9757,4.9904,5.0025,5.0025,5.026,5.0472,5.0472,5.0604,0.0,0.0,5.0693,5.0692,5.0692,5.0784,5.0863,5.0899,5.0893,5.0898,5.0898,5.0898,5.0898,5.0898,5.0898,5.0898,5.0898,5.0898,5.0898,5.0898,5.0898,5.0898,5.0898,5.1037,5.1146,5.1203,5.1274,5.1335,5.1406,5.1406,5.1406,5.1406,5.1406,5.1406,5.1406,5.1406,5.2461,5.4004,5.4004,5.5098,5.6601,5.0302,5.0837,5.1314,5.1314,5.1811,5.2212,5.2212,5.2212,5.2212,5.2212,5.2212,5.2289,5.2499,5.2518,5.2594,5.2785,5.2805,5.2817,5.2829,5.409,5.4517,5.3861,5.3049,5.1959,5.0519,5.05,5.0511,5.0521,5.0521,5.0532,5.0542,5.0542,5.0563,5.0623,5.0623,5.0643,5.0712,5.0712,5.0712,5.0712,5.0712,5.0712,5.0712,5.0712,5.0712,5.0712,5.0712,5.0712,5.0712,5.0712,5.0534,5.0272,4.9968,4.9749,4.9514,4.9125,4.8959,4.8926,4.9012,4.901,4.9027,4.9092,4.9299,4.9499,4.9573,4.9754,4.9923,4.9987,5.0178,5.0325,5.0325,5.0534,5.0712,5.0712,0.0,0.0,0.0,5.0712,5.0701,5.072,5.0829,5.0908,5.0897,5.0901,5.0898,5.0898,5.0898,5.0898,5.0898,5.0898,5.0898,5.0898,5.0898,5.0898,5.0898,5.0898,5.0898,5.0898,5.1004,5.11,5.1203,5.1241,5.1328,5.1406,5.1406,5.1406,5.1406,5.1406,5.1406,5.1406,5.1406,5.2461,5.4004,5.4004,5.5098,5.6601,5.0302,5.0359,5.0397,5.0397,5.0436,5.0474,5.0474,5.0474,5.0474,5.0474,5.0474,5.0799,5.1601,5.1697,5.1983,5.2728,5.2805,5.2829,5.2889,5.3004,5.3061,5.2984,5.2219,5.1371,5.0519,5.05,5.0532,5.0593,5.0593,5.0623,5.0702,5.0702,5.0702,5.0683,5.0683,5.0702,5.0712,5.0712,5.0712,5.0712,5.0712,5.0712,5.0712,5.0712,5.0712,5.0712,5.0712,5.0712,5.0712,5.0712,5.0683,5.0604,5.0272,5.0159,5.005,4.9514,4.9144,4.8978,4.9289,4.9368,4.9427,4.9665,4.9744,4.9844,5.0068,5.0159,5.026,5.0565,5.0653,5.0663,5.0663,5.0683,5.0712,5.0712,0.0,0.0,5.0712,5.0712,5.072,5.0784,5.0855,5.0897,5.089,5.0898,5.0898,5.0898,5.0898,5.0898,5.0898,5.0898,5.0898,5.0898,5.0898,5.0898,5.0898,5.0898,5.0898,5.0898,5.0914,5.1011,5.1203,5.1207,5.1282,5.1406,5.1406,5.1406,5.1406,5.1406,5.1406,5.1406,5.1406,5.2461,5.4004,5.4004,5.5098,5.6601,5.0302,5.0302,5.0302,5.0302,5.0302,5.0302,5.0302,5.0302,5.0302,5.0302,5.0302,5.0436,5.076,5.0799,5.0925,5.1285,5.1316,5.1339,5.1395,5.1406,5.1647,5.2179,5.1453,5.0889,5.0623,5.0623,5.0633,5.0653,5.0653,5.0682,5.0712,5.0712,5.0712,5.0712,5.0712,5.0712,5.0712,5.0712,5.0712,5.0712,5.0712,5.0712,5.0712,5.0712,5.0712,5.0712,5.0712,5.0712,5.0712,5.0712,5.0712,5.0634,5.0325,5.0195,5.0135,4.9749,4.955,4.9521,4.9817,4.9655,4.9472,4.9735,4.9936,5.0068,5.0183,5.0358,5.0554,5.0673,5.0712,5.0712,5.0712,5.0712,5.0712,5.0712,0.0,5.0702,5.0712,5.0739,5.0784,5.0855,5.0877,5.0901,5.0898,5.0898,5.0898,5.0898,5.0898,5.0898,5.0898,5.0898,5.0898,5.0898,5.0898,5.0898,5.0898,5.0898,5.0898,5.0898,5.0898,5.1005,5.1203,5.1203,5.1277,5.1406,5.1406,5.1406,5.1406,5.1406,5.1406,5.1406,5.1406,5.2461,5.4004,5.4004,5.5098,5.6601,5.0302,5.0302,5.0302,5.0302,5.0302,5.0302,5.0302,5.0302,5.0302,5.0302,5.0302,5.0302,5.0302,5.0314,5.0348,5.0401,5.0424,5.0457,5.0521,5.0542,5.0813,5.141,5.0911,5.0643,5.0712,5.0712,5.0712,5.0712,5.0712,5.0712,5.0712,5.0712,5.0712,5.0712,5.0712,5.0712,5.0712,5.0712,5.0712,5.0712,5.0712,5.0712,5.0712,5.0712,5.0712,5.0712,5.0712,5.0712,5.0712,5.0712,5.0712,5.0663,5.0432,5.0283,5.0171,4.9968,4.987,4.987,5.0135,4.9936,4.9726,5.0,5.0214,5.0358,5.0358,5.0525,5.0712,5.0712,5.0712,5.0712,5.0712,5.0712,5.0712,5.0712,5.0712,5.0702,5.0692,5.0766,5.0819,5.0899,5.0893,5.0898,5.0898,5.0898,5.0898,5.0898,5.0898,5.0898,5.0898,5.0898,5.0898,5.0898,5.0898,5.0898,5.0898,5.0898,5.0898,5.0898,5.0898,5.0998,5.118,5.1191,5.1269,5.1364,5.1386,5.1406,5.1406,5.1406,5.1406,5.1406,5.1406,5.2461,5.4004,5.4004,5.5098,5.6601,5.0302,5.0302,5.0302,5.0302,5.0302,5.0302,5.0302,5.0302,5.0302,5.0302,5.0302,5.0302,5.0302,5.0348,5.0401,5.0401,5.0468,5.0521,5.0593,5.0653,5.0663,5.0603,5.0653,5.0712,5.0712,5.0712,5.0712,5.0712,5.0712,5.0712,5.0712,5.0712,5.0712,5.0712,5.0712,5.0712,5.0712,5.0712,5.0712,5.0712,5.0712,5.0712,5.0712,5.0712,5.0712,5.0712,5.0712,5.0712,5.0712,5.0712,5.0712,5.0712,5.0712,5.0483,5.0206,5.0206,5.0025,4.987,5.0135,5.0206,5.0283,5.0614,5.0712,5.0712,5.0712,5.0712,5.0712,5.0712,5.0712,5.0712,5.0712,5.0712,5.0712,5.0712,5.0712,5.0702,5.0692,5.0766,5.0838,5.0899,5.0893,5.0898,5.0898,5.0898,5.0898,5.0898,5.0898,5.0898,5.0898,5.0898,5.0898,5.0898,5.0898,5.0898,5.0898,5.0898,5.0898,5.0898,5.0898,5.0969,5.1105,5.118,5.1242,5.1299,5.1364,5.1406,5.1406,5.1406,5.1406,5.1406,5.1406,5.2461,5.4004,5.4004,5.5098,5.6601,5.0248,5.0302,5.0302,5.0302,5.0302,5.0302,5.0302,5.0302,5.0302,5.0302,5.0337,5.0379,5.0379,5.0435,5.0489,5.054,5.0562,5.0603,5.0682,5.0702,5.0683,5.0663,5.0683,5.0712,5.0712,5.0712,5.0712,5.0712,5.0712,5.0712,5.0712,5.0712,5.0712,5.0712,5.0712,5.0712,5.0712,5.0712,5.0712,5.0712,5.0712,5.0712,5.0712,5.0712,5.0712,5.0712,5.0712,5.0712,5.0712,5.0712,5.0712,5.0712,5.0712,5.0624,5.0554,5.0554,5.0483,5.0451,5.0534,5.0554,5.0565,5.0673,5.0712,5.0712,5.0712,5.0712,5.0712,5.0712,5.0712,5.0712,5.0712,5.0712,5.0712,5.0712,5.0693,5.072,5.0766,5.0838,5.088,5.0901,5.089,5.0898,5.0898,5.0898,5.0898,5.0898,5.0898,5.0898,5.0898,5.0898,5.0898,5.0898,5.0898,5.0898,5.0898,5.0898,5.0898,5.0898,5.0898,5.0969,5.1105,5.112,5.1191,5.1297,5.1328,5.1361,5.1406,5.1406,5.1406,5.1406,5.1406,5.2461,5.4004,5.4004,5.5098,5.6601,5.0236,5.0302,5.0302,5.0302,5.0302,5.0302,5.0302,5.0302,5.0302,5.0302,5.0367,5.0401,5.0401,5.0478,5.0562,5.0593,5.0623,5.0653,5.0702,5.0712,5.0712,5.0712,5.0712,5.0712,5.0712,5.0712,5.0712,5.0712,5.0712,5.0712,5.0712,5.0712,5.0712,5.0712,5.0712,5.0712,5.0712,5.0712,5.0712,5.0712,5.0712,5.0712,5.0712,5.0712,5.0712,5.0712,5.0712,5.0712,5.0712,5.0712,5.0712,5.0712,5.0712,5.0712,5.0712,5.0712,5.0712,5.0712,5.0712,5.0712,5.0712,5.0712,5.0712,5.0712,5.0712,5.0712,5.0712,5.0712,5.0712,5.0712,5.0712,5.0712,5.0712,5.0712,5.0712,5.072,5.0793,5.0855,5.0897,5.0898,5.0898,5.0898,5.0898,5.0898,5.0898,5.0898,5.0898,5.0898,5.0898,5.0898,5.0898,5.0898,5.0898,5.0898,5.0898,5.0898,5.0898,5.0898,5.0898,5.0932,5.1024,5.1089,5.1178,5.1269,5.1325,5.1363,5.1406,5.1406,5.1406,5.1406,5.1406,5.2461,5.4004,5.4004,5.5098,5.6601,5.02,5.029,5.0302,5.0302,5.0302,5.0302,5.0302,5.0302,5.0302,5.0302,5.0379,5.0412,5.0424,5.0521,5.0603,5.0603,5.0653,5.0712,5.0712,5.0712,5.0712,5.0712,5.0712,5.0712,5.0712,5.0712,5.0712,5.0712,5.0712,5.0712,5.0712,5.0712,5.0712,5.0712,5.0712,5.0712,5.0712,5.0712,5.0712,5.0712,5.0712,5.0712,5.0712,5.0712,5.0712,5.0712,5.0712,5.0712,5.0712,5.0712,5.0712,5.0712,5.0712,5.0712,5.0712,5.0712,5.0712,5.0712,5.0712,5.0712,5.0712,5.0712,5.0712,5.0712,5.0712,5.0712,5.0712,5.0712,5.0712,5.0712,5.0712,5.0712,5.0693,5.0693,5.0712,5.0729,5.0801,5.0863,5.0897,5.0898,5.0898,5.0898,5.0898,5.0898,5.0898,5.0898,5.0898,5.0898,5.0898,5.0898,5.0898,5.0898,5.0898,5.0898,5.0898,5.0898,5.0898,5.0898,5.0898,5.0898,5.0914,5.1092,5.1187,5.1211,5.1331,5.1386,5.1406,5.1406,5.1406,5.1406,5.1484,5.2539,5.4004,5.4082,5.5176,5.6601,4.9844,5.0132,5.0302,5.0302,5.0302,5.0302,5.0302,5.0302,5.0314,5.0359,5.0446,5.05,5.0562,5.0623,5.0673,5.0673,5.0683,5.0712,5.0712,5.0712,5.0712,5.0712,5.0712,5.0712,5.0712,5.0712,5.0712,5.0712,5.0712,5.0712,5.0712,5.0712,5.0712,5.0712,5.0712,5.0712,5.0712,5.0712,5.0712,5.0712,5.0712,5.0712,5.0712,5.0712,5.0712,5.0712,5.0712,5.0712,5.0712,5.0712,5.0712,5.0712,5.0712,5.0712,5.0712,5.0712,5.0712,5.0712,5.0712,5.0712,5.0712,5.0712,5.0712,5.0712,5.0712,5.0712,5.0712,5.0712,5.0712,5.0712,5.0712,5.0712,5.0702,5.0702,5.0748,5.0801,5.0863,5.0885,5.089,5.0898,5.0898,5.0898,5.0898,5.0898,5.0898,5.0898,5.0898,5.0898,5.0898,5.0898,5.0898,5.0898,5.0898,5.0898,5.0898,5.0898,5.0898,5.0898,5.0898,5.0898,5.0898,5.0954,5.1047,5.1203,5.1239,5.1299,5.1406,5.1406,5.1406,5.1465,5.2148,5.3066,5.4082,5.4765,5.5683,5.6601,4.9702,4.9942,5.012,5.0259,5.0302,5.0302,5.0302,5.0325,5.0348,5.0401,5.0489,5.0572,5.0593,5.0653,5.0712,5.0712,5.0712,5.0712,5.0712,5.0712,5.0712,5.0712,5.0712,5.0712,5.0712,5.0712,5.0712,5.0712,5.0712,5.0712,5.0712,5.0712,5.0712,5.0712,5.0712,5.0712,5.0712,5.0712,5.0712,5.0712,5.0712,5.0712,5.0712,5.0712,5.0712,5.0712,5.0712,5.0712,5.0712,5.0712,5.0712,5.0712,5.0712,5.0712,5.0712,5.0712,5.0712,5.0712,5.0712,5.0712,5.0712,5.0712,5.0712,5.0712,5.0712,5.0712,5.0712,5.0712,5.0712,5.0712,5.0712,5.0712,5.0702,5.0692,5.0766,5.0819,5.0891,5.0893,5.0898,5.0898,5.0898,5.0898,5.0898,5.0898,5.0898,5.0898,5.0898,5.0898,5.0898,5.0898,5.0898,5.0898,5.0898,5.0898,5.0898,5.0898,5.0898,5.0898,5.0898,5.0898,5.0906,5.0961,5.1056,5.1157,5.1225,5.1288,5.1341,5.1386,5.1406,5.1484,5.2363,5.3223,5.4101,5.498,5.5859,5.6601,4.9512,4.9716,4.9884,5.0156,5.0259,5.0314,5.0314,5.0371,5.0424,5.0435,5.0521,5.0603,5.0613,5.0682,5.0712,5.0712,5.0712,5.0712,5.0712,5.0712,5.0712,5.0712,5.0712,5.0712,5.0712,5.0712,5.0712,5.0712,5.0712,5.0712,5.0712,5.0712,5.0712,5.0712,5.0712,5.0712,5.0712,5.0712,5.0712,5.0712,5.0712,5.0712,5.0712,5.0712,5.0712,5.0712,5.0712,5.0712,5.0712,5.0712,5.0712,5.0712,5.0712,5.0712,5.0712,5.0712,5.0712,5.0712,5.0712,5.0712,5.0712,5.0712,5.0712,5.0712,5.0712,5.0712,5.0712,5.0712,5.0712,5.0712,5.0712,5.0693,5.0702,5.072,5.0775,5.0846,5.0888,5.0901,5.0898,5.0898,5.0898,5.0898,5.0898,5.0898,5.0898,5.0898,5.0898,5.0898,5.0898,5.0898,5.0898,5.0898,5.0898,5.0898,5.0898,5.0898,5.0898,5.0898,5.0898,5.0898,5.0906,5.1017,5.1081,5.1117,5.1236,5.1288,5.132,5.1365,5.1406,5.1504,5.2519,5.3359,5.4121,5.5156,5.5976,5.6601,4.8917,4.9394,4.9798,4.9857,5.0156,5.039,5.039,5.0446,5.0511,5.0572,5.0593,5.0623,5.0673,5.0683,5.0712,5.0712,5.0712,5.0712,5.0712,5.0712,5.0712,5.0712,5.0712,5.0712,5.0712,5.0712,5.0712,5.0712,5.0712,5.0712,5.0712,5.0712,5.0712,5.0712,5.0712,5.0712,5.0712,5.0712,5.0712,5.0712,5.0712,5.0712,5.0712,5.0712,5.0712,5.0712,5.0712,5.0712,5.0712,5.0712,5.0712,5.0712,5.0712,5.0712,5.0712,5.0712,5.0712,5.0712,5.0712,5.0712,5.0712,5.0712,5.0712,5.0712,5.0712,5.0712,5.0712,5.0712,5.0712,5.0712,5.0712,5.0702,5.073,5.0784,5.0846,5.0888,5.0909,5.0898,5.0898,5.0898,5.0898,5.0898,5.0898,5.0898,5.0898,5.0898,5.0898,5.0898,5.0898,5.0898,5.0898,5.0898,5.0898,5.0898,5.0898,5.0898,5.0898,5.0898,5.0898,5.0898,5.0898,5.0921,5.099,5.1092,5.1174,5.1255,5.132,5.1365,5.1406,5.1562,5.3183,5.3906,5.4199,5.582,5.6504,5.6601,4.8764,4.905,4.9317,4.9579,4.9903,5.0156,5.0219,5.0424,5.0572,5.0593,5.0633,5.0663,5.0702,5.0712,5.0712,5.0712,5.0712,5.0712,5.0712,5.0712,5.0712,5.0712,5.0712,5.0712,5.0712,5.0712,5.0712,5.0712,5.0712,5.0712,5.0712,5.0712,5.0712,5.0712,5.0712,5.0712,5.0712,5.0712,5.0712,5.0712,5.0712,5.0712,5.0712,5.0712,5.0712,5.0712,5.0712,5.0712,5.0712,5.0712,5.0712,5.0712,5.0712,5.0712,5.0712,5.0712,5.0712,5.0712,5.0712,5.0712,5.0712,5.0712,5.0712,5.0712,5.0712,5.0712,5.0712,5.0712,5.0712,5.0712,5.0712,5.0702,5.073,5.0784,5.0819,5.0872,5.089,5.0898,5.0898,5.0898,5.0898,5.0898,5.0898,5.0898,5.0898,5.0898,5.0898,5.0898,5.0898,5.0898,5.0898,5.0898,5.0898,5.0898,5.0898,5.0898,5.0898,5.0898,5.0898,5.0898,5.0898,5.0898,5.0937,5.0997,5.1089,5.1178,5.1258,5.1325,5.1656,5.2246,5.3516,5.4609,5.5547,5.6328,5.6601,5.6601]}]]